[[{"header":{"parameterUnit":"m.s-1","parameterCategory":1,"la1":31.0,"la2":29.5877,"lo1":-88.7671,"lo2":-86.6584,"dy":0.0162,"dx":0.0185,"nx":115,"ny":88,"refTime":"2026-03-21T12:00:00:Z","depth":0,"parameterNumber":2,"parameterNumberName":"U-component_of_WINDS"},"data":[0.0,0.0,0.0,0.0,0.0,0.0,0.0,0.0,0.0,0.0,0.0,0.0,0.0,0.0,0.0,0.0,0.0,0.0,0.0,0.0,0.0,0.0,0.0,0.0,0.0,0.0,0.0,0.0,0.0,0.0,0.0,0.0,0.0,0.0,0.0,0.0,0.0,0.0,0.0,0.0,0.0,0.0,0.0,0.0,0.0,0.0,0.0,0.0,0.0,0.0,0.0,0.0,0.0,0.0,0.0,0.0,0.0,0.0,0.0,0.0,0.0,0.0,0.0,0.0,0.0,0.0,0.0,0.0,0.0,0.0,0.0,0.0,0.0,0.0,0.0,0.0,0.0,0.0,0.0,0.0,0.0,0.0,0.0,0.0,0.0,0.0,0.0,0.0,0.0,0.0,0.0,0.0,0.0,0.0,0.0,0.0,0.0,0.0,0.0,0.0,0.0,0.0,0.0,0.0,0.0,0.0,0.0,0.0,0.0,0.0,0.0,0.0,0.0,0.0,0.0,0.0,0.0,0.0,0.0,0.0,0.0,0.0,0.0,0.0,0.0,0.0,0.0,0.0,0.0,0.0,0.0,0.0,0.0,0.0,0.0,0.0,0.0,0.0,0.0,0.0,0.0,0.0,0.0,0.0,0.0,0.0,0.0,0.0,0.0,0.0,0.0,0.0,0.0,0.0,0.0,0.0,0.0,0.0,0.0,0.0,0.0,0.0,0.0,0.0,0.0,0.0,0.0,0.0,0.0,0.0,0.0,0.0,0.0,0.0,0.0,0.0,0.0,0.0,0.0,0.0,0.0,0.0,0.0,0.0,0.0,0.0,0.0,0.0,0.0,0.0,0.0,0.0,0.0,0.0,0.0,0.0,0.0,0.0,0.0,0.0,0.0,0.0,0.0,0.0,0.0,0.0,0.0,0.0,0.0,0.0,0.0,0.0,0.0,0.0,0.0,0.0,0.0,0.0,0.0,0.0,0.0,0.0,0.0,0.0,0.0,0.0,0.0,0.0,0.0,0.0,0.0,0.0,0.0,0.0,0.0,0.0,0.0,0.0,0.0,0.0,0.0,0.0,0.0,0.0,0.0,0.0,0.0,0.0,0.0,0.0,0.0,0.0,0.0,0.0,0.0,0.0,0.0,0.0,0.0,0.0,0.0,0.0,0.0,0.0,0.0,0.0,0.0,0.0,0.0,0.0,0.0,0.0,0.0,0.0,0.0,0.0,0.0,0.0,0.0,0.0,0.0,0.0,0.0,0.0,0.0,0.0,0.0,0.0,0.0,0.0,0.0,0.0,0.0,0.0,0.0,0.0,0.0,0.0,0.0,0.0,0.0,0.0,0.0,0.0,0.0,0.0,0.0,0.0,0.0,0.0,0.0,0.0,0.0,0.0,0.0,0.0,0.0,0.0,0.0,0.0,0.0,0.0,0.0,0.0,0.0,0.0,0.0,0.0,0.0,0.0,0.0,0.0,0.0,0.0,0.0,0.0,0.0,0.0,0.0,0.0,0.0,0.0,0.0,0.0,0.0,0.0,0.0,0.0,0.0,0.0,0.0,0.0,0.0,0.0,0.0,0.0,0.0,0.0,0.0,0.0,0.0,0.0,0.0,0.0,0.0,0.0,0.0,0.0,0.0,0.0,0.0,0.0,0.0,0.0,0.0,0.0,0.0,0.0,0.0,0.0,0.0,0.0,0.0,0.0,0.0,0.0,0.0,0.0,0.0,0.0,0.0,0.0,0.0,0.0,0.0,0.0,0.0,0.0,0.0,0.0,0.0,0.0,0.0,0.0,0.0,0.0,0.0,0.0,0.0,0.0,0.0,0.0,0.0,0.0,0.0,0.0,0.0,0.0,0.0,0.0,0.0,0.0,0.0,0.0,0.0,0.0,0.0,0.0,0.0,0.0,0.0,0.0,0.0,0.0,0.0,0.0,0.0,0.0,0.0,0.0,0.0,0.0,0.0,0.0,0.0,0.0,0.0,0.0,0.0,0.0,0.0,0.0,0.0,0.0,0.0,0.0,0.0,0.0,0.0,0.0,0.0,0.0,0.0,0.0,0.0,0.0,0.0,0.0,0.0,0.0,0.0,0.0,0.0,0.0,0.0,0.0,0.0,0.0,0.0,0.0,0.0,0.0,0.0,0.0,0.0,0.0,0.0,0.0,0.0,0.0,0.0,0.0,0.0,0.0,0.0,0.0,0.0,0.0,0.0,0.0,0.0,0.0,0.0,0.0,0.0,0.0,0.0,0.0,0.0,0.0,0.0,0.0,0.0,0.0,0.0,0.0,0.0,0.0,0.0,0.0,0.0,0.0,0.0,0.0,0.0,0.0,0.0,0.0,0.0,0.0,0.0,0.0,0.0,0.0,0.0,0.0,0.0,0.0,0.0,0.0,0.0,0.0,0.0,0.0,0.0,0.0,0.0,0.0,0.0,0.0,0.0,0.0,0.0,0.0,0.0,0.0,0.0,0.0,0.0,0.0,0.0,0.0,0.0,0.0,0.0,0.0,0.0,0.0,0.0,0.0,0.0,0.0,0.0,0.0,0.0,0.0,0.0,0.0,0.0,0.0,0.0,0.0,0.0,0.0,0.0,0.0,0.0,0.0,0.0,0.0,0.0,0.0,0.0,0.0,0.0,0.0,0.0,0.0,0.0,0.0,0.0,0.0,0.0,0.0,0.0,0.0,0.0,0.0,0.0,0.0,0.0,0.0,0.0,0.0,0.0,0.0,0.0,0.0,0.0,0.0,0.0,0.0,0.0,0.0,0.0,0.0,0.0,0.0,0.0,0.0,0.0,0.0,0.0,0.0,0.0,0.0,0.0,0.0,0.0,0.0,0.0,0.0,0.0,0.0,0.0,0.0,0.0,0.0,0.0,0.0,0.0,0.0,0.0,0.0,0.0,0.0,0.0,0.0,0.0,0.0,0.0,0.0,0.0,0.0,0.0,0.0,0.0,0.0,0.0,0.0,0.0,0.0,0.0,0.0,0.0,0.0,0.0,0.0,0.0,0.0,0.0,0.0,0.0,0.0,0.0,0.0,0.0,0.0,0.0,0.0,0.0,0.0,0.0,0.0,0.0,0.0,0.0,0.0,0.0,0.0,0.0,0.0,0.0,0.0,0.0,0.0,0.0,0.0,0.0,0.0,0.0,0.0,0.0,0.0,0.0,0.0,0.0,0.0,0.0,0.0,0.0,0.0,0.0,0.0,0.0,0.0,0.0,0.0,0.0,0.0,0.0,0.0,0.0,0.0,0.0,0.0,0.0,0.0,0.0,0.0,0.0,0.0,0.0,0.0,0.0,0.0,0.0,0.0,0.0,0.0,0.0,0.0,0.0,0.0,0.0,0.0,0.0,0.0,0.0,0.0,0.0,0.0,0.0,0.0,0.0,0.0,0.0,0.0,0.0,0.0,0.0,0.0,0.0,0.0,0.0,0.0,0.0,0.0,0.0,0.0,0.0,0.0,0.0,0.0,0.0,0.0,0.0,0.0,0.0,0.0,0.0,0.0,0.0,0.0,0.0,0.0,0.0,0.0,0.0,0.0,0.0,0.0,0.0,0.0,0.0,0.0,0.0,0.0,0.0,0.0,0.0,0.0,0.0,0.0,0.0,0.0,0.0,0.0,0.0,0.0,0.0,0.0,0.0,0.0,0.0,0.0,0.0,0.0,0.0,0.0,0.0,0.0,0.0,0.0,0.0,0.0,0.0,0.0,0.0,0.0,0.0,0.0,0.0,0.0,0.0,0.0,0.0,0.0,0.0,0.0,0.0,0.0,0.0,0.0,0.0,0.0,0.0,0.0,0.0,0.0,0.0,0.0,0.0,0.0,0.0,0.0,0.0,0.0,0.0,0.0,0.0,0.0,0.0,0.0,0.0,0.0,0.0,0.0,0.0,0.0,0.0,0.0,0.0,0.0,0.0,0.0,0.0,0.0,0.0,0.0,0.0,0.0,0.0,0.0,0.0,0.0,0.0,0.0,0.0,0.0,0.0,0.0,0.0,0.0,0.0,0.0,0.0,0.0,0.0,0.0,0.0,0.0,0.0,0.0,0.0,0.0,0.0,0.0,0.0,0.0,0.0,0.0,0.0,0.0,0.0,0.0,0.0,0.0,0.0,0.0,0.0,0.0,0.0,0.0,0.0,0.0,0.0,0.0,0.0,0.0,0.0,0.0,0.0,0.0,0.0,0.0,0.0,0.0,0.0,0.0,0.0,0.0,0.0,0.0,0.0,0.0,0.0,0.0,0.0,0.0,0.0,0.0,0.0,0.0,0.0,0.0,-5.451,0.0,0.0,0.0,0.0,0.0,0.0,0.0,0.0,0.0,0.0,0.0,0.0,0.0,0.0,0.0,0.0,0.0,0.0,0.0,0.0,0.0,0.0,0.0,0.0,0.0,0.0,0.0,0.0,0.0,0.0,0.0,0.0,0.0,0.0,0.0,0.0,0.0,0.0,0.0,0.0,0.0,0.0,0.0,0.0,0.0,0.0,0.0,0.0,0.0,0.0,0.0,0.0,0.0,0.0,0.0,0.0,0.0,0.0,0.0,0.0,0.0,0.0,0.0,0.0,0.0,0.0,0.0,0.0,0.0,0.0,0.0,0.0,0.0,0.0,0.0,0.0,0.0,0.0,0.0,0.0,0.0,0.0,0.0,0.0,0.0,0.0,0.0,0.0,0.0,0.0,0.0,0.0,0.0,0.0,0.0,0.0,0.0,0.0,0.0,0.0,0.0,0.0,0.0,0.0,0.0,0.0,0.0,0.0,0.0,0.0,-5.3597,-5.5126,-5.5524,-5.5518,-5.506,0.0,0.0,0.0,0.0,0.0,0.0,0.0,0.0,0.0,0.0,0.0,0.0,0.0,0.0,0.0,0.0,0.0,0.0,0.0,0.0,0.0,0.0,0.0,0.0,0.0,0.0,0.0,0.0,0.0,0.0,0.0,0.0,0.0,0.0,0.0,0.0,0.0,0.0,0.0,0.0,0.0,0.0,0.0,0.0,0.0,0.0,0.0,0.0,0.0,0.0,0.0,0.0,0.0,0.0,0.0,0.0,0.0,0.0,0.0,0.0,0.0,0.0,0.0,0.0,0.0,0.0,0.0,0.0,0.0,0.0,0.0,0.0,0.0,0.0,0.0,0.0,0.0,0.0,0.0,0.0,0.0,0.0,0.0,0.0,0.0,0.0,0.0,0.0,0.0,0.0,0.0,0.0,0.0,0.0,0.0,0.0,0.0,0.0,0.0,0.0,0.0,0.0,0.0,0.0,0.0,0.0,0.0,0.0,0.0,0.0,0.0,0.0,-5.5981,-5.5664,-5.5012,0.0,0.0,0.0,0.0,0.0,0.0,0.0,0.0,0.0,0.0,0.0,0.0,0.0,0.0,0.0,0.0,0.0,0.0,0.0,0.0,0.0,0.0,0.0,0.0,0.0,0.0,0.0,0.0,0.0,0.0,0.0,0.0,0.0,0.0,0.0,0.0,0.0,0.0,0.0,0.0,0.0,0.0,0.0,0.0,0.0,0.0,0.0,0.0,0.0,0.0,0.0,0.0,0.0,0.0,0.0,0.0,0.0,0.0,0.0,0.0,0.0,0.0,0.0,0.0,0.0,0.0,0.0,0.0,0.0,0.0,0.0,0.0,0.0,0.0,0.0,0.0,0.0,0.0,0.0,0.0,0.0,0.0,0.0,0.0,0.0,0.0,0.0,0.0,0.0,0.0,0.0,0.0,0.0,0.0,0.0,0.0,0.0,0.0,0.0,0.0,0.0,0.0,0.0,0.0,0.0,0.0,0.0,0.0,0.0,0.0,-5.5157,-5.6728,-5.677,0.0,-5.3524,0.0,0.0,0.0,0.0,0.0,0.0,0.0,0.0,0.0,0.0,0.0,0.0,0.0,0.0,0.0,0.0,0.0,0.0,0.0,0.0,0.0,0.0,0.0,0.0,0.0,0.0,0.0,0.0,0.0,0.0,0.0,0.0,0.0,0.0,0.0,0.0,0.0,0.0,0.0,0.0,0.0,0.0,0.0,0.0,0.0,0.0,0.0,0.0,0.0,0.0,0.0,0.0,0.0,0.0,0.0,0.0,0.0,0.0,0.0,0.0,0.0,0.0,0.0,0.0,0.0,0.0,0.0,0.0,0.0,0.0,0.0,0.0,0.0,0.0,0.0,0.0,0.0,0.0,0.0,0.0,0.0,0.0,0.0,0.0,0.0,0.0,0.0,0.0,0.0,0.0,0.0,0.0,0.0,0.0,0.0,0.0,0.0,0.0,0.0,0.0,0.0,0.0,0.0,0.0,0.0,0.0,0.0,0.0,0.0,0.0,-5.4673,-5.6173,-5.5685,-5.4482,0.0,0.0,0.0,0.0,0.0,0.0,0.0,0.0,0.0,0.0,0.0,0.0,0.0,0.0,0.0,0.0,0.0,0.0,0.0,0.0,0.0,0.0,0.0,0.0,0.0,0.0,0.0,0.0,0.0,0.0,0.0,0.0,0.0,0.0,0.0,0.0,0.0,0.0,0.0,0.0,0.0,0.0,0.0,0.0,0.0,0.0,0.0,0.0,0.0,0.0,0.0,0.0,0.0,0.0,0.0,0.0,0.0,0.0,0.0,0.0,0.0,0.0,0.0,0.0,0.0,0.0,0.0,0.0,0.0,0.0,0.0,0.0,0.0,0.0,0.0,0.0,0.0,0.0,0.0,0.0,0.0,0.0,0.0,0.0,0.0,0.0,0.0,0.0,0.0,0.0,0.0,0.0,0.0,0.0,0.0,0.0,0.0,0.0,0.0,0.0,0.0,0.0,0.0,0.0,0.0,0.0,0.0,0.0,0.0,0.0,-5.3401,-5.4499,-5.5875,-5.5405,-5.4014,-5.1738,0.0,0.0,0.0,0.0,0.0,0.0,0.0,0.0,0.0,0.0,0.0,0.0,0.0,0.0,0.0,0.0,0.0,0.0,0.0,0.0,0.0,0.0,0.0,0.0,0.0,0.0,0.0,0.0,0.0,0.0,0.0,0.0,0.0,0.0,0.0,0.0,0.0,0.0,0.0,0.0,0.0,0.0,0.0,0.0,0.0,0.0,0.0,0.0,0.0,0.0,0.0,0.0,0.0,0.0,0.0,0.0,0.0,0.0,0.0,0.0,0.0,0.0,0.0,0.0,0.0,0.0,0.0,0.0,0.0,0.0,0.0,0.0,0.0,0.0,0.0,0.0,0.0,0.0,0.0,0.0,0.0,0.0,0.0,0.0,0.0,0.0,0.0,0.0,0.0,0.0,0.0,0.0,0.0,0.0,0.0,0.0,0.0,0.0,0.0,0.0,0.0,0.0,0.0,0.0,0.0,0.0,0.0,0.0,-5.3348,-5.4137,-5.5265,-5.6681,-5.6708,-5.4858,0.0,0.0,0.0,0.0,0.0,0.0,0.0,0.0,0.0,0.0,0.0,0.0,0.0,0.0,0.0,0.0,0.0,0.0,0.0,0.0,0.0,0.0,0.0,0.0,0.0,0.0,0.0,0.0,0.0,0.0,0.0,0.0,0.0,0.0,0.0,0.0,0.0,0.0,0.0,0.0,0.0,0.0,0.0,0.0,0.0,0.0,0.0,0.0,0.0,0.0,0.0,0.0,0.0,0.0,0.0,0.0,0.0,0.0,0.0,0.0,0.0,0.0,0.0,0.0,0.0,0.0,0.0,0.0,0.0,0.0,0.0,0.0,0.0,0.0,0.0,0.0,0.0,0.0,0.0,0.0,0.0,0.0,0.0,0.0,0.0,0.0,0.0,0.0,0.0,0.0,0.0,0.0,0.0,0.0,0.0,0.0,0.0,0.0,0.0,0.0,0.0,0.0,0.0,0.0,0.0,0.0,0.0,0.0,0.0,-5.2049,-5.3931,-5.5514,-5.6671,-5.457,-5.2541,0.0,0.0,0.0,0.0,0.0,0.0,0.0,0.0,0.0,0.0,0.0,0.0,0.0,0.0,0.0,0.0,0.0,0.0,0.0,0.0,0.0,0.0,0.0,0.0,0.0,0.0,0.0,0.0,0.0,0.0,0.0,0.0,0.0,0.0,0.0,0.0,0.0,0.0,0.0,0.0,0.0,0.0,0.0,0.0,0.0,0.0,0.0,0.0,0.0,0.0,0.0,0.0,0.0,0.0,0.0,0.0,0.0,0.0,0.0,0.0,0.0,0.0,0.0,0.0,0.0,0.0,0.0,0.0,0.0,0.0,0.0,0.0,0.0,0.0,0.0,0.0,0.0,0.0,0.0,0.0,0.0,0.0,0.0,0.0,0.0,0.0,0.0,0.0,0.0,0.0,0.0,0.0,0.0,0.0,0.0,0.0,0.0,0.0,0.0,0.0,0.0,0.0,0.0,0.0,0.0,0.0,0.0,0.0,0.0,-5.1577,0.0,-5.5805,-5.6294,-5.3698,-5.151,0.0,0.0,0.0,0.0,0.0,0.0,0.0,0.0,0.0,0.0,0.0,0.0,0.0,0.0,0.0,0.0,0.0,0.0,0.0,0.0,0.0,0.0,0.0,0.0,0.0,0.0,0.0,0.0,0.0,0.0,0.0,0.0,0.0,0.0,0.0,0.0,0.0,0.0,0.0,0.0,0.0,0.0,0.0,0.0,0.0,0.0,0.0,0.0,0.0,0.0,0.0,0.0,0.0,0.0,0.0,0.0,0.0,0.0,0.0,0.0,0.0,0.0,0.0,0.0,0.0,0.0,0.0,0.0,0.0,0.0,0.0,0.0,0.0,0.0,0.0,0.0,0.0,0.0,0.0,0.0,0.0,0.0,0.0,0.0,0.0,0.0,0.0,0.0,0.0,0.0,0.0,0.0,0.0,0.0,0.0,0.0,0.0,0.0,0.0,0.0,0.0,0.0,0.0,0.0,0.0,0.0,0.0,0.0,-4.9407,-5.2325,-5.4989,-5.6195,-5.5655,-5.4461,-5.2104,0.0,0.0,0.0,0.0,0.0,0.0,0.0,0.0,0.0,0.0,0.0,0.0,0.0,0.0,0.0,0.0,0.0,0.0,0.0,0.0,0.0,0.0,0.0,0.0,0.0,0.0,0.0,0.0,0.0,0.0,0.0,0.0,0.0,0.0,0.0,0.0,0.0,0.0,0.0,0.0,0.0,0.0,0.0,0.0,0.0,0.0,0.0,0.0,0.0,0.0,0.0,0.0,0.0,0.0,0.0,0.0,0.0,0.0,0.0,0.0,0.0,0.0,0.0,0.0,0.0,0.0,0.0,0.0,0.0,0.0,0.0,0.0,0.0,0.0,0.0,0.0,0.0,0.0,0.0,0.0,0.0,0.0,0.0,0.0,0.0,0.0,0.0,0.0,0.0,0.0,0.0,0.0,0.0,0.0,0.0,0.0,0.0,0.0,0.0,0.0,0.0,0.0,0.0,0.0,0.0,0.0,0.0,0.0,0.0,-5.206,-5.5116,-5.7248,-5.8128,-5.4627,-5.2238,0.0,0.0,0.0,0.0,0.0,0.0,0.0,0.0,0.0,0.0,0.0,0.0,0.0,0.0,0.0,0.0,0.0,0.0,0.0,0.0,0.0,0.0,0.0,0.0,0.0,0.0,0.0,0.0,0.0,0.0,0.0,0.0,0.0,0.0,0.0,0.0,0.0,0.0,0.0,0.0,0.0,0.0,0.0,0.0,0.0,0.0,0.0,0.0,0.0,0.0,0.0,0.0,0.0,0.0,0.0,0.0,0.0,0.0,0.0,0.0,0.0,0.0,0.0,0.0,0.0,0.0,0.0,0.0,0.0,0.0,0.0,0.0,0.0,0.0,0.0,0.0,0.0,0.0,0.0,0.0,0.0,0.0,0.0,0.0,0.0,0.0,0.0,0.0,0.0,0.0,0.0,0.0,0.0,0.0,0.0,0.0,0.0,0.0,0.0,0.0,0.0,0.0,0.0,0.0,0.0,0.0,0.0,0.0,0.0,-5.3324,-5.6853,-5.9037,-5.9627,-5.567,-5.312,-5.215,0.0,0.0,0.0,0.0,0.0,0.0,0.0,0.0,0.0,0.0,0.0,0.0,0.0,0.0,0.0,0.0,0.0,0.0,0.0,0.0,0.0,0.0,0.0,0.0,0.0,0.0,0.0,0.0,0.0,0.0,0.0,0.0,0.0,0.0,0.0,0.0,0.0,0.0,0.0,0.0,0.0,0.0,0.0,0.0,0.0,0.0,0.0,0.0,0.0,0.0,0.0,0.0,0.0,0.0,0.0,0.0,0.0,0.0,0.0,0.0,0.0,0.0,0.0,0.0,0.0,0.0,0.0,0.0,0.0,0.0,0.0,0.0,0.0,0.0,0.0,0.0,0.0,0.0,0.0,0.0,0.0,0.0,0.0,0.0,0.0,0.0,0.0,0.0,0.0,0.0,0.0,0.0,0.0,0.0,0.0,0.0,0.0,0.0,0.0,0.0,0.0,0.0,0.0,0.0,0.0,0.0,0.0,0.0,-5.5697,-5.997,-6.1563,-6.0233,-5.7495,-5.4694,0.0,0.0,0.0,0.0,0.0,0.0,0.0,0.0,0.0,0.0,0.0,0.0,0.0,0.0,0.0,0.0,0.0,0.0,0.0,0.0,0.0,0.0,0.0,0.0,0.0,0.0,0.0,0.0,0.0,0.0,0.0,0.0,0.0,0.0,0.0,0.0,0.0,0.0,0.0,0.0,0.0,0.0,0.0,0.0,0.0,0.0,0.0,0.0,0.0,0.0,0.0,0.0,0.0,0.0,0.0,0.0,0.0,0.0,0.0,0.0,0.0,0.0,0.0,0.0,0.0,0.0,0.0,0.0,0.0,0.0,0.0,0.0,0.0,0.0,0.0,0.0,0.0,0.0,0.0,0.0,0.0,0.0,0.0,0.0,0.0,0.0,0.0,0.0,0.0,0.0,0.0,0.0,0.0,0.0,0.0,0.0,0.0,0.0,0.0,0.0,0.0,0.0,0.0,0.0,0.0,0.0,0.0,0.0,0.0,-5.8516,-6.317,-6.4972,-6.3636,-5.9779,-5.6749,0.0,0.0,0.0,0.0,0.0,0.0,0.0,0.0,0.0,0.0,0.0,0.0,0.0,0.0,0.0,0.0,0.0,0.0,0.0,0.0,0.0,0.0,0.0,0.0,0.0,0.0,0.0,0.0,0.0,0.0,0.0,0.0,0.0,0.0,0.0,0.0,0.0,0.0,0.0,0.0,0.0,0.0,0.0,0.0,0.0,0.0,0.0,0.0,0.0,0.0,0.0,0.0,0.0,0.0,0.0,0.0,0.0,0.0,0.0,0.0,0.0,0.0,0.0,0.0,0.0,0.0,0.0,0.0,0.0,0.0,0.0,0.0,0.0,0.0,0.0,0.0,0.0,0.0,0.0,0.0,0.0,0.0,0.0,0.0,0.0,0.0,0.0,0.0,0.0,0.0,0.0,0.0,0.0,0.0,0.0,0.0,0.0,0.0,0.0,0.0,0.0,0.0,0.0,0.0,0.0,0.0,0.0,0.0,-5.5942,-5.9502,-6.4472,-6.6698,-6.5936,-6.2327,-5.9022,0.0,0.0,0.0,0.0,0.0,0.0,0.0,0.0,0.0,0.0,0.0,0.0,0.0,0.0,0.0,0.0,0.0,0.0,0.0,0.0,0.0,0.0,0.0,0.0,0.0,0.0,0.0,0.0,0.0,0.0,0.0,0.0,0.0,0.0,0.0,0.0,0.0,0.0,0.0,0.0,0.0,0.0,0.0,0.0,0.0,0.0,0.0,0.0,0.0,0.0,0.0,0.0,0.0,0.0,0.0,0.0,0.0,0.0,0.0,0.0,0.0,0.0,0.0,0.0,0.0,0.0,0.0,0.0,0.0,0.0,0.0,0.0,0.0,0.0,0.0,0.0,0.0,0.0,0.0,0.0,0.0,0.0,0.0,0.0,0.0,0.0,0.0,0.0,0.0,0.0,0.0,0.0,0.0,0.0,0.0,0.0,0.0,0.0,0.0,0.0,0.0,0.0,0.0,0.0,0.0,0.0,0.0,0.0,-5.6637,-5.971,-6.4754,-6.7426,-6.7384,-6.47,-6.1016,0.0,0.0,0.0,0.0,0.0,0.0,0.0,0.0,0.0,0.0,0.0,0.0,0.0,0.0,0.0,0.0,0.0,0.0,0.0,0.0,0.0,0.0,0.0,0.0,0.0,0.0,0.0,0.0,0.0,0.0,0.0,0.0,0.0,0.0,0.0,0.0,0.0,0.0,0.0,0.0,0.0,0.0,0.0,0.0,0.0,0.0,0.0,0.0,0.0,0.0,0.0,0.0,0.0,0.0,0.0,0.0,0.0,0.0,0.0,0.0,0.0,0.0,0.0,0.0,0.0,0.0,0.0,0.0,0.0,0.0,0.0,0.0,0.0,0.0,0.0,0.0,0.0,0.0,0.0,0.0,0.0,0.0,0.0,0.0,0.0,0.0,0.0,0.0,0.0,0.0,0.0,0.0,0.0,0.0,0.0,0.0,0.0,0.0,0.0,0.0,0.0,0.0,0.0,0.0,0.0,0.0,0.0,0.0,-5.8192,-6.1275,-6.5856,-6.8548,-6.912,-6.4887,-6.0675,0.0,0.0,0.0,0.0,0.0,0.0,0.0,0.0,0.0,0.0,0.0,0.0,0.0,0.0,0.0,0.0,0.0,0.0,0.0,0.0,0.0,0.0,0.0,0.0,0.0,0.0,0.0,0.0,0.0,0.0,0.0,0.0,0.0,0.0,0.0,0.0,0.0,0.0,0.0,0.0,0.0,0.0,0.0,0.0,0.0,0.0,0.0,0.0,-4.7585,0.0,0.0,0.0,0.0,0.0,0.0,0.0,0.0,0.0,0.0,0.0,0.0,0.0,0.0,0.0,0.0,0.0,0.0,0.0,0.0,0.0,0.0,0.0,0.0,0.0,0.0,0.0,0.0,0.0,0.0,0.0,0.0,0.0,0.0,0.0,0.0,0.0,0.0,0.0,0.0,0.0,0.0,0.0,0.0,0.0,0.0,0.0,0.0,0.0,0.0,0.0,0.0,0.0,0.0,0.0,0.0,0.0,0.0,0.0,-5.8555,-6.176,-6.5934,-6.8141,-6.8092,-6.4927,-6.1159,0.0,0.0,0.0,0.0,0.0,0.0,0.0,0.0,0.0,0.0,0.0,0.0,0.0,0.0,0.0,0.0,0.0,0.0,0.0,0.0,0.0,0.0,0.0,0.0,0.0,0.0,0.0,0.0,0.0,0.0,0.0,0.0,0.0,0.0,0.0,0.0,0.0,0.0,0.0,0.0,0.0,0.0,0.0,0.0,0.0,0.0,0.0,0.0,0.0,0.0,0.0,0.0,0.0,0.0,0.0,0.0,0.0,0.0,0.0,0.0,0.0,0.0,0.0,0.0,0.0,0.0,0.0,0.0,0.0,0.0,0.0,0.0,0.0,0.0,0.0,0.0,0.0,0.0,0.0,0.0,0.0,0.0,0.0,0.0,0.0,0.0,0.0,0.0,0.0,0.0,0.0,0.0,0.0,0.0,0.0,0.0,0.0,0.0,0.0,0.0,0.0,0.0,0.0,0.0,0.0,0.0,0.0,-5.3415,-5.836,-6.1809,-6.5573,-6.7173,-6.6494,-6.4806,-6.1597,-5.6794,0.0,0.0,0.0,0.0,0.0,0.0,0.0,0.0,0.0,0.0,0.0,0.0,0.0,0.0,0.0,0.0,0.0,0.0,0.0,0.0,0.0,0.0,0.0,0.0,0.0,0.0,0.0,0.0,0.0,0.0,0.0,0.0,0.0,0.0,0.0,0.0,0.0,0.0,-3.6101,-3.9676,0.0,0.0,0.0,0.0,0.0,0.0,0.0,0.0,-4.8439,0.0,0.0,0.0,0.0,0.0,0.0,0.0,0.0,0.0,0.0,0.0,0.0,0.0,0.0,0.0,0.0,0.0,0.0,0.0,0.0,0.0,0.0,0.0,0.0,0.0,0.0,0.0,0.0,0.0,0.0,0.0,0.0,0.0,0.0,0.0,0.0,0.0,0.0,0.0,0.0,0.0,0.0,0.0,0.0,0.0,0.0,0.0,0.0,0.0,0.0,0.0,0.0,0.0,0.0,0.0,0.0,-4.905,-5.3815,-5.8296,-6.2506,-6.5291,-6.6641,-6.6439,-6.4237,-6.0559,-5.5481,0.0,0.0,0.0,0.0,0.0,0.0,0.0,0.0,0.0,0.0,0.0,0.0,0.0,0.0,0.0,0.0,0.0,0.0,0.0,0.0,0.0,0.0,0.0,0.0,0.0,0.0,0.0,0.0,0.0,0.0,0.0,0.0,0.0,0.0,0.0,0.0,0.0,0.0,0.0,-4.2678,-4.5365,0.0,0.0,0.0,0.0,0.0,0.0,0.0,0.0,-4.8578,0.0,0.0,0.0,0.0,0.0,0.0,0.0,0.0,0.0,0.0,0.0,0.0,0.0,0.0,0.0,0.0,0.0,0.0,0.0,0.0,0.0,0.0,0.0,0.0,0.0,0.0,0.0,0.0,0.0,0.0,0.0,0.0,0.0,0.0,0.0,0.0,0.0,0.0,0.0,0.0,0.0,0.0,0.0,0.0,0.0,0.0,0.0,0.0,0.0,0.0,0.0,0.0,0.0,0.0,0.0,-4.8136,-5.3962,-5.8645,-6.2115,-6.4591,-6.5668,-6.5209,-6.2456,-5.8669,0.0,0.0,0.0,0.0,0.0,0.0,0.0,0.0,0.0,0.0,0.0,0.0,0.0,0.0,0.0,0.0,0.0,0.0,0.0,0.0,0.0,0.0,0.0,0.0,0.0,0.0,0.0,0.0,0.0,0.0,0.0,0.0,0.0,0.0,0.0,0.0,0.0,0.0,0.0,0.0,-4.3814,-4.6618,-4.9053,0.0,0.0,0.0,0.0,0.0,0.0,-4.8729,-4.785,0.0,0.0,0.0,0.0,0.0,0.0,0.0,0.0,0.0,0.0,0.0,0.0,0.0,0.0,0.0,0.0,0.0,0.0,0.0,0.0,0.0,0.0,0.0,0.0,0.0,0.0,0.0,0.0,0.0,0.0,0.0,0.0,0.0,0.0,0.0,0.0,0.0,0.0,0.0,0.0,0.0,0.0,0.0,0.0,0.0,0.0,0.0,0.0,0.0,0.0,0.0,0.0,0.0,0.0,0.0,-4.683,-5.3789,-5.879,-6.1535,-6.3702,-6.4494,-6.3796,-6.0536,-5.6739,0.0,0.0,0.0,0.0,0.0,0.0,0.0,0.0,0.0,0.0,0.0,0.0,0.0,0.0,0.0,0.0,0.0,0.0,0.0,0.0,0.0,0.0,0.0,0.0,0.0,0.0,0.0,0.0,0.0,0.0,0.0,0.0,0.0,0.0,0.0,0.0,0.0,0.0,0.0,0.0,0.0,-4.76,-4.9531,-5.0036,0.0,0.0,0.0,0.0,-5.0368,-4.946,0.0,0.0,0.0,0.0,0.0,0.0,0.0,0.0,0.0,0.0,0.0,0.0,0.0,0.0,0.0,0.0,0.0,0.0,0.0,0.0,0.0,0.0,0.0,0.0,0.0,0.0,0.0,0.0,0.0,0.0,0.0,0.0,0.0,0.0,0.0,0.0,0.0,0.0,0.0,0.0,0.0,0.0,0.0,0.0,0.0,0.0,0.0,0.0,0.0,0.0,0.0,0.0,0.0,0.0,0.0,0.0,-4.6767,-5.2974,-5.7965,-6.1441,-6.2549,-6.3037,-6.289,-5.9252,-5.5447,0.0,0.0,0.0,0.0,0.0,0.0,0.0,0.0,0.0,0.0,0.0,0.0,0.0,0.0,0.0,0.0,0.0,0.0,0.0,0.0,0.0,0.0,0.0,0.0,0.0,0.0,0.0,0.0,0.0,0.0,0.0,0.0,0.0,0.0,0.0,0.0,0.0,0.0,0.0,0.0,0.0,-4.8775,-4.9435,-5.0973,-5.1949,0.0,0.0,-5.1849,-5.1638,-5.1863,0.0,0.0,0.0,0.0,0.0,0.0,0.0,0.0,0.0,0.0,0.0,0.0,0.0,0.0,0.0,0.0,0.0,0.0,0.0,0.0,0.0,0.0,0.0,0.0,0.0,0.0,0.0,0.0,0.0,0.0,0.0,0.0,0.0,0.0,0.0,0.0,0.0,0.0,0.0,0.0,0.0,0.0,0.0,0.0,0.0,0.0,0.0,0.0,0.0,0.0,0.0,0.0,0.0,0.0,0.0,-4.3621,-4.6181,-5.2524,-5.7114,-5.9519,-6.0808,-6.1227,-6.0744,-5.6952,-5.3367,0.0,0.0,0.0,0.0,0.0,0.0,0.0,0.0,0.0,0.0,0.0,0.0,0.0,0.0,0.0,0.0,0.0,0.0,0.0,0.0,0.0,0.0,0.0,0.0,0.0,0.0,0.0,0.0,0.0,0.0,0.0,0.0,0.0,0.0,0.0,0.0,0.0,0.0,0.0,0.0,0.0,0.0,-5.1046,-5.2442,0.0,0.0,0.0,-5.1643,-5.1463,0.0,0.0,0.0,0.0,0.0,0.0,0.0,0.0,0.0,0.0,0.0,0.0,0.0,0.0,0.0,0.0,0.0,0.0,0.0,0.0,0.0,0.0,0.0,0.0,0.0,0.0,0.0,0.0,0.0,0.0,0.0,0.0,0.0,0.0,0.0,0.0,0.0,0.0,0.0,0.0,0.0,0.0,0.0,0.0,0.0,0.0,0.0,0.0,0.0,0.0,0.0,0.0,0.0,0.0,0.0,0.0,0.0,-4.5944,-5.2222,-5.6253,-5.7769,-5.8763,-5.8967,-5.8305,-5.4539,0.0,0.0,0.0,0.0,0.0,0.0,0.0,0.0,0.0,0.0,0.0,0.0,0.0,0.0,0.0,0.0,0.0,0.0,0.0,0.0,0.0,0.0,0.0,0.0,0.0,0.0,0.0,-2.7666,0.0,0.0,0.0,0.0,0.0,0.0,0.0,0.0,0.0,0.0,0.0,0.0,0.0,0.0,-4.9264,-5.0954,-5.2634,-5.3575,0.0,0.0,-5.1487,-5.1356,-5.1268,-5.0065,0.0,0.0,0.0,0.0,0.0,0.0,0.0,0.0,0.0,0.0,0.0,0.0,0.0,0.0,0.0,0.0,0.0,0.0,0.0,0.0,0.0,0.0,0.0,0.0,0.0,0.0,0.0,0.0,0.0,0.0,0.0,0.0,0.0,0.0,0.0,0.0,0.0,0.0,0.0,0.0,0.0,0.0,0.0,0.0,0.0,0.0,0.0,0.0,0.0,0.0,0.0,0.0,0.0,0.0,-4.3812,-4.6696,-5.1987,-5.5469,-5.6898,-5.6423,-5.6073,-5.5966,-5.2302,-4.8972,0.0,0.0,0.0,0.0,0.0,0.0,0.0,0.0,0.0,0.0,0.0,0.0,0.0,0.0,0.0,0.0,0.0,0.0,0.0,0.0,0.0,0.0,0.0,0.0,0.0,0.0,0.0,0.0,0.0,0.0,0.0,0.0,0.0,0.0,0.0,0.0,0.0,0.0,0.0,0.0,0.0,-4.733,-4.7395,-5.0366,-5.2821,0.0,-5.2885,-5.2272,-5.1818,-5.3334,-5.2372,-4.5563,0.0,0.0,0.0,0.0,0.0,0.0,0.0,0.0,0.0,0.0,0.0,0.0,0.0,0.0,0.0,0.0,0.0,0.0,0.0,0.0,0.0,0.0,0.0,0.0,0.0,0.0,0.0,0.0,0.0,0.0,0.0,0.0,0.0,0.0,0.0,0.0,0.0,0.0,0.0,0.0,0.0,0.0,0.0,0.0,0.0,0.0,0.0,0.0,0.0,0.0,0.0,0.0,0.0,-4.2917,-4.5355,-5.0112,-5.3103,-5.4092,-5.4299,-5.4142,-5.3654,-5.1329,-4.8722,0.0,0.0,0.0,0.0,0.0,0.0,0.0,0.0,0.0,0.0,0.0,0.0,0.0,0.0,0.0,0.0,0.0,0.0,0.0,0.0,0.0,0.0,0.0,0.0,0.0,0.0,0.0,0.0,-3.2413,-3.3382,-3.3204,0.0,0.0,0.0,0.0,0.0,0.0,0.0,0.0,0.0,0.0,-4.7694,-4.9186,-5.1033,0.0,0.0,-5.1111,-5.045,-5.0301,-5.0256,-4.8897,-4.4952,-4.297,0.0,0.0,0.0,0.0,0.0,0.0,0.0,0.0,0.0,0.0,0.0,0.0,0.0,0.0,0.0,0.0,0.0,0.0,0.0,0.0,0.0,0.0,0.0,0.0,0.0,0.0,0.0,0.0,0.0,0.0,0.0,0.0,0.0,0.0,0.0,0.0,0.0,0.0,0.0,0.0,0.0,0.0,0.0,0.0,0.0,0.0,0.0,0.0,0.0,0.0,0.0,0.0,-4.229,-4.4833,-4.8886,-5.1296,-5.2037,-5.2341,-5.2092,-5.1329,-4.9894,-4.7782,0.0,0.0,0.0,0.0,0.0,0.0,0.0,0.0,0.0,0.0,0.0,0.0,0.0,0.0,0.0,0.0,0.0,0.0,0.0,0.0,0.0,0.0,0.0,0.0,0.0,0.0,0.0,0.0,-3.3311,-3.3528,-3.2597,0.0,0.0,0.0,0.0,0.0,0.0,0.0,0.0,0.0,0.0,-4.7136,-4.9489,-5.0426,-5.0731,-5.0211,-4.9305,-4.8655,-4.8461,-4.7773,-4.6426,-4.3853,0.0,0.0,0.0,0.0,0.0,0.0,0.0,0.0,0.0,0.0,0.0,0.0,0.0,0.0,0.0,0.0,0.0,0.0,0.0,0.0,0.0,0.0,0.0,0.0,0.0,0.0,0.0,0.0,0.0,0.0,-4.2199,0.0,0.0,0.0,0.0,0.0,0.0,0.0,0.0,0.0,0.0,0.0,0.0,0.0,0.0,0.0,0.0,0.0,0.0,0.0,0.0,0.0,0.0,-4.2085,-4.5612,-4.8524,-5.0452,-5.1114,-5.0536,-4.9805,-4.9077,-4.7657,-4.5783,-4.3515,0.0,0.0,0.0,0.0,0.0,0.0,0.0,0.0,0.0,0.0,0.0,0.0,0.0,0.0,0.0,0.0,0.0,0.0,0.0,0.0,0.0,0.0,0.0,0.0,0.0,0.0,-3.3733,-3.3484,-3.2554,0.0,0.0,0.0,0.0,0.0,0.0,0.0,0.0,0.0,0.0,-4.2129,-4.5106,-4.7156,-4.7951,-4.8385,-4.8355,-4.7802,-4.713,-4.6516,-4.686,-4.5978,0.0,0.0,0.0,0.0,0.0,0.0,0.0,0.0,0.0,0.0,0.0,0.0,0.0,0.0,0.0,0.0,0.0,0.0,0.0,0.0,0.0,0.0,0.0,0.0,0.0,0.0,0.0,-4.6007,-4.528,0.0,0.0,0.0,0.0,0.0,0.0,0.0,0.0,0.0,0.0,0.0,-4.387,-4.4333,0.0,0.0,0.0,0.0,0.0,0.0,0.0,0.0,0.0,0.0,0.0,0.0,-4.1548,-4.4142,-4.6633,-4.802,-4.8274,-4.802,-4.7784,-4.753,-4.6583,-4.4773,-4.2006,0.0,0.0,0.0,0.0,0.0,0.0,0.0,0.0,0.0,0.0,0.0,0.0,0.0,0.0,0.0,0.0,0.0,0.0,0.0,0.0,0.0,0.0,0.0,0.0,0.0,-3.2754,0.0,0.0,0.0,0.0,0.0,0.0,0.0,0.0,0.0,0.0,0.0,-3.8292,-4.0902,-4.3036,-4.4885,-4.6441,-4.6845,-4.698,0.0,0.0,0.0,0.0,0.0,0.0,0.0,0.0,0.0,0.0,0.0,0.0,0.0,0.0,-3.472,-3.2842,-3.219,-3.1825,-3.1449,0.0,0.0,0.0,0.0,0.0,0.0,0.0,0.0,0.0,0.0,0.0,0.0,0.0,0.0,-4.6667,0.0,-4.5128,0.0,0.0,0.0,0.0,0.0,0.0,0.0,0.0,-4.4682,-4.5376,-4.5365,-4.5855,-4.5297,0.0,-4.4333,-4.3301,0.0,0.0,0.0,0.0,0.0,0.0,0.0,0.0,-4.1261,-4.3382,-4.5635,-4.6786,-4.6786,-4.6786,-4.6667,-4.6413,-4.5703,-4.413,-4.166,-4.0663,-3.9,0.0,0.0,0.0,0.0,0.0,0.0,0.0,0.0,0.0,0.0,0.0,0.0,0.0,0.0,0.0,0.0,0.0,0.0,0.0,0.0,0.0,0.0,0.0,-3.3267,0.0,0.0,0.0,0.0,0.0,0.0,0.0,0.0,0.0,-3.5567,-3.774,-3.9967,-4.2124,-4.3494,-4.4706,-4.5813,0.0,0.0,0.0,0.0,0.0,0.0,0.0,-4.259,-4.2126,-4.0812,-3.9153,-3.7274,-3.687,-3.635,-3.4956,0.0,0.0,-3.3985,-3.3345,-3.2968,-3.2616,-3.2993,-3.3244,-3.2867,-3.3533,-3.4073,0.0,0.0,0.0,0.0,0.0,0.0,0.0,0.0,-4.7648,-4.7394,0.0,-4.5686,0.0,0.0,0.0,0.0,0.0,-4.2767,0.0,0.0,-4.6143,-4.6819,-4.6819,-4.6819,-4.6041,-4.4784,-4.6024,-4.5196,-4.2388,-4.0942,0.0,0.0,0.0,0.0,0.0,0.0,-4.1261,-4.3314,-4.5551,-4.6701,-4.6684,-4.6684,-4.638,-4.5686,-4.4976,-4.3904,-4.2405,-4.2303,-4.0967,-3.8084,-3.6636,0.0,0.0,0.0,0.0,0.0,0.0,0.0,0.0,0.0,0.0,0.0,0.0,0.0,0.0,0.0,0.0,0.0,0.0,0.0,0.0,-3.3155,0.0,0.0,0.0,0.0,0.0,0.0,0.0,0.0,0.0,0.0,-3.541,-3.8833,-4.1609,-4.2276,0.0,0.0,0.0,0.0,-4.5005,-4.4392,-4.4287,-4.3853,-4.2665,-4.291,-4.2865,-4.1669,0.0,0.0,-3.6153,-3.6915,-3.7234,-3.5082,-3.5567,-3.6355,-3.6267,-3.5316,-3.4688,-3.4568,-3.4248,-3.3972,-3.3997,-3.4412,-3.4813,-5.5396,0.0,0.0,0.0,0.0,-5.0559,-5.0879,-5.1336,-5.0913,-4.9949,-4.8612,-4.7479,0.0,0.0,0.0,0.0,0.0,0.0,-4.4925,-4.6194,-4.7141,-4.7597,-4.7614,-4.7567,-4.6819,-4.5432,-4.5821,-4.5297,-4.3955,-4.2946,-4.121,-3.874,0.0,0.0,0.0,0.0,-4.1459,-4.2658,-4.4333,-4.5241,-4.5224,-4.5241,-4.5139,-4.4936,-4.4716,-4.4113,-4.3105,-4.3071,-4.1982,-3.9572,-3.772,0.0,0.0,0.0,0.0,0.0,0.0,0.0,0.0,0.0,0.0,0.0,0.0,0.0,0.0,0.0,0.0,0.0,0.0,0.0,-3.1235,-3.2407,-3.2524,0.0,0.0,0.0,0.0,0.0,0.0,0.0,0.0,0.0,-3.7419,-3.9763,-4.1497,0.0,0.0,-4.3509,-4.3264,-4.3584,-4.3798,-4.3643,-4.3574,0.0,0.0,-4.2821,-4.2671,-4.2746,-4.1268,-3.936,-3.7187,-3.6496,-3.5884,-3.4839,-3.4977,-3.519,-3.5203,-3.529,-3.5107,-3.4839,-3.4843,-3.5019,-3.5056,-3.5504,-3.5868,-5.7579,-5.4624,-5.3328,-5.2689,-5.2553,-5.2553,-5.2807,-5.3179,-5.2909,-5.1843,-5.0253,-4.9238,-4.759,-4.5518,-4.4194,0.0,0.0,0.0,-4.5821,-4.7242,-4.7394,-4.7614,-4.7902,-4.7584,-4.6853,-4.5737,-4.5703,-4.5314,-4.4598,-4.3809,-4.2354,-4.0367,0.0,0.0,-3.9681,-4.0967,-4.1999,-4.2743,-4.3944,-4.4598,-4.4598,-4.4598,-4.4598,-4.4598,-4.4598,-4.4395,-4.3893,-4.3572,-4.2632,-4.1052,-3.9194,-3.6929,0.0,0.0,0.0,0.0,0.0,0.0,0.0,0.0,0.0,0.0,0.0,-2.4798,-2.4702,0.0,0.0,0.0,-2.9189,-3.1028,-3.2198,-3.2916,0.0,0.0,0.0,0.0,0.0,0.0,0.0,-3.4229,-3.6347,-3.7866,-3.8387,-3.994,-4.1085,-4.1392,-4.2058,-4.2417,-4.2066,0.0,-4.2566,-4.2566,-4.2551,-4.2551,-4.2551,-4.2237,-4.1855,-4.1255,-4.0096,-3.8499,-3.6614,-3.5645,-3.509,-3.4781,-3.468,-3.468,-3.468,-3.4956,-3.5082,-3.4801,-3.4931,-3.5157,-3.5182,-3.5479,-3.5717,-5.9595,-5.6714,-5.4702,-5.4177,-5.4668,-5.4685,-5.4634,-5.4567,-5.3924,-5.3195,-5.2297,-5.0917,-4.9761,-4.8774,-4.6725,0.0,-4.6846,-4.6214,-4.6658,-4.7855,-4.7192,-4.7175,-4.7669,-4.7022,-4.6329,-4.5602,-4.5618,-4.5246,-4.4598,-4.3859,-4.3115,-4.2388,-4.1711,-4.1644,-4.2083,-4.2219,-4.2608,-4.3206,-4.3995,-4.4412,-4.4429,-4.4429,-4.4429,-4.4412,-4.4429,-4.4412,-4.4395,-4.3707,-4.298,-4.2202,-4.0807,-3.8799,-3.6108,0.0,0.0,0.0,0.0,0.0,0.0,0.0,0.0,0.0,0.0,0.0,0.0,0.0,0.0,0.0,-3.0984,0.0,-3.3365,-3.4039,0.0,0.0,0.0,-3.1565,-3.1518,-3.2791,-3.4093,-3.5227,0.0,0.0,-3.8407,-3.9514,-4.0531,-4.1145,-4.1324,-4.1392,-4.1309,-4.1384,-4.1422,-4.1497,-4.1452,-4.1437,-4.1519,-4.1368,-4.0578,-3.871,-3.7924,-3.7136,-3.522,-3.4708,-3.4663,-3.448,-3.4587,-3.4517,-3.4542,-3.4537,-3.46,-3.4537,-3.4618,-3.4705,-3.4731,-3.4801,-3.4826,-5.8829,-5.7594,-5.7053,-5.6308,-5.5446,-5.5446,-5.5124,-5.4652,-5.5017,-5.4448,-5.3149,-5.2195,-5.0699,-4.8839,-4.7788,-4.7696,-4.8362,-4.8204,-4.8049,-4.7885,-4.7733,-4.7141,-4.6244,-4.6058,-4.5568,-4.4919,-4.4869,-4.4784,-4.4598,-4.4429,-4.391,-4.3183,-4.2953,-4.2108,-4.073,-4.1728,-4.21,-4.1728,-4.2472,-4.2828,-4.2844,-4.2855,-4.2844,-4.2855,-4.2844,-4.2871,-4.2828,-4.2675,-4.2219,-4.1474,-4.0054,-3.8496,-3.6779,-3.2539,0.0,0.0,0.0,0.0,0.0,0.0,0.0,0.0,0.0,-2.6044,-2.4585,0.0,-2.7611,0.0,-3.1721,-3.3125,-3.2796,-3.335,0.0,0.0,-3.3418,-3.3576,-3.5042,-3.5548,-3.6049,-3.6788,-3.8242,-3.8975,-3.8452,-3.9125,-3.9672,-3.9888,-4.0756,-4.1242,-4.0741,-4.1085,-4.1422,-4.1392,-4.1339,-4.1422,-4.1302,-4.0698,-3.9686,-3.8283,-3.7379,-3.6247,-3.4414,-3.4098,-3.396,-3.3583,-3.347,-3.3458,-3.3495,-3.347,-3.3483,-3.3533,-3.4123,-3.468,-3.468,-3.4668,-3.4668,-5.8575,-5.7865,-5.7543,-5.6934,-5.6207,-5.619,-5.5756,-5.5156,-5.5544,-5.4878,-5.3381,-5.259,-5.1515,-5.0342,-4.9895,-4.9766,-4.9817,-4.9194,-4.8547,-4.7885,-4.7212,-4.6498,-4.5686,-4.5365,-4.4976,-4.4615,-4.4598,-4.4598,-4.4598,-4.4598,-4.435,-4.3927,-4.3561,-4.2625,-4.1187,-4.1897,-4.21,-4.1694,-4.21,-4.2303,-4.2303,-4.2303,-4.2151,-4.1813,-4.1813,-4.1644,-4.1348,-4.1001,-4.0646,-4.0206,-3.9123,-3.8022,-3.6924,-3.3459,-3.1307,0.0,0.0,0.0,0.0,0.0,0.0,0.0,0.0,0.0,0.0,0.0,-2.8476,-3.0274,-3.2302,-3.3469,-3.3395,-3.4008,-3.4532,-3.4891,-3.4607,-3.4951,-3.6327,-3.6731,-3.715,-3.7778,-3.8766,-3.926,-3.8901,-3.9185,-3.9388,-3.9388,-4.0038,-4.0367,-4.0083,-4.0307,-4.0502,-4.0502,-4.0516,-4.0301,-3.9896,-3.8904,-3.7852,-3.6825,-3.6077,-3.5224,-3.3844,-3.3545,-3.342,-3.3156,-3.3124,-3.3124,-3.3124,-3.3124,-3.3124,-3.3199,-3.3558,-3.3947,-3.3985,-3.3985,-3.3985,-5.8423,-5.7695,-5.707,-5.6752,-5.6672,-5.6672,-5.6286,-5.5701,-5.5695,-5.4893,-5.3468,-5.2617,-5.225,-5.2247,-5.2028,-5.1597,-5.0891,-4.9528,-4.8426,-4.7564,-4.6295,-4.5652,-4.5534,-4.4874,-4.4598,-4.4598,-4.4598,-4.4598,-4.4598,-4.4485,-4.4412,-4.4276,-4.3521,-4.276,-4.2033,-4.2042,-4.2016,-4.2025,-4.2042,-4.2042,-4.1999,-4.1999,-4.166,-4.0967,-4.0933,-4.0561,-3.9859,-3.9191,-3.8853,-3.8819,-3.8159,-3.7466,-3.6789,-3.4726,-3.3183,0.0,-3.003,0.0,0.0,0.0,0.0,0.0,0.0,0.0,0.0,-2.874,-2.9609,-3.1468,-3.2946,-3.3963,-3.4459,-3.51,-3.5489,-3.5489,-3.5489,-3.5759,-3.6417,-3.6971,-3.7539,-3.8182,-3.8871,-3.929,-3.9245,-3.9349,-3.9388,-3.9177,-3.9361,-3.942,-3.9207,-3.92,-3.9193,-3.9192,-3.9068,-3.8603,-3.783,-3.6766,-3.5803,-3.4978,-3.4645,-3.4191,-3.3321,-3.3149,-3.3136,-3.3124,-3.3124,-3.3124,-3.3124,-3.3124,-3.3124,-3.3124,-3.3187,-3.3212,-3.3199,-3.3224,-3.3124,-5.7662,-5.7002,-5.6867,-5.6456,-5.5928,-5.591,-5.5835,-5.5678,-5.5695,-5.5137,-5.4169,-5.3422,-5.3044,-5.29,-5.171,-5.0791,-5.0156,-4.925,-4.7847,-4.6109,-4.5838,-4.5382,-4.4807,-4.4682,-4.4598,-4.4598,-4.4598,-4.4598,-4.4581,-4.3944,-4.3335,-4.2709,-4.1982,-4.1255,-4.0553,0.0,0.0,0.0,-4.0536,-4.0519,-4.0536,-4.0519,-4.018,-3.9445,-3.9411,0.0,-3.8362,-3.8193,-3.8125,-3.8091,-3.7398,0.0,0.0,0.0,0.0,0.0,0.0,0.0,0.0,0.0,0.0,0.0,-2.8535,-2.8174,-2.8601,-3.0519,-3.1871,-3.2318,-3.4023,-3.4936,-3.4532,-3.51,-3.5489,-3.5489,-3.5489,-3.5759,-3.6402,-3.6596,-3.6911,-3.7524,-3.8182,-3.8586,-3.8566,-3.9065,-3.9038,-3.8279,-3.8855,-3.898,-3.8182,-3.8144,-3.8107,-3.8069,-3.7458,-3.6799,-3.6526,-3.5628,-3.4884,-3.4622,-3.3911,-3.3386,-3.3116,-3.3086,-3.3099,-3.3074,-3.3124,-3.3086,-3.3099,-3.3124,-3.3048,-3.3111,-3.3099,-3.3124,-3.3124,-3.3124,-3.3124,-5.7137,0.0,-5.6406,-5.6039,0.0,-5.6141,-5.6074,-5.5678,-5.5693,-5.5196,-5.4359,-5.3598,-5.2999,-5.2561,-5.1791,-5.07,-4.9384,-4.8597,-4.7335,-4.5715,-4.5314,-4.497,-4.4598,-4.4598,-4.4598,-4.4598,-4.4598,-4.4367,-4.4012,-4.3606,-4.3031,-4.2313,-4.1576,-4.1018,-4.0629,-4.0299,-4.0113,-4.0113,-4.0113,-4.0113,-4.0113,-4.0113,-3.9563,-3.8514,0.0,0.0,0.0,0.0,0.0,0.0,0.0,0.0,0.0,0.0,0.0,-3.3511,-3.227,-3.1069,-3.0109,-3.0373,-3.0422,-3.0081,-3.0043,-3.0016,-3.0031,-3.1869,-3.314,-3.3455,-3.4427,-3.4996,-3.5011,-3.5295,-3.5489,-3.5489,-3.5489,-3.5654,-3.5968,-3.6297,-3.6596,-3.6941,-3.7509,-3.7744,-3.7258,-3.7487,-3.7419,-3.677,-3.7053,-3.7394,-3.7157,-3.7472,-3.7663,-3.7098,-3.6146,-3.5467,-3.5359,-3.4581,-3.3898,-3.3814,-3.3242,-3.2709,-3.2641,-3.2428,-3.224,-3.224,-3.2252,-3.2282,-3.2282,-3.2252,-3.2282,-3.2294,-3.2282,-3.2282,-3.2277,-3.2692,-3.3124,-5.6647,-5.6362,-5.5899,-5.5709,-5.5767,-5.6402,-5.6223,-5.548,0.0,0.0,0.0,-5.3353,-5.2619,-5.1977,-5.1722,-5.0486,-4.8586,-4.7824,-4.6759,-4.5483,-4.4874,-4.4598,-4.4598,-4.4598,-4.4598,-4.4598,-4.4479,-4.4045,-4.3392,-4.3139,-4.2709,-4.2083,-4.1356,-4.0933,-4.0781,-4.0206,-3.9842,-3.9723,-3.9842,-3.9859,-3.974,-3.9706,-3.9056,-3.7736,-3.7719,-3.7043,-3.565,-3.5616,-3.5616,-3.5616,-3.5616,-3.5515,-3.5436,-3.5397,-3.5346,-3.5205,-3.4831,-3.4036,-3.2853,-3.2777,-3.2175,-3.0773,-3.1286,-3.1675,-3.1675,-3.2706,-3.3589,-3.4279,-3.4324,-3.4547,-3.51,-3.5145,-3.5145,-3.516,-3.525,-3.531,-3.5355,-3.5908,-3.6297,-3.6387,-3.6866,-3.6985,-3.6301,-3.6326,-3.605,-3.562,-3.5723,-3.5405,-3.5719,-3.6426,-3.6654,-3.5504,-3.4604,-3.4206,-3.399,-3.3425,-3.2822,-3.2739,-3.237,-3.2089,-3.2001,-3.1687,-3.1424,-3.1486,-3.1386,-3.1424,-3.1411,-3.1474,-3.1386,-3.1386,-3.1386,-3.1386,-3.1461,-3.2156,-3.2734,-5.6055,-5.494,-5.5486,-5.5689,-5.5698,-5.5837,-5.5366,-5.4598,-5.458,-5.4111,-5.3335,-5.2527,-5.2105,-5.1942,-5.0565,-4.9161,-4.7831,-4.6962,-4.5932,0.0,-4.4649,-4.4598,-4.4598,-4.4598,-4.4598,-4.4547,-4.391,-4.3538,-4.3257,-4.2134,-4.1457,-4.1271,-4.0612,-3.9935,-3.936,-3.9208,-3.8836,-3.8244,-3.8836,-3.8836,-3.8227,-3.821,-3.7804,-3.7015,-3.6981,-3.6535,-3.5633,-3.5616,-3.5616,-3.5616,-3.5616,-3.5312,-3.4709,-3.4675,-3.437,-3.3829,-3.4216,-3.418,-3.3421,-3.3408,-3.2859,-3.1563,-3.1974,-3.2348,-3.2377,-3.2512,-3.2916,-3.3544,-3.3664,-3.3664,-3.3784,-3.3829,-3.3873,-3.3858,-3.4292,-3.4622,-3.4637,-3.522,-3.5639,-3.5654,-3.6222,-3.6578,-3.6274,-3.661,-3.6488,-3.5956,-3.5296,-3.5259,-3.4052,-3.4406,-3.4373,-3.3196,-3.2637,-3.2364,-3.2181,-3.183,-3.1725,-3.1625,-3.1599,-3.1499,-3.1512,-3.1373,-3.126,-3.1348,-3.1273,-3.1298,-3.1311,-3.1386,-3.1298,-3.126,-3.1248,-3.1286,-3.126,-3.1499,-3.165,-5.5209,-5.4703,-5.5407,-5.5449,-5.5036,-5.5002,-5.4775,-5.4326,-5.3463,-5.2894,-5.2506,-5.1773,-5.0969,-5.0107,-4.9046,-4.7824,-4.6465,-4.609,-4.5433,-4.4626,-4.4598,-4.4598,-4.4598,-4.4598,-4.4395,-4.3944,-4.3589,-4.2987,-4.2219,-4.1482,-4.0984,-4.0578,-3.9876,-3.9326,-3.8988,-3.8599,-3.8041,-3.7347,-3.8024,-3.8227,-3.7898,-3.7898,-3.755,-3.6829,-3.6812,-3.6417,-3.5633,-3.5616,-3.5616,-3.5616,-3.5616,-3.543,-3.5131,-3.5115,-3.4962,-3.4619,-3.4912,-3.4637,-3.3616,-3.2877,-3.2201,-3.1568,-3.178,-3.1959,-3.1944,-3.2617,-3.317,-3.3469,-3.3499,-3.3499,-3.3499,-3.3499,-3.3499,-3.3499,-3.3769,-3.3933,-3.4008,-3.4563,-3.4936,-3.5011,-3.5549,-3.5544,-3.4522,-3.4614,-3.4326,-3.3332,-3.3261,-3.3103,-3.229,-3.2581,-3.2688,-3.1937,-3.1763,-3.1675,-3.1411,-3.1386,-3.1386,-3.1386,-3.1148,-3.0984,-3.0947,-3.0783,-3.0557,-3.052,-3.0532,-3.052,-3.0545,-3.0532,-3.0532,-3.052,-3.052,-3.052,-3.052,-3.052,-3.0721,-5.4499,-5.4432,-5.5142,-5.5076,-5.4472,-5.4437,-5.4206,-5.3767,-5.2374,-5.16,-5.1227,-5.0687,-4.9757,-4.8586,-4.7766,-4.6734,-4.5615,-4.5511,-4.5178,-4.4626,-4.4598,-4.4598,-4.4564,-4.4445,-4.3995,-4.3375,-4.3071,-4.2303,-4.1305,-4.1035,-4.0578,-3.9876,-3.9276,-3.8836,-3.8522,-3.7922,-3.728,-3.662,-3.711,-3.7398,-3.7381,-3.7374,-3.711,-3.6592,-3.6541,-3.6231,-3.565,-3.5616,-3.5616,-3.5616,-3.5616,-3.5616,-3.5616,-3.5616,-3.5616,-3.5616,-3.5616,-3.5021,-3.371,-3.2598,-3.1838,-3.1524,-3.1496,-3.1496,-3.1585,-3.2452,-3.3051,-3.3051,-3.3006,-3.3006,-3.2991,-3.3021,-3.3066,-3.3051,-3.32,-3.3275,-3.3335,-3.3858,-3.4247,-3.4322,-3.4686,-3.4339,-3.3141,-3.263,-3.225,-3.1344,-3.1104,-3.1253,-3.1103,-3.1035,-3.1035,-3.106,-3.1122,-3.1122,-3.1085,-3.0984,-3.0972,-3.1022,-3.0696,-3.047,-3.0369,-3.0055,-2.9842,-2.988,-2.9842,-2.988,-2.9817,-2.9829,-2.9854,-2.9905,-2.9917,-2.9854,-2.9892,-2.988,-3.003,-5.4194,-5.3768,-5.436,-5.4538,-5.4395,-5.4389,-5.358,-5.2307,-5.1438,-5.0322,-4.9198,-4.8897,-4.8734,-4.842,-4.7109,-4.6126,-4.5485,-4.5485,-4.5169,-4.4654,-4.4598,-4.4598,-4.4496,-4.3859,-4.3487,-4.3189,-4.2083,-4.1424,-4.1119,-4.0536,-3.9859,-3.9174,-3.9005,-3.8319,-3.7185,-3.6948,-3.6502,-3.5735,-3.5769,-3.5802,-3.5802,-3.5802,-3.5769,-3.5701,-3.5718,-3.5667,-3.5616,-3.5616,-3.5616,-3.5616,-3.5616,-3.5616,-3.56,-3.56,-3.56,-3.56,-3.56,-3.5021,-3.3761,-3.3479,-3.2783,-3.1653,-3.1496,-3.1496,-3.1496,-3.1615,-3.1705,-3.175,-3.1735,-3.1795,-3.1705,-3.175,-3.1824,-3.1899,-3.2302,-3.2572,-3.2677,-3.3185,-3.3589,-3.3589,-3.3574,-3.3221,-3.3016,-3.2597,-3.2024,-3.0893,-3.0785,-3.0662,-3.0161,-3.0018,-3.0055,-3.0093,-3.0344,-3.0444,-3.0168,-2.9942,-3.008,-3.003,-2.9942,-2.993,-2.9917,-2.9892,-2.9779,-2.9779,-2.9779,-2.9779,-2.9779,-2.9779,-2.9779,-2.9779,-2.9779,-2.9779,-2.9779,-2.9779,-2.9917,-5.3501,-5.2905,-5.4028,-5.4453,-5.4309,-5.3421,-5.244,-5.1378,-5.0193,-4.9114,-4.8083,-4.7183,-4.6758,-4.6691,-4.5761,-4.5196,-4.4971,-4.4988,-4.4841,-4.4598,-4.4598,-4.4361,-4.3876,-4.3589,-4.297,-4.2108,-4.1474,-4.0967,-4.057,-4.0248,-3.9723,-3.9005,-3.8582,-3.7821,-3.6829,-3.6315,-3.5943,-3.5616,-3.5616,-3.5616,-3.5616,-3.5616,-3.5616,-3.5616,-3.5616,-3.5616,-3.5616,-3.5616,-3.5616,-3.5616,-3.5616,-3.5616,-3.56,-3.5177,-3.5165,-3.5509,-3.523,-3.4759,-3.4219,-3.3469,-3.2761,-3.2176,-3.1739,-3.1496,-3.1496,-3.1496,-3.1496,-3.1496,-3.1496,-3.1496,-3.1496,-3.1496,-3.1496,-3.154,-3.175,-3.1914,-3.1914,-3.2482,-3.2916,-3.2931,-3.3161,-3.3103,-3.2475,-3.1446,-3.0388,-2.9574,-2.938,-2.9349,-2.9227,-2.9277,-2.944,-2.9741,-3.0005,-3.003,-2.9829,-2.9779,-2.9779,-2.9779,-2.9779,-2.9779,-2.9767,-2.9779,-2.9779,-2.9779,-2.9741,-2.9741,-2.9779,-2.9779,-2.9779,-2.9754,-2.9779,-2.9779,-2.9779,-2.9779,-2.9779,-5.2841,-5.2495,-5.3246,-5.3659,-5.3634,-5.2154,-5.1209,-5.0539,-4.8948,-4.7824,-4.707,-4.5805,-4.5258,-4.5178,-4.4786,-4.4598,-4.4598,-4.4598,-4.4598,-4.4564,-4.4367,-4.3978,-4.3392,-4.2936,-4.2252,-4.1322,-4.0984,-4.0595,-4.0113,-3.9876,-3.9411,-3.87,-3.7956,-3.7212,-3.6502,-3.5853,-3.5616,-3.5616,-3.5616,-3.5616,-3.5616,-3.5616,-3.5616,-3.5616,-3.5616,-3.5616,-3.5616,-3.5616,-3.5616,-3.5616,-3.5616,-3.5498,-3.5301,-3.4776,-3.4742,-3.5188,-3.4843,-3.4473,-3.4325,-3.3417,-3.2707,-3.2299,-3.1796,-3.1496,-3.1496,-3.1496,-3.1496,-3.1496,-3.1496,-3.1496,-3.1496,-3.1496,-3.1496,-3.1496,-3.1496,-3.1496,-3.1555,-3.1974,-3.2243,-3.2273,-3.2494,-3.2581,-3.1695,-3.0433,-2.9297,-2.8787,-2.8353,-2.821,-2.8586,-2.8725,-2.8863,-2.9264,-2.9315,-2.9478,-2.9691,-2.9779,-2.9767,-2.9628,-2.9603,-2.9729,-2.9666,-2.9641,-2.9779,-2.9779,-2.9679,-2.9515,-2.939,-2.944,-2.9428,-2.9515,-2.9541,-2.9515,-2.9478,-2.9453,-2.9402,-5.2334,-5.2211,-5.1623,-5.1749,-5.2089,-5.0713,-5.0047,-4.9738,-4.7736,-4.6439,-4.579,-4.5032,-4.4654,-4.4665,-4.4626,-4.4598,-4.4598,-4.4598,-4.4598,-4.453,-4.3859,-4.3426,-4.3291,-4.1999,-4.1271,-4.1068,-4.0527,-4.0163,-4.0011,-3.9419,-3.8667,-3.7956,-3.7269,-3.6468,-3.5819,-3.565,-3.5616,-3.5616,-3.5616,-3.5616,-3.5616,-3.5616,-3.5616,-3.5616,-3.5616,-3.5616,-3.5616,-3.5616,-3.56,-3.56,-3.5549,-3.5267,-3.4624,-3.4489,-3.4472,-3.4523,-3.4513,-3.4243,-3.3799,-3.3531,-3.2944,-3.1866,-3.1582,-3.1496,-3.1496,-3.1496,-3.1496,-3.1496,-3.1496,-3.1496,-3.1496,-3.1496,-3.1496,-3.1496,-3.1496,-3.1496,-3.1496,-3.157,-3.154,-3.1544,-3.1482,-3.1203,-3.0699,-2.9925,-2.9298,-2.8924,-2.8515,-2.8072,-2.8109,-2.8147,-2.821,-2.8285,-2.8386,-2.8561,-2.949,-2.9515,-2.9352,-2.9202,-2.9214,-2.9528,-2.9415,-2.9352,-2.9553,-2.9603,-2.9227,-2.8976,-2.8838,-2.875,-2.8699,-2.875,-2.8938,-2.8976,-2.8988,-2.8511,-2.8511,-5.203,-5.1524,-5.0754,-5.0564,-5.0638,-4.9706,-4.8749,-4.7797,-4.6625,-4.5648,-4.5032,-4.4716,-4.4598,-4.4598,-4.4598,-4.4598,-4.4598,-4.4598,-4.4598,-4.4513,-4.3775,-4.3166,-4.2608,-4.1644,-4.0916,-4.0493,-4.0231,-3.9859,-3.9394,-3.9106,-3.8362,-3.733,-3.6965,-3.64,-3.5735,-3.5616,-3.5616,-3.5616,-3.5616,-3.5616,-3.5616,-3.5616,-3.5616,-3.5616,-3.5616,-3.5616,-3.5616,-3.5616,-3.538,-3.4928,-3.4895,-3.4573,-3.3897,-3.3795,-3.3795,-3.3786,-3.3851,-3.3968,-3.4105,-3.3427,-3.2761,-3.2272,-3.1754,-3.1496,-3.1496,-3.1496,-3.1496,-3.1496,-3.1496,-3.1496,-3.1496,-3.1496,-3.1496,-3.1496,-3.1496,-3.1496,-3.1496,-3.1496,-3.1496,-3.1409,-3.0981,-3.0347,-2.9721,-2.8845,-2.8132,-2.7644,-2.7253,-2.7266,-2.7507,-2.7582,-2.7682,-2.8009,-2.8122,-2.8235,-2.8549,-2.8699,-2.8624,-2.8549,-2.8561,-2.8612,-2.8561,-2.8612,-2.8775,-2.8837,-2.8549,-2.8373,-2.8273,-2.8298,-2.8172,-2.8235,-2.8398,-2.8411,-2.8411,-2.8034,-2.8084,-5.1145,-5.0407,-4.9658,-4.9476,-4.9486,-4.8387,-4.7427,-4.6593,-4.5749,-4.5043,-4.4666,-4.4598,-4.4598,-4.4598,-4.4598,-4.4598,-4.4598,-4.4598,-4.4598,-4.4496,-4.3521,-4.2794,-4.2202,-4.1288,-4.0603,-4.013,-3.9842,-3.9462,-3.8971,-3.8514,-3.7777,-3.688,-3.6575,-3.6146,-3.5667,-3.5616,-3.5616,-3.5616,-3.5616,-3.5616,-3.5616,-3.5616,-3.5616,-3.5616,-3.5616,-3.5616,-3.5583,-3.5363,-3.5047,-3.4539,-3.4286,-3.3812,-3.3136,-3.2831,-3.2714,-3.276,-3.3,-3.327,-3.3517,-3.2966,-3.252,-3.2244,-3.1809,-3.1496,-3.1496,-3.1496,-3.1496,-3.1496,-3.1496,-3.1496,-3.1496,-3.1496,-3.1496,-3.1496,-3.1496,-3.1496,-3.1496,-3.1496,-3.1496,-3.138,-3.0792,-3.0086,-2.9411,-2.8422,-2.7656,-2.6939,-2.6679,-2.6675,-2.6952,-2.7065,-2.7118,-2.7482,-2.7507,-2.7482,-2.7582,-2.7595,-2.7833,-2.7821,-2.8072,-2.8021,-2.7883,-2.7934,-2.7996,-2.8021,-2.7934,-2.7783,-2.772,-2.777,-2.7808,-2.7833,-2.7846,-2.7846,-2.777,-2.7645,-2.767,-4.9709,-4.8995,-4.8223,-4.8304,-4.8415,-4.6794,-4.615,-4.6278,-4.5192,-4.4666,-4.4598,-4.4598,-4.4598,-4.4598,-4.4598,-4.4598,-4.4598,-4.4598,-4.4547,-4.4378,-4.3031,-4.2337,-4.21,-4.084,-4.0214,-4.0079,-3.9394,-3.9039,-3.8836,-3.7743,-3.6998,-3.6677,-3.6045,-3.5701,-3.5616,-3.5616,-3.5616,-3.5616,-3.5616,-3.5616,-3.5616,-3.5616,-3.5616,-3.56,-3.5549,-3.5498,-3.5515,-3.4912,-3.451,-3.4307,-3.3728,-3.3051,-3.2344,-3.1732,-3.1342,-3.1603,-3.2066,-3.2087,-3.1878,-3.221,-3.2081,-3.1768,-3.1524,-3.1496,-3.1496,-3.1496,-3.1496,-3.1496,-3.1496,-3.1496,-3.1496,-3.1496,-3.1496,-3.1496,-3.1496,-3.1496,-3.1496,-3.1496,-3.1496,-3.1365,-3.0703,-3.0299,-2.9889,-2.862,-2.7517,-2.7284,-2.6905,-2.6512,-2.66,-2.6637,-2.6562,-2.6587,-2.6763,-2.6914,-2.6713,-2.6549,-2.6889,-2.7168,-2.7557,-2.772,-2.7469,-2.7419,-2.7544,-2.757,-2.7381,-2.7231,-2.7067,-2.713,-2.7243,-2.7281,-2.7281,-2.7293,-2.7241,-2.7165,-2.7102,-4.8917,-4.8257,-4.799,-4.7395,-4.6692,-4.5959,-4.5569,-4.522,-4.4749,-4.4598,-4.4598,-4.4598,-4.4598,-4.4598,-4.4598,-4.4598,-4.4598,-4.4581,-4.4299,-4.3673,-4.2743,-4.2016,-4.1441,-4.057,-4.0113,-4.0079,-3.9851,-3.9191,-3.8328,-3.7753,-3.7077,-3.6113,-3.5735,-3.5616,-3.5616,-3.5616,-3.5616,-3.5616,-3.5616,-3.5616,-3.5616,-3.5616,-3.56,-3.5549,-3.5092,-3.4827,-3.4827,-3.4607,-3.402,-3.3089,-3.2767,-3.231,-3.1647,-3.1326,-3.1288,-3.1368,-3.1121,-3.1286,-3.1524,-3.135,-3.1313,-3.1419,-3.1496,-3.1496,-3.1496,-3.1496,-3.1496,-3.1496,-3.1496,-3.1496,-3.1496,-3.1496,-3.1496,-3.1496,-3.1496,-3.1496,-3.1496,-3.1496,-3.1496,-3.1351,-3.0269,-2.9518,-2.9129,-2.792,-2.6994,-2.6939,-2.6658,-2.6487,-2.6487,-2.6487,-2.6487,-2.6487,-2.6487,-2.6487,-2.6487,-2.6487,-2.665,-2.6826,-2.7102,-2.7329,-2.7102,-2.7002,-2.7128,-2.7128,-2.6939,-2.6788,-2.6625,-2.6625,-2.6813,-2.6813,-2.6826,-2.6801,-2.6751,-2.6738,-2.6751,-4.8342,-4.7838,-4.7327,-4.6583,-4.5686,-4.5432,-4.5026,-4.4632,-4.4598,-4.4598,-4.4598,-4.4598,-4.4598,-4.4598,-4.4598,-4.4598,-4.4553,-4.4327,-4.3724,-4.3047,-4.2557,-4.1897,-4.1187,-4.0443,-4.0113,-4.0028,-3.9825,-3.9073,-3.7939,-3.7584,-3.6857,-3.5785,-3.5616,-3.5616,-3.5616,-3.5616,-3.5616,-3.5616,-3.5616,-3.5616,-3.5616,-3.5616,-3.5464,-3.5182,-3.4726,-3.424,-3.3783,-3.3681,-3.3258,-3.2371,-3.1857,-3.1314,-3.0892,-3.0675,-3.0486,-3.0283,-3.021,-3.0219,-3.0462,-3.0483,-3.0657,-3.1062,-3.1346,-3.1496,-3.1496,-3.1496,-3.1496,-3.1496,-3.1496,-3.1496,-3.1496,-3.1496,-3.1496,-3.1496,-3.1496,-3.1496,-3.1496,-3.1496,-3.1307,-3.0911,-2.9858,-2.902,-2.8298,-2.7484,-2.6521,-2.6487,-2.6487,-2.6487,-2.6487,-2.6487,-2.6487,-2.6487,-2.6487,-2.6487,-2.6487,-2.6487,-2.6487,-2.6537,-2.6612,-2.6725,-2.6675,-2.6663,-2.6738,-2.6763,-2.6637,-2.665,-2.6512,-2.6512,-2.66,-2.6499,-2.6487,-2.6537,-2.66,-2.6575,-2.6471,-4.7872,-4.7635,-4.6329,-4.5737,-4.5517,-4.4936,-4.4649,-4.4615,-4.4598,-4.4598,-4.4598,-4.4598,-4.4598,-4.4598,-4.4598,-4.4598,-4.4479,-4.3826,-4.3132,-4.2523,-4.2168,-4.1728,-4.0984,-4.0383,-4.0113,-3.9994,-3.952,-3.8734,-3.7905,-3.7347,-3.6417,-3.5701,-3.5616,-3.5616,-3.5616,-3.5616,-3.5616,-3.5616,-3.5616,-3.5616,-3.5616,-3.5616,-3.5329,-3.4709,-3.4455,-3.3812,-3.2903,-3.2414,-3.2212,-3.2002,-3.1004,-3.0438,-3.0182,-2.9695,-2.928,-2.8842,-2.9155,-2.9219,-2.9117,-2.9828,-3.0507,-3.0776,-3.1227,-3.1496,-3.1496,-3.1496,-3.1496,-3.1496,-3.1496,-3.1496,-3.1496,-3.1496,-3.1496,-3.1496,-3.1496,-3.1496,-3.1496,-3.1496,-3.119,-3.0464,-2.9535,-2.8671,-2.792,-2.7027,-2.6611,-2.6487,-2.6487,-2.6487,-2.6487,-2.6487,-2.6487,-2.6487,-2.6487,-2.6487,-2.6487,-2.6487,-2.6487,-2.6487,-2.6487,-2.6487,-2.6487,-2.6487,-2.6487,-2.6487,-2.6487,-2.6487,-2.6487,-2.6487,-2.6487,-2.6487,-2.6487,-2.6487,-2.6418,-2.6349,-2.5943,-4.7597,-4.6989,-4.6092,-4.5382,-4.4908,-4.4666,-4.4598,-4.4598,-4.4598,-4.4598,-4.4598,-4.4598,-4.4598,-4.4598,-4.4598,-4.4598,-4.435,-4.3741,-4.3014,-4.2286,-4.1694,-4.1085,-4.0493,-4.0231,-4.0113,-4.0062,-3.9791,-3.9123,-3.799,-3.7618,-3.6857,-3.565,-3.5616,-3.5616,-3.5616,-3.5616,-3.5616,-3.5616,-3.5616,-3.56,-3.5566,-3.5566,-3.5532,-3.5261,-3.4252,-3.3541,-3.2942,-3.1596,-3.0821,-3.0821,-3.0546,-3.0064,-2.9673,-2.9429,-2.9058,-2.8629,-2.8625,-2.8949,-2.9301,-2.9621,-3.0223,-3.1137,-3.1271,-3.1496,-3.1496,-3.1496,-3.1496,-3.1496,-3.1496,-3.1496,-3.1496,-3.1496,-3.1496,-3.1496,-3.1496,-3.1496,-3.1496,-3.1467,-3.1175,-3.0404,-2.9535,-2.8671,-2.7822,-2.7027,-2.6521,-2.6487,-2.6487,-2.6487,-2.6487,-2.6487,-2.6487,-2.6487,-2.6487,-2.6487,-2.6487,-2.6487,-2.6487,-2.6487,-2.6487,-2.6487,-2.6487,-2.6487,-2.6487,-2.6487,-2.6487,-2.6487,-2.6487,-2.6487,-2.6487,-2.6487,-2.6349,-2.6233,-2.6129,-2.599,-2.5394,-4.7005,-4.6278,-4.5551,-4.5021,-4.4615,-4.4598,-4.4598,-4.4598,-4.4598,-4.4598,-4.4598,-4.4598,-4.4598,-4.4598,-4.4598,-4.4367,-4.4028,-4.3301,-4.2523,-4.1796,-4.1052,-4.0536,-4.018,-4.0113,-4.0113,-4.0045,-3.9774,-3.8971,-3.8007,-3.7618,-3.6755,-3.5819,-3.5616,-3.5616,-3.5616,-3.5616,-3.5616,-3.5616,-3.56,-3.5481,-3.5182,-3.5148,-3.4675,-3.4303,-3.3305,-3.2769,-3.2005,-3.0678,-3.0021,-3.0123,-2.9827,-2.9361,-2.9042,-2.874,-2.8496,-2.8116,-2.8116,-2.8313,-2.8692,-2.9007,-2.9639,-3.0507,-3.0868,-3.1212,-3.1406,-3.1496,-3.1496,-3.1496,-3.1496,-3.1496,-3.1496,-3.1496,-3.1496,-3.1496,-3.1496,-3.1496,-3.1496,-3.1496,-3.1117,-3.0389,-2.9535,-2.8652,-2.7789,-2.7007,-2.6624,-2.6487,-2.6487,-2.6487,-2.6487,-2.6487,-2.6487,-2.6487,-2.6487,-2.6487,-2.6487,-2.6487,-2.6487,-2.6487,-2.6487,-2.6487,-2.6487,-2.6487,-2.6487,-2.6487,-2.6487,-2.6487,-2.6487,-2.6487,-2.6487,-2.6418,-2.6198,-2.5873,-2.5699,-2.5111,-2.4516,-4.638,-4.5652,-4.4891,-4.4598,-4.4598,-4.4598,-4.4598,-4.4598,-4.4598,-4.4598,-4.4598,-4.4598,-4.4598,-4.4598,-4.4384,-4.4062,-4.3392,-4.2608,-4.1779,-4.1085,-4.0519,-4.013,-4.013,-4.0113,-4.0113,-3.9994,-3.9326,-3.865,-3.7922,-3.7212,-3.6417,-3.5808,-3.5616,-3.5616,-3.5616,-3.5616,-3.5616,-3.5616,-3.5616,-3.5267,-3.4776,-3.459,-3.4083,-3.3085,-3.2483,-3.1692,-3.0693,-2.9755,-2.9518,-3.0059,-2.9058,-2.8591,-2.8415,-2.787,-2.7685,-2.772,-2.7821,-2.789,-2.7929,-2.8652,-2.916,-2.9894,-3.0447,-3.0808,-3.1361,-3.1496,-3.1496,-3.1496,-3.1496,-3.1496,-3.1496,-3.1496,-3.1496,-3.1496,-3.1496,-3.1496,-3.1467,-3.1438,-3.1058,-3.0269,-2.938,-2.8524,-2.7703,-2.6994,-2.6487,-2.6487,-2.6487,-2.6487,-2.6487,-2.6487,-2.6487,-2.6487,-2.6487,-2.6487,-2.6487,-2.6487,-2.6487,-2.6487,-2.6487,-2.6487,-2.6487,-2.6487,-2.6487,-2.6487,-2.6487,-2.6487,-2.6487,-2.6487,-2.6487,-2.6233,-2.5943,-2.5476,-2.4969,-2.4036,-2.3331,-4.638,-4.5635,-4.4908,-4.4598,-4.4598,-4.4598,-4.4598,-4.4598,-4.4598,-4.4598,-4.4598,-4.4598,-4.4581,-4.4519,-4.3978,-4.3555,-4.3122,-4.2033,-4.1035,-4.0383,-4.0231,-4.0113,-4.0113,-4.0113,-4.0096,-3.9893,-3.9309,-3.8599,-3.7855,-3.706,-3.6383,-3.5701,-3.5616,-3.5616,-3.5616,-3.5616,-3.5616,-3.5616,-3.5616,-3.5216,-3.4573,-3.4404,-3.3947,-3.2959,-3.2047,-3.1172,-3.0292,-2.9248,-2.8779,-2.8779,-2.8614,-2.8247,-2.7894,-2.773,-2.763,-2.769,-2.8079,-2.8323,-2.8532,-2.922,-3.0103,-3.0193,-3.0731,-3.1346,-3.1436,-3.1496,-3.1496,-3.1496,-3.1496,-3.1496,-3.1496,-3.1496,-3.1496,-3.1496,-3.1496,-3.1496,-3.1409,-3.0955,-3.0299,-2.9504,-2.862,-2.7716,-2.6952,-2.6782,-2.6521,-2.6487,-2.6487,-2.6487,-2.6487,-2.6487,-2.6487,-2.6487,-2.6487,-2.6487,-2.6487,-2.6487,-2.6487,-2.6487,-2.6487,-2.6487,-2.6487,-2.6487,-2.6487,-2.6487,-2.6487,-2.6487,-2.6487,-2.6487,-2.6452,-2.6094,-2.5616,-2.4957,-2.4217,-2.3147,-2.2339,-4.5838,-4.5145,-4.4767,-4.4598,-4.4598,-4.4598,-4.4598,-4.4598,-4.4598,-4.4598,-4.4598,-4.4598,-4.4384,-4.4028,-4.3589,-4.3088,-4.2236,-4.1238,-4.0502,-4.0163,-4.0113,-4.0113,-4.0113,-4.0045,-3.996,-3.9554,-3.8819,-3.8108,-3.7364,-3.6654,-3.5994,-3.565,-3.5616,-3.5616,-3.5616,-3.5616,-3.5616,-3.5616,-3.5583,-3.5092,-3.4167,-3.3964,-3.3389,-3.2358,-3.1175,-3.0233,-2.9832,-2.8701,-2.8174,-2.8067,-2.8082,-2.7959,-2.7775,-2.7884,-2.7914,-2.772,-2.7884,-2.8139,-2.8408,-2.8996,-2.9669,-3.0088,-3.0687,-3.1137,-3.1391,-3.1496,-3.1496,-3.1496,-3.1496,-3.1496,-3.1496,-3.1496,-3.1496,-3.1496,-3.1496,-3.1496,-3.1365,-3.0777,-3.0178,-2.9442,-2.857,-2.7802,-2.7162,-2.6714,-2.6521,-2.6487,-2.6487,-2.6487,-2.6487,-2.6487,-2.6487,-2.6487,-2.6487,-2.6487,-2.6487,-2.6487,-2.6487,-2.6487,-2.6487,-2.6487,-2.6487,-2.6487,-2.6487,-2.6487,-2.6487,-2.6487,-2.6487,-2.6452,-2.6198,-2.5581,-2.4957,-2.4337,-2.3404,-2.2226,-2.1555,-4.5263,-4.4598,-4.4598,-4.4598,-4.4598,-4.4598,-4.4598,-4.4598,-4.4598,-4.4598,-4.4598,-4.4598,-4.4198,-4.3511,-4.324,-4.2361,-4.1221,-4.0544,-4.0146,-4.013,-4.0113,-4.0113,-4.0079,-3.9893,-3.9445,-3.8819,-3.8278,-3.7584,-3.684,-3.6045,-3.5718,-3.5616,-3.5616,-3.5616,-3.5616,-3.5616,-3.5616,-3.5616,-3.5583,-3.489,-3.3681,-3.3334,-3.2517,-3.1029,-3.0011,-2.9373,-2.9129,-2.8418,-2.7845,-2.775,-2.7929,-2.7974,-2.8019,-2.8188,-2.8382,-2.7809,-2.8034,-2.8019,-2.8004,-2.8558,-2.9325,-2.9654,-3.0328,-3.0883,-3.1361,-3.1496,-3.1496,-3.1496,-3.1496,-3.1496,-3.1496,-3.1496,-3.1496,-3.1467,-3.1409,-3.1322,-3.1146,-3.0539,-2.9782,-2.9766,-2.8588,-2.7637,-2.7196,-2.6769,-2.6611,-2.6487,-2.6487,-2.6487,-2.6487,-2.6487,-2.6487,-2.6487,-2.6487,-2.6487,-2.6487,-2.6487,-2.6487,-2.6512,-2.6499,-2.6537,-2.6524,-2.6487,-2.6487,-2.6487,-2.6487,-2.6499,-2.6499,-2.6487,-2.6013,-2.5111,-2.4337,-2.3734,-2.2627,-2.1298,-2.0964,-4.5263,-4.4598,-4.4598,-4.4598,-4.4598,-4.4598,-4.4598,-4.4598,-4.4598,-4.4598,-4.4598,-4.4581,-4.4147,-4.342,-4.2709,-4.1677,-4.0578,-4.0163,-4.0113,-4.0113,-4.0113,-4.0113,-4.0028,-3.9554,-3.8886,-3.8244,-3.779,-3.7327,-3.6641,-3.6045,-3.5588,-3.56,-3.56,-3.56,-3.5616,-3.5616,-3.5616,-3.5566,-3.5498,-3.4721,-3.3578,-3.2612,-3.1677,-3.0,-2.9134,-2.8779,-2.8722,-2.8566,-2.8427,-2.8532,-2.9445,-2.9579,-2.922,-2.8876,-2.8577,-2.8457,-2.8648,-2.8438,-2.8034,-2.9146,-2.9729,-2.9983,-3.0627,-3.1227,-3.1466,-3.1496,-3.1496,-3.1496,-3.1496,-3.1496,-3.1496,-3.1496,-3.1496,-3.1365,-3.1058,-3.0644,-3.0315,-2.9597,-2.8812,-2.9034,-2.8233,-2.7471,-2.7027,-2.6748,-2.6611,-2.6487,-2.6487,-2.6487,-2.6487,-2.6487,-2.6487,-2.6487,-2.6487,-2.6487,-2.6487,-2.6487,-2.6487,-2.6524,-2.6562,-2.6637,-2.6612,-2.6512,-2.6499,-2.665,-2.66,-2.6537,-2.6524,-2.6502,-2.5756,-2.4814,-2.4,-2.3147,-2.2075,-2.1059,-2.0967,-4.4908,-4.4598,-4.4598,-4.4598,-4.4598,-4.4598,-4.4598,-4.4598,-4.4598,-4.4598,-4.4598,-4.4547,-4.391,-4.2997,-4.2506,-4.1457,-4.0417,-4.0113,-4.0113,-4.0113,-4.0113,-4.0113,-4.0011,-3.9326,-3.8616,-3.786,-3.7179,-3.6449,-3.5746,-3.5655,-3.5402,-3.523,-3.5385,-3.56,-3.5616,-3.5616,-3.56,-3.5549,-3.5188,-3.4364,-3.2889,-3.1747,-3.0277,-2.9562,-2.8826,-2.855,-2.8506,-2.8576,-2.8577,-2.8757,-2.949,-2.9939,-2.9894,-2.9475,-2.8951,-2.8712,-2.8648,-2.8573,-2.8304,-2.937,-2.9921,-3.0193,-3.0972,-3.1436,-3.1496,-3.1496,-3.1496,-3.1496,-3.1496,-3.1496,-3.1496,-3.1496,-3.1496,-3.1438,-3.1073,-3.0673,-3.0224,-2.9473,-2.8907,-2.8427,-2.7604,-2.704,-2.6748,-2.6555,-2.6521,-2.6487,-2.6487,-2.6487,-2.6487,-2.6487,-2.6487,-2.6487,-2.6487,-2.6487,-2.6487,-2.6487,-2.6587,-2.6637,-2.6725,-2.6813,-2.6989,-2.704,-2.7002,-2.6992,-2.6901,-2.6477,-2.6457,-2.6379,-2.5432,-2.4445,-2.3404,-2.244,-2.1603,-2.0994,-2.0918,-4.4598,-4.4598,-4.4598,-4.4598,-4.4598,-4.4598,-4.4598,-4.4598,-4.4598,-4.4598,-4.4581,-4.4361,-4.3555,-4.2489,-4.1856,-4.1145,-4.0113,-4.0113,-4.0113,-4.0113,-4.0113,-4.0113,-3.9893,-3.9191,-3.8413,-3.7783,-3.647,-3.5331,-3.4975,-3.5115,-3.5028,-3.5005,-3.5293,-3.5616,-3.5616,-3.5385,-3.5447,-3.5177,-3.4672,-3.3626,-3.2007,-3.0305,-2.9134,-2.9067,-2.8683,-2.8532,-2.8532,-2.8984,-2.9112,-2.9295,-2.9744,-3.0253,-3.0507,-2.9998,-2.9367,-2.8801,-2.8169,-2.8188,-2.8562,-2.9205,-2.9894,-3.0357,-3.1077,-3.1406,-3.1496,-3.1496,-3.1496,-3.1496,-3.1496,-3.1496,-3.1496,-3.1496,-3.1496,-3.1365,-3.1131,-3.0777,-3.0299,-2.9611,-2.8698,-2.7986,-2.7142,-2.6714,-2.6589,-2.6487,-2.6487,-2.6487,-2.6487,-2.6487,-2.6487,-2.6487,-2.6487,-2.6487,-2.6487,-2.6487,-2.6487,-2.6487,-2.665,-2.6864,-2.7027,-2.7178,-2.7431,-2.7695,-2.7573,-2.7341,-2.6581,-2.6219,-2.6257,-2.5899,-2.4837,-2.3734,-2.2654,-2.1811,-2.1155,-2.0867,-2.0791,-4.4598,-4.4598,-4.4598,-4.4598,-4.4598,-4.4598,-4.4598,-4.4598,-4.4598,-4.4598,-4.4434,-4.3859,-4.3132,-4.2151,-4.0942,-4.035,-4.0146,-4.0113,-4.0113,-4.0113,-4.0113,-4.0113,-3.9876,-3.8616,-3.8193,-3.758,-3.6289,-3.5322,-3.4823,-3.4783,-3.4776,-3.4776,-3.5207,-3.5577,-3.5407,-3.5075,-3.4736,-3.4607,-3.4015,-3.2718,-3.0966,-2.9396,-2.8475,-2.8216,-2.8324,-2.8634,-2.8826,-2.9484,-3.0043,-3.0208,-3.0823,-3.1256,-3.1197,-3.0208,-2.9711,-2.9295,-2.8921,-2.8517,-2.8742,-2.9325,-2.9968,-3.0597,-3.1152,-3.1421,-3.1496,-3.1496,-3.1496,-3.1496,-3.1496,-3.1496,-3.1496,-3.1496,-3.1496,-3.1058,-3.0524,-3.0238,-2.9889,-2.9129,-2.8279,-2.7835,-2.704,-2.6782,-2.6611,-2.6555,-2.6487,-2.6487,-2.6487,-2.6487,-2.6487,-2.6487,-2.6487,-2.6487,-2.6637,-2.6663,-2.6713,-2.6675,-2.6876,-2.7115,-2.7406,-2.762,-2.7946,-2.8186,-2.7891,-2.752,-2.6773,-2.5949,-2.5575,-2.5021,-2.4041,-2.3227,-2.2422,-2.1627,-2.0828,-2.0722,-2.0899,-4.4598,-4.4598,-4.4598,-4.4598,-4.4598,-4.4598,-4.4598,-4.4598,-4.4598,-4.4361,-4.3944,-4.3606,-4.2767,-4.161,-4.051,-4.013,-4.0113,-4.0113,-4.0113,-4.0113,-4.0113,-4.0113,-3.9757,-3.8684,-3.7915,-3.7381,-3.6102,-3.4987,-3.4712,-3.4894,-3.5028,-3.4688,-3.5184,-3.5362,-3.5035,-3.4736,-3.4382,-3.3785,-3.2672,-3.1297,-2.9993,-2.8771,-2.8082,-2.8169,-2.8498,-2.8801,-2.9295,-2.9953,-3.0477,-3.0627,-3.1137,-3.1481,-3.1316,-3.0657,-3.0011,-2.9547,-2.8951,-2.8801,-2.9175,-2.9744,-3.0313,-3.0896,-3.1316,-3.1481,-3.1496,-3.1496,-3.1496,-3.1496,-3.1496,-3.1496,-3.1496,-3.1496,-3.1496,-3.1117,-3.0329,-2.9858,-2.9442,-2.8427,-2.7703,-2.7351,-2.7027,-2.6837,-2.6645,-2.6555,-2.6487,-2.6487,-2.6487,-2.6487,-2.6487,-2.6487,-2.6487,-2.6487,-2.67,-2.6901,-2.6977,-2.7027,-2.7231,-2.7532,-2.8122,-2.8335,-2.8561,-2.8587,-2.8397,-2.8309,-2.7977,-2.6917,-2.5424,-2.4326,-2.3563,-2.2928,-2.2335,-2.1729,-2.1193,-2.136,-2.1445,-4.4598,-4.4598,-4.4598,-4.4598,-4.4598,-4.4598,-4.4479,-4.4265,-4.4265,-4.3842,-4.3234,-4.2878,-4.2083,-4.1068,-4.0383,-4.0113,-4.0113,-4.0113,-4.0113,-4.0113,-4.0113,-4.0113,-3.9656,-3.87,-3.7793,-3.7564,-3.5632,-3.461,-3.4496,-3.4664,-3.464,-3.4382,-3.4657,-3.4728,-3.4431,-3.4037,-3.3633,-3.2903,-3.1543,-3.0525,-2.9745,-2.8802,-2.8591,-2.8742,-2.9041,-2.931,-2.9804,-3.0447,-3.0748,-3.0898,-3.1212,-3.1496,-3.1376,-3.0836,-3.0298,-2.9834,-2.9295,-2.9235,-2.9535,-2.9953,-3.0554,-3.1137,-3.1496,-3.1496,-3.1496,-3.1496,-3.1496,-3.1496,-3.1496,-3.1496,-3.1496,-3.1496,-3.1496,-3.1248,-3.0703,-3.0042,-2.9334,-2.8524,-2.7822,-2.7504,-2.7217,-2.6884,-2.6692,-2.6555,-2.6487,-2.6487,-2.6487,-2.6487,-2.6499,-2.6512,-2.665,-2.67,-2.6952,-2.7228,-2.7442,-2.7494,-2.7695,-2.7971,-2.8561,-2.8963,-2.9114,-2.915,-2.9045,-2.901,-2.8748,-2.7069,-2.5087,-2.41,-2.3129,-2.2571,-2.212,-2.2015,-2.1828,-2.1914,-2.1973,-4.4598,-4.4598,-4.4598,-4.4564,-4.4547,-4.4598,-4.4147,-4.3521,-4.3504,-4.3064,-4.2337,-4.1677,-4.1018,-4.0383,-4.0214,-4.0113,-4.0113,-4.0113,-4.0113,-4.0113,-4.0096,-4.0045,-3.9488,-3.8538,-3.7425,-3.6721,-3.5202,-3.4226,-3.3811,-3.3811,-3.3786,-3.371,-3.3978,-3.3827,-3.3521,-3.3145,-3.261,-3.1924,-3.0935,-3.0548,-3.019,-2.9678,-2.9397,-2.9564,-3.0013,-3.0402,-3.0477,-3.1002,-3.1301,-3.1301,-3.1421,-3.1496,-3.1376,-3.0866,-3.0417,-3.0043,-2.9696,-2.9654,-2.9924,-2.9729,-2.9926,-3.0883,-3.1496,-3.1496,-3.1496,-3.1496,-3.1496,-3.1496,-3.1496,-3.1496,-3.1496,-3.1496,-3.1496,-3.1278,-3.0837,-3.0178,-2.9504,-2.8939,-2.8279,-2.7789,-2.7351,-2.6871,-2.6692,-2.6521,-2.6487,-2.6487,-2.6487,-2.6487,-2.6549,-2.6612,-2.6876,-2.7052,-2.7256,-2.7557,-2.7921,-2.8134,-2.8373,-2.8524,-2.885,-2.9277,-2.9566,-2.9588,-2.9498,-2.8805,-2.8222,-2.649,-2.5148,-2.451,-2.3703,-2.2502,-2.1953,-2.2168,-2.2158,-2.2129,-2.2236,-4.4598,-4.4547,-4.4062,-4.3876,-4.3859,-4.3859,-4.342,-4.2811,-4.2726,-4.2303,-4.1576,-4.0849,-4.0358,-4.0163,-4.0113,-4.0113,-4.0113,-4.0113,-4.007,-4.0113,-4.007,-3.9808,-3.9108,-3.7992,-3.6826,-3.5942,-3.4716,-3.3937,-3.3633,-3.3198,-3.3013,-3.3066,-3.3287,-3.3277,-3.2949,-3.2382,-3.1853,-3.1474,-3.0898,-3.0522,-3.0372,-2.9968,-2.9759,-3.0178,-3.0283,-3.0761,-3.1062,-3.1331,-3.1466,-3.1481,-3.1466,-3.1421,-3.1301,-3.0761,-3.0357,-3.0058,-2.9756,-2.9831,-3.0073,-2.9894,-3.036,-3.1047,-3.1496,-3.1496,-3.1496,-3.1496,-3.1496,-3.1496,-3.1496,-3.1496,-3.1496,-3.1496,-3.1467,-3.1292,-3.0911,-3.0313,-2.958,-2.8939,-2.8117,-2.7384,-2.7027,-2.6679,-2.6589,-2.6487,-2.6487,-2.6487,-2.6487,-2.6524,-2.6637,-2.6876,-2.7203,-2.7555,-2.7783,-2.7959,-2.8323,-2.8674,-2.9038,-2.9139,-2.9189,-2.9478,-2.9741,-2.9754,-2.9496,-2.8721,-2.7989,-2.6857,-2.595,-2.5313,-2.4283,-2.2946,-2.2549,-2.2715,-2.2617,-2.2445,-2.263,-4.4462,-4.4181,-4.3612,-4.3403,-4.3386,-4.3139,-4.2658,-4.2049,-4.1965,-4.1559,-4.0832,-4.0333,-4.0113,-4.0113,-4.0113,-4.0113,-4.002,-3.9833,-3.974,-3.9584,-3.9358,-3.8987,-3.8099,-3.709,-3.5963,-3.5047,-3.4032,-3.3235,-3.2783,-3.2477,-3.2327,-3.2422,-3.268,-3.2544,-3.2299,-3.1824,-3.1496,-3.1361,-3.1107,-3.0806,-3.0746,-3.0492,-3.0342,-3.0776,-3.0866,-3.1031,-3.1331,-3.1466,-3.1316,-3.1212,-3.1107,-3.1032,-3.0808,-3.0522,-3.0133,-2.9906,-2.9741,-2.9756,-3.0178,-3.0552,-3.0898,-3.1092,-3.1436,-3.1466,-3.1496,-3.1496,-3.1496,-3.1496,-3.1496,-3.1496,-3.1496,-3.1496,-3.1496,-3.138,-3.1219,-3.0658,-2.9535,-2.8748,-2.7736,-2.6884,-2.6692,-2.6568,-2.6706,-2.6675,-2.6713,-2.6738,-2.6813,-2.6876,-2.6964,-2.7266,-2.7706,-2.8034,-2.8386,-2.8549,-2.8725,-2.9076,-2.939,-2.9428,-2.9515,-2.9603,-2.9779,-2.9779,-2.974,-2.9289,-2.8493,-2.7493,-2.6341,-2.5185,-2.4205,-2.3231,-2.3057,-2.2945,-2.3175,-2.3054,-2.3388,-4.4113,-4.3443,-4.3341,-4.3308,-4.3156,-4.2608,-4.1897,-4.1255,-4.1204,-4.0849,-4.0282,-4.0113,-4.0113,-4.007,-4.002,-3.9901,-3.9731,-3.9236,-3.8935,-3.8799,-3.8497,-3.7661,-3.6866,-3.605,-3.509,-3.3841,-3.297,-3.2284,-3.1724,-3.1768,-3.1668,-3.164,-3.1838,-3.1781,-3.1553,-3.1524,-3.1496,-3.1481,-3.1436,-3.1376,-3.1316,-3.1212,-3.1241,-3.1271,-3.1301,-3.1391,-3.1451,-3.1496,-3.1256,-3.0821,-3.0688,-3.0462,-2.9981,-2.9759,-2.9744,-3.0088,-2.9759,-3.0178,-3.1227,-3.1406,-3.1212,-3.0941,-3.1301,-3.1481,-3.1496,-3.1496,-3.1496,-3.1496,-3.1496,-3.1496,-3.1496,-3.1496,-3.1496,-3.1467,-3.1322,-3.0866,-2.9752,-2.8844,-2.7934,-2.7117,-2.6743,-2.6549,-2.6751,-2.6889,-2.6939,-2.7014,-2.7092,-2.7205,-2.7331,-2.7695,-2.8172,-2.8461,-2.8825,-2.9063,-2.9227,-2.9503,-2.9729,-2.9754,-2.9754,-2.9779,-2.9779,-2.9779,-2.9702,-2.9624,-2.87,-2.7452,-2.6088,-2.4787,-2.4178,-2.3681,-2.3222,-2.3149,-2.341,-2.3717,-2.3992,-4.3369,-4.2625,-4.2151,-4.1948,-4.1888,-4.1694,-4.1153,-4.0544,-4.0468,-4.0307,-4.0146,-4.0113,-4.0113,-3.9995,-3.9532,-3.9289,-3.9156,-3.8541,-3.8161,-3.8121,-3.7774,-3.7025,-3.6117,-3.518,-3.4226,-3.3081,-3.2201,-3.1838,-3.1553,-3.1496,-3.1496,-3.1496,-3.1496,-3.1496,-3.1496,-3.1496,-3.1496,-3.1496,-3.1481,-3.1481,-3.1496,-3.1496,-3.1466,-3.1466,-3.1466,-3.1391,-3.1406,-3.1376,-3.0972,-3.0447,-3.0328,-3.0043,-2.9502,-2.922,-2.9056,-2.9385,-2.9265,-3.0208,-3.1107,-3.1466,-3.1421,-3.1286,-3.1301,-3.1496,-3.1496,-3.1496,-3.1496,-3.1496,-3.1496,-3.1496,-3.1496,-3.1496,-3.1496,-3.1496,-3.1307,-3.0925,-3.0133,-2.9317,-2.8487,-2.7741,-2.7199,-2.7281,-2.7406,-2.7532,-2.757,-2.7657,-2.7821,-2.7795,-2.7871,-2.8273,-2.8712,-2.8888,-2.9176,-2.9478,-2.9729,-2.9767,-2.9779,-2.9767,-2.9767,-2.9779,-2.9779,-2.9779,-2.9779,-2.9702,-2.853,-2.7331,-2.6254,-2.5305,-2.4713,-2.4211,-2.3973,-2.3637,-2.3757,-2.4125,-2.4501,-4.2358,-4.188,-4.139,-4.1035,-4.0832,-4.0815,-4.051,-4.0079,-3.9825,-3.9662,-3.961,-3.9411,-3.9252,-3.9076,-3.8789,-3.8525,-3.8442,-3.7716,-3.7381,-3.7291,-3.6787,-3.5839,-3.4938,-3.4221,-3.3238,-3.2257,-3.1795,-3.1496,-3.1496,-3.1496,-3.1496,-3.1496,-3.1496,-3.1496,-3.1496,-3.1496,-3.1496,-3.1496,-3.1496,-3.1496,-3.1421,-3.1331,-3.1241,-3.1256,-3.1152,-3.0868,-3.1002,-3.0911,-3.0567,-3.0088,-2.9789,-2.9549,-2.8981,-2.8577,-2.8368,-2.8667,-2.9265,-3.0103,-3.0808,-3.1092,-3.1137,-3.1436,-3.1496,-3.1496,-3.1496,-3.1496,-3.1496,-3.1496,-3.1496,-3.1496,-3.1496,-3.1496,-3.1496,-3.1496,-3.1087,-3.0703,-2.9995,-2.9142,-2.8346,-2.7659,-2.7562,-2.7771,-2.8084,-2.8247,-2.8323,-2.8448,-2.8524,-2.8499,-2.8448,-2.8825,-2.9139,-2.9277,-2.9402,-2.9616,-2.9754,-2.9767,-2.9779,-2.9779,-2.9779,-2.9779,-2.9779,-2.9779,-2.9779,-2.965,-2.8609,-2.7614,-2.6707,-2.5922,-2.5546,-2.5252,-2.5062,-2.4681,-2.4307,-2.484,-2.5525,-4.1177,-4.1152,-4.117,-4.073,-4.0197,-4.0197,-4.0104,-3.9978,-3.9262,-3.8951,-3.8827,-3.8206,-3.8092,-3.7966,-3.7835,-3.7806,-3.769,-3.6994,-3.6644,-3.6184,-3.5507,-3.4468,-3.3668,-3.3021,-3.245,-3.1853,-3.1496,-3.1496,-3.1496,-3.1496,-3.1496,-3.1496,-3.1496,-3.1496,-3.1496,-3.1496,-3.1496,-3.1496,-3.1496,-3.1496,-3.1436,-3.0971,-3.1047,-3.1046,-3.0657,-3.0372,-3.0328,-3.0178,-2.952,-2.9041,-2.8727,-2.8278,-2.7899,-2.763,-2.8034,-2.8562,-2.9205,-2.9789,-3.0477,-3.0657,-3.1001,-3.1391,-3.1496,-3.1496,-3.1496,-3.1496,-3.1496,-3.1496,-3.1496,-3.1496,-3.1496,-3.1496,-3.1496,-3.119,-3.0777,-3.0162,-2.9407,-2.8624,-2.7822,-2.7434,-2.7551,-2.7844,-2.8423,-2.8662,-2.8913,-2.9026,-2.9101,-2.9114,-2.9114,-2.9277,-2.9528,-2.9578,-2.9679,-2.9716,-2.9779,-2.9779,-2.9779,-2.9779,-2.9779,-2.9779,-2.9779,-2.9779,-2.9779,-2.9495,-2.8727,-2.7896,-2.7197,-2.6842,-2.6637,-2.6389,-2.6378,-2.6016,-2.5683,-2.6532,-2.7186,-4.0411,-4.0409,-4.0417,-4.0299,-4.013,-4.0113,-3.9808,-3.9236,-3.8962,-3.8663,-3.8092,-3.7892,-3.7822,-3.7822,-3.7822,-3.744,-3.7084,-3.6614,-3.5907,-3.526,-3.4632,-3.377,-3.3095,-3.2557,-3.2049,-3.1705,-3.1496,-3.1496,-3.1496,-3.1496,-3.1496,-3.1496,-3.1496,-3.1496,-3.1496,-3.1496,-3.1496,-3.1496,-3.1496,-3.1496,-3.1301,-3.0806,-3.0987,-3.0971,-3.0103,-2.9924,-3.0163,-2.9774,-2.916,-2.8727,-2.8607,-2.8263,-2.7675,-2.7615,-2.7899,-2.8502,-2.8891,-2.9295,-3.0238,-3.0492,-3.0748,-3.1316,-3.1496,-3.1496,-3.1496,-3.1496,-3.1496,-3.1496,-3.1496,-3.1496,-3.1496,-3.1496,-3.1394,-3.1058,-3.0584,-2.9858,-2.9135,-2.8477,-2.7741,-2.7927,-2.8058,-2.8397,-2.8938,-2.9202,-2.9402,-2.9541,-2.9603,-2.9578,-2.9603,-2.9704,-2.9754,-2.9779,-2.9779,-2.9779,-2.9779,-2.9779,-2.9779,-2.9779,-2.9779,-2.9779,-2.9779,-2.9779,-2.9779,-2.9482,-2.8937,-2.8398,-2.7855,-2.7654,-2.7666,-2.7988,-2.7988,-2.7493,-2.725,-2.7815,-2.7936,-3.9072,-3.9601,-3.961,-3.9808,-4.007,-4.0096,-3.9636,-3.9005,-3.8924,-3.8624,-3.8234,-3.795,-3.7822,-3.7822,-3.7777,-3.7557,-3.7158,-3.6394,-3.5752,-3.5233,-3.4134,-3.329,-3.2662,-3.2243,-3.1854,-3.1585,-3.1496,-3.1496,-3.1496,-3.1496,-3.1496,-3.1496,-3.1496,-3.1496,-3.1496,-3.1496,-3.1496,-3.1496,-3.1496,-3.1496,-3.1182,-3.0703,-3.0793,-3.0987,-2.9909,-2.9624,-3.0148,-2.9579,-2.8783,-2.8502,-2.8457,-2.8064,-2.76,-2.7615,-2.766,-2.8128,-2.8203,-2.8891,-2.9774,-3.0088,-3.0657,-3.1212,-3.1496,-3.1496,-3.1496,-3.1496,-3.1496,-3.1496,-3.1496,-3.1496,-3.1496,-3.1467,-3.1248,-3.0984,-3.0329,-2.9628,-2.9008,-2.8445,-2.8408,-2.8602,-2.8853,-2.9151,-2.9453,-2.9679,-2.9779,-2.9729,-2.9716,-2.9704,-2.9704,-2.9741,-2.9767,-2.9779,-2.9779,-2.9779,-2.9779,-2.9779,-2.9779,-2.9779,-2.9779,-2.9779,-2.9779,-2.9779,-2.9779,-2.9573,-2.9287,-2.8897,-2.8609,-2.8727,-2.8819,-2.9055,-2.9106,-2.874,-2.8199,-2.8056,-2.7976,-3.7541,-3.8935,-3.8978,-3.9489,-4.0045,-4.0096,-3.9688,-3.8999,-3.896,-3.8831,-3.8619,-3.8076,-3.7758,-3.7626,-3.768,-3.7571,-3.703,-3.6287,-3.5754,-3.545,-3.3801,-3.2823,-3.2433,-3.1854,-3.1645,-3.154,-3.1496,-3.1496,-3.1496,-3.1496,-3.1496,-3.1496,-3.1496,-3.1496,-3.1496,-3.1496,-3.1496,-3.1496,-3.1496,-3.1481,-3.1182,-3.0642,-3.0163,-3.0838,-2.9759,-2.8618,-2.9445,-2.9056,-2.7929,-2.8083,-2.8049,-2.766,-2.7615,-2.76,-2.7645,-2.766,-2.775,-2.8543,-2.9325,-2.9744,-3.0462,-3.1032,-3.1496,-3.1496,-3.1496,-3.1496,-3.1496,-3.1496,-3.1496,-3.1496,-3.1496,-3.119,-3.0896,-3.0359,-2.9659,-2.9002,-2.8354,-2.8077,-2.8321,-2.8604,-2.9124,-2.9415,-2.9603,-2.9779,-2.9779,-2.9779,-2.9779,-2.9779,-2.9779,-2.9779,-2.9779,-2.9779,-2.9779,-2.9779,-2.9779,-2.9779,-2.9779,-2.9779,-2.9779,-2.9779,-2.9779,-2.9779,-2.9779,-2.9611,-2.9495,-2.9611,-2.9534,-2.9482,-2.9404,-2.9521,-2.9573,-2.9702,-2.9353,-2.8676,-2.8136,-3.7512,-3.8951,-3.9542,-3.9927,-4.007,-4.0113,-4.0003,-3.9757,-3.9219,-3.8616,-3.8125,-3.7869,-3.7527,-3.7235,-3.7644,-3.7454,-3.6428,-3.6329,-3.5765,-3.4948,-3.3609,-3.2817,-3.2499,-3.1846,-3.1553,-3.1496,-3.1496,-3.1496,-3.1496,-3.1496,-3.1496,-3.1496,-3.1496,-3.1496,-3.1496,-3.1496,-3.1496,-3.1496,-3.1496,-3.1451,-3.1241,-3.0898,-3.0642,-3.0821,-2.9968,-2.9232,-2.952,-2.8981,-2.8184,-2.7899,-2.7735,-2.76,-2.7585,-2.7585,-2.7585,-2.76,-2.766,-2.8438,-2.9187,-2.9741,-3.0357,-3.1032,-3.1496,-3.1496,-3.1496,-3.1496,-3.1496,-3.1496,-3.1438,-3.1438,-3.1307,-3.0866,-3.0374,-2.9673,-2.9016,-2.8344,-2.7729,-2.7958,-2.8171,-2.8712,-2.9252,-2.9541,-2.9729,-2.9779,-2.9779,-2.9779,-2.9779,-2.9779,-2.9779,-2.9779,-2.9779,-2.9779,-2.9779,-2.9779,-2.9779,-2.9779,-2.9779,-2.9779,-2.9779,-2.9779,-2.9779,-2.9779,-2.9779,-2.9779,-2.974,-2.9779,-2.9779,-2.974,-2.974,-2.9779,-2.9779,-2.9779,-2.9521,-2.8937,-2.8386,-3.7306,-3.8513,-3.9653,-4.0113,-4.0113,-4.0113,-3.9943,-3.9588,-3.9157,-3.8547,-3.7923,-3.781,-3.757,-3.7209,-3.7683,-3.7475,-3.6453,-3.6293,-3.5878,-3.5007,-3.3781,-3.2998,-3.2407,-3.1881,-3.1611,-3.1496,-3.1496,-3.1496,-3.1496,-3.1496,-3.1496,-3.1496,-3.1496,-3.1496,-3.1496,-3.1496,-3.1496,-3.1496,-3.1496,-3.1346,-3.1167,-3.0791,-3.0823,-3.0913,-3.0253,-2.9639,-2.9445,-2.9011,-2.8274,-2.7899,-2.7809,-2.7615,-2.7585,-2.7585,-2.7585,-2.7705,-2.7959,-2.8498,-2.9307,-2.9921,-3.0387,-3.1122,-3.1496,-3.1496,-3.1496,-3.1496,-3.1496,-3.1438,-3.0925,-3.0837,-3.0584,-3.0238,-2.9442,-2.8684,-2.832,-2.7881,-2.7717,-2.7865,-2.8247,-2.8762,-2.9289,-2.9654,-2.9779,-2.9779,-2.9779,-2.9779,-2.9779,-2.9779,-2.9779,-2.9779,-2.9779,-2.9779,-2.9779,-2.9779,-2.9779,-2.9779,-2.9779,-2.9779,-2.9779,-2.9779,-2.9779,-2.9779,-2.9779,-2.9779,-2.9779,-2.9779,-2.9779,-2.9779,-2.9779,-2.9779,-2.9779,-2.9779,-2.9482,-2.9236,-2.8806,-3.716,-3.8092,-3.9506,-4.0113,-4.0079,-3.9977,-3.9622,-3.9039,-3.8768,-3.8328,-3.7701,-3.7549,-3.7652,-3.7753,-3.777,-3.7662,-3.7232,-3.6211,-3.5727,-3.4969,-3.3615,-3.3009,-3.2444,-3.1894,-3.1625,-3.1496,-3.1496,-3.1496,-3.1496,-3.1496,-3.1496,-3.1496,-3.1496,-3.1496,-3.1496,-3.1496,-3.1496,-3.1496,-3.1406,-3.1092,-3.0778,-3.0477,-3.0748,-3.0434,-2.9894,-2.9415,-2.9385,-2.9041,-2.8218,-2.7959,-2.7854,-2.769,-2.7585,-2.7585,-2.7585,-2.769,-2.7944,-2.8648,-2.943,-2.9953,-3.0657,-3.1241,-3.1421,-3.1496,-3.1467,-3.1365,-3.1365,-3.1117,-3.0584,-3.0329,-3.0072,-2.9535,-2.8684,-2.7966,-2.7716,-2.7538,-2.7637,-2.7806,-2.8335,-2.885,-2.9276,-2.9704,-2.9779,-2.9779,-2.9779,-2.9779,-2.9779,-2.9779,-2.9779,-2.9779,-2.9779,-2.9779,-2.9779,-2.9779,-2.9779,-2.9779,-2.9779,-2.9779,-2.9779,-2.9779,-2.9779,-2.9779,-2.9779,-2.9779,-2.9779,-2.9779,-2.9779,-2.9779,-2.9779,-2.9779,-2.9779,-2.9779,-2.974,-2.9482,-2.9236,-3.7424,-3.8772,-3.9714,-4.0079,-3.9994,-3.9462,-3.9106,-3.8802,-3.7726,-3.7117,-3.6891,-3.6366,-3.6332,-3.6998,-3.7015,-3.6823,-3.6331,-3.5679,-3.5224,-3.457,-3.3652,-3.3087,-3.252,-3.1881,-3.1582,-3.1496,-3.1496,-3.1496,-3.1496,-3.1496,-3.1496,-3.1496,-3.1496,-3.1496,-3.1496,-3.1496,-3.1496,-3.1496,-3.1406,-3.1167,-3.0687,-3.0402,-3.0193,-2.9953,-2.9639,-2.9235,-2.8936,-2.8637,-2.8173,-2.7884,-2.769,-2.7615,-2.7585,-2.7585,-2.7585,-2.766,-2.7929,-2.8618,-2.9337,-2.9724,-3.0354,-3.1361,-3.1467,-3.1394,-3.1248,-3.0866,-3.0837,-3.0748,-3.0389,-3.0359,-3.0042,-2.9223,-2.8395,-2.7729,-2.7307,-2.731,-2.7337,-2.7821,-2.8398,-2.8875,-2.939,-2.9654,-2.9779,-2.9779,-2.9779,-2.9779,-2.9779,-2.9779,-2.9779,-2.9779,-2.9779,-2.9779,-2.9779,-2.9779,-2.9779,-2.9779,-2.9779,-2.9779,-2.9779,-2.9779,-2.9779,-2.9779,-2.9779,-2.9779,-2.9779,-2.9779,-2.9779,-2.9779,-2.9779,-2.9779,-2.9779,-2.9779,-2.9779,-2.974,-2.9482]},{"header":{"parameterUnit":"m.s-1","parameterCategory":1,"la1":31.0,"la2":29.5877,"lo1":-88.7671,"lo2":-86.6584,"dy":0.0162,"dx":0.0185,"nx":115,"ny":88,"refTime":"2026-03-21T12:00:00:Z","depth":0,"parameterNumber":3,"parameterNumberName":"V-component_of_WINDS"},"data":[0.0,0.0,0.0,0.0,0.0,0.0,0.0,0.0,0.0,0.0,0.0,0.0,0.0,0.0,0.0,0.0,0.0,0.0,0.0,0.0,0.0,0.0,0.0,0.0,0.0,0.0,0.0,0.0,0.0,0.0,0.0,0.0,0.0,0.0,0.0,0.0,0.0,0.0,0.0,0.0,0.0,0.0,0.0,0.0,0.0,0.0,0.0,0.0,0.0,0.0,0.0,0.0,0.0,0.0,0.0,0.0,0.0,0.0,0.0,0.0,0.0,0.0,0.0,0.0,0.0,0.0,0.0,0.0,0.0,0.0,0.0,0.0,0.0,0.0,0.0,0.0,0.0,0.0,0.0,0.0,0.0,0.0,0.0,0.0,0.0,0.0,0.0,0.0,0.0,0.0,0.0,0.0,0.0,0.0,0.0,0.0,0.0,0.0,0.0,0.0,0.0,0.0,0.0,0.0,0.0,0.0,0.0,0.0,0.0,0.0,0.0,0.0,0.0,0.0,0.0,0.0,0.0,0.0,0.0,0.0,0.0,0.0,0.0,0.0,0.0,0.0,0.0,0.0,0.0,0.0,0.0,0.0,0.0,0.0,0.0,0.0,0.0,0.0,0.0,0.0,0.0,0.0,0.0,0.0,0.0,0.0,0.0,0.0,0.0,0.0,0.0,0.0,0.0,0.0,0.0,0.0,0.0,0.0,0.0,0.0,0.0,0.0,0.0,0.0,0.0,0.0,0.0,0.0,0.0,0.0,0.0,0.0,0.0,0.0,0.0,0.0,0.0,0.0,0.0,0.0,0.0,0.0,0.0,0.0,0.0,0.0,0.0,0.0,0.0,0.0,0.0,0.0,0.0,0.0,0.0,0.0,0.0,0.0,0.0,0.0,0.0,0.0,0.0,0.0,0.0,0.0,0.0,0.0,0.0,0.0,0.0,0.0,0.0,0.0,0.0,0.0,0.0,0.0,0.0,0.0,0.0,0.0,0.0,0.0,0.0,0.0,0.0,0.0,0.0,0.0,0.0,0.0,0.0,0.0,0.0,0.0,0.0,0.0,0.0,0.0,0.0,0.0,0.0,0.0,0.0,0.0,0.0,0.0,0.0,0.0,0.0,0.0,0.0,0.0,0.0,0.0,0.0,0.0,0.0,0.0,0.0,0.0,0.0,0.0,0.0,0.0,0.0,0.0,0.0,0.0,0.0,0.0,0.0,0.0,0.0,0.0,0.0,0.0,0.0,0.0,0.0,0.0,0.0,0.0,0.0,0.0,0.0,0.0,0.0,0.0,0.0,0.0,0.0,0.0,0.0,0.0,0.0,0.0,0.0,0.0,0.0,0.0,0.0,0.0,0.0,0.0,0.0,0.0,0.0,0.0,0.0,0.0,0.0,0.0,0.0,0.0,0.0,0.0,0.0,0.0,0.0,0.0,0.0,0.0,0.0,0.0,0.0,0.0,0.0,0.0,0.0,0.0,0.0,0.0,0.0,0.0,0.0,0.0,0.0,0.0,0.0,0.0,0.0,0.0,0.0,0.0,0.0,0.0,0.0,0.0,0.0,0.0,0.0,0.0,0.0,0.0,0.0,0.0,0.0,0.0,0.0,0.0,0.0,0.0,0.0,0.0,0.0,0.0,0.0,0.0,0.0,0.0,0.0,0.0,0.0,0.0,0.0,0.0,0.0,0.0,0.0,0.0,0.0,0.0,0.0,0.0,0.0,0.0,0.0,0.0,0.0,0.0,0.0,0.0,0.0,0.0,0.0,0.0,0.0,0.0,0.0,0.0,0.0,0.0,0.0,0.0,0.0,0.0,0.0,0.0,0.0,0.0,0.0,0.0,0.0,0.0,0.0,0.0,0.0,0.0,0.0,0.0,0.0,0.0,0.0,0.0,0.0,0.0,0.0,0.0,0.0,0.0,0.0,0.0,0.0,0.0,0.0,0.0,0.0,0.0,0.0,0.0,0.0,0.0,0.0,0.0,0.0,0.0,0.0,0.0,0.0,0.0,0.0,0.0,0.0,0.0,0.0,0.0,0.0,0.0,0.0,0.0,0.0,0.0,0.0,0.0,0.0,0.0,0.0,0.0,0.0,0.0,0.0,0.0,0.0,0.0,0.0,0.0,0.0,0.0,0.0,0.0,0.0,0.0,0.0,0.0,0.0,0.0,0.0,0.0,0.0,0.0,0.0,0.0,0.0,0.0,0.0,0.0,0.0,0.0,0.0,0.0,0.0,0.0,0.0,0.0,0.0,0.0,0.0,0.0,0.0,0.0,0.0,0.0,0.0,0.0,0.0,0.0,0.0,0.0,0.0,0.0,0.0,0.0,0.0,0.0,0.0,0.0,0.0,0.0,0.0,0.0,0.0,0.0,0.0,0.0,0.0,0.0,0.0,0.0,0.0,0.0,0.0,0.0,0.0,0.0,0.0,0.0,0.0,0.0,0.0,0.0,0.0,0.0,0.0,0.0,0.0,0.0,0.0,0.0,0.0,0.0,0.0,0.0,0.0,0.0,0.0,0.0,0.0,0.0,0.0,0.0,0.0,0.0,0.0,0.0,0.0,0.0,0.0,0.0,0.0,0.0,0.0,0.0,0.0,0.0,0.0,0.0,0.0,0.0,0.0,0.0,0.0,0.0,0.0,0.0,0.0,0.0,0.0,0.0,0.0,0.0,0.0,0.0,0.0,0.0,0.0,0.0,0.0,0.0,0.0,0.0,0.0,0.0,0.0,0.0,0.0,0.0,0.0,0.0,0.0,0.0,0.0,0.0,0.0,0.0,0.0,0.0,0.0,0.0,0.0,0.0,0.0,0.0,0.0,0.0,0.0,0.0,0.0,0.0,0.0,0.0,0.0,0.0,0.0,0.0,0.0,0.0,0.0,0.0,0.0,0.0,0.0,0.0,0.0,0.0,0.0,0.0,0.0,0.0,0.0,0.0,0.0,0.0,0.0,0.0,0.0,0.0,0.0,0.0,0.0,0.0,0.0,0.0,0.0,0.0,0.0,0.0,0.0,0.0,0.0,0.0,0.0,0.0,0.0,0.0,0.0,0.0,0.0,0.0,0.0,0.0,0.0,0.0,0.0,0.0,0.0,0.0,0.0,0.0,0.0,0.0,0.0,0.0,0.0,0.0,0.0,0.0,0.0,0.0,0.0,0.0,0.0,0.0,0.0,0.0,0.0,0.0,0.0,0.0,0.0,0.0,0.0,0.0,0.0,0.0,0.0,0.0,0.0,0.0,0.0,0.0,0.0,0.0,0.0,0.0,0.0,0.0,0.0,0.0,0.0,0.0,0.0,0.0,0.0,0.0,0.0,0.0,0.0,0.0,0.0,0.0,0.0,0.0,0.0,0.0,0.0,0.0,0.0,0.0,0.0,0.0,0.0,0.0,0.0,0.0,0.0,0.0,0.0,0.0,0.0,0.0,0.0,0.0,0.0,0.0,0.0,0.0,0.0,0.0,0.0,0.0,0.0,0.0,0.0,0.0,0.0,0.0,0.0,0.0,0.0,0.0,0.0,0.0,0.0,0.0,0.0,0.0,0.0,0.0,0.0,0.0,0.0,0.0,0.0,0.0,0.0,0.0,0.0,0.0,0.0,0.0,0.0,0.0,0.0,0.0,0.0,0.0,0.0,0.0,0.0,0.0,0.0,0.0,0.0,0.0,0.0,0.0,0.0,0.0,0.0,0.0,0.0,0.0,0.0,0.0,0.0,0.0,0.0,0.0,0.0,0.0,0.0,0.0,0.0,0.0,0.0,0.0,0.0,0.0,0.0,0.0,0.0,0.0,0.0,0.0,0.0,0.0,0.0,0.0,0.0,0.0,0.0,0.0,0.0,0.0,0.0,0.0,0.0,0.0,0.0,0.0,0.0,0.0,0.0,0.0,0.0,0.0,0.0,0.0,0.0,0.0,0.0,0.0,0.0,0.0,0.0,0.0,0.0,0.0,0.0,0.0,0.0,0.0,0.0,0.0,0.0,0.0,0.0,0.0,0.0,0.0,0.0,0.0,0.0,0.0,0.0,0.0,0.0,0.0,0.0,0.0,0.0,0.0,0.0,0.0,0.0,0.0,0.0,0.0,0.0,0.0,0.0,0.0,0.0,0.0,0.0,0.0,0.0,0.0,0.0,0.0,0.0,0.0,0.0,0.0,0.0,0.0,0.0,0.0,0.0,0.0,0.0,0.0,0.0,0.0,0.0,0.0,0.0,0.0,0.0,0.0,0.0,0.0,0.0,0.0,0.0,0.0,0.0,0.0,0.0,0.0,0.0,0.0,0.0,0.0,-2.2788,0.0,0.0,0.0,0.0,0.0,0.0,0.0,0.0,0.0,0.0,0.0,0.0,0.0,0.0,0.0,0.0,0.0,0.0,0.0,0.0,0.0,0.0,0.0,0.0,0.0,0.0,0.0,0.0,0.0,0.0,0.0,0.0,0.0,0.0,0.0,0.0,0.0,0.0,0.0,0.0,0.0,0.0,0.0,0.0,0.0,0.0,0.0,0.0,0.0,0.0,0.0,0.0,0.0,0.0,0.0,0.0,0.0,0.0,0.0,0.0,0.0,0.0,0.0,0.0,0.0,0.0,0.0,0.0,0.0,0.0,0.0,0.0,0.0,0.0,0.0,0.0,0.0,0.0,0.0,0.0,0.0,0.0,0.0,0.0,0.0,0.0,0.0,0.0,0.0,0.0,0.0,0.0,0.0,0.0,0.0,0.0,0.0,0.0,0.0,0.0,0.0,0.0,0.0,0.0,0.0,0.0,0.0,0.0,0.0,0.0,-2.9404,-2.7185,-2.6409,-2.4501,-2.1481,0.0,0.0,0.0,0.0,0.0,0.0,0.0,0.0,0.0,0.0,0.0,0.0,0.0,0.0,0.0,0.0,0.0,0.0,0.0,0.0,0.0,0.0,0.0,0.0,0.0,0.0,0.0,0.0,0.0,0.0,0.0,0.0,0.0,0.0,0.0,0.0,0.0,0.0,0.0,0.0,0.0,0.0,0.0,0.0,0.0,0.0,0.0,0.0,0.0,0.0,0.0,0.0,0.0,0.0,0.0,0.0,0.0,0.0,0.0,0.0,0.0,0.0,0.0,0.0,0.0,0.0,0.0,0.0,0.0,0.0,0.0,0.0,0.0,0.0,0.0,0.0,0.0,0.0,0.0,0.0,0.0,0.0,0.0,0.0,0.0,0.0,0.0,0.0,0.0,0.0,0.0,0.0,0.0,0.0,0.0,0.0,0.0,0.0,0.0,0.0,0.0,0.0,0.0,0.0,0.0,0.0,0.0,0.0,0.0,0.0,0.0,0.0,-2.566,-2.3771,-2.0227,0.0,0.0,0.0,0.0,0.0,0.0,0.0,0.0,0.0,0.0,0.0,0.0,0.0,0.0,0.0,0.0,0.0,0.0,0.0,0.0,0.0,0.0,0.0,0.0,0.0,0.0,0.0,0.0,0.0,0.0,0.0,0.0,0.0,0.0,0.0,0.0,0.0,0.0,0.0,0.0,0.0,0.0,0.0,0.0,0.0,0.0,0.0,0.0,0.0,0.0,0.0,0.0,0.0,0.0,0.0,0.0,0.0,0.0,0.0,0.0,0.0,0.0,0.0,0.0,0.0,0.0,0.0,0.0,0.0,0.0,0.0,0.0,0.0,0.0,0.0,0.0,0.0,0.0,0.0,0.0,0.0,0.0,0.0,0.0,0.0,0.0,0.0,0.0,0.0,0.0,0.0,0.0,0.0,0.0,0.0,0.0,0.0,0.0,0.0,0.0,0.0,0.0,0.0,0.0,0.0,0.0,0.0,0.0,0.0,0.0,-2.7953,-2.6603,-2.4758,0.0,-1.9746,0.0,0.0,0.0,0.0,0.0,0.0,0.0,0.0,0.0,0.0,0.0,0.0,0.0,0.0,0.0,0.0,0.0,0.0,0.0,0.0,0.0,0.0,0.0,0.0,0.0,0.0,0.0,0.0,0.0,0.0,0.0,0.0,0.0,0.0,0.0,0.0,0.0,0.0,0.0,0.0,0.0,0.0,0.0,0.0,0.0,0.0,0.0,0.0,0.0,0.0,0.0,0.0,0.0,0.0,0.0,0.0,0.0,0.0,0.0,0.0,0.0,0.0,0.0,0.0,0.0,0.0,0.0,0.0,0.0,0.0,0.0,0.0,0.0,0.0,0.0,0.0,0.0,0.0,0.0,0.0,0.0,0.0,0.0,0.0,0.0,0.0,0.0,0.0,0.0,0.0,0.0,0.0,0.0,0.0,0.0,0.0,0.0,0.0,0.0,0.0,0.0,0.0,0.0,0.0,0.0,0.0,0.0,0.0,0.0,0.0,-2.7482,-2.6269,-2.3066,-2.0642,0.0,0.0,0.0,0.0,0.0,0.0,0.0,0.0,0.0,0.0,0.0,0.0,0.0,0.0,0.0,0.0,0.0,0.0,0.0,0.0,0.0,0.0,0.0,0.0,0.0,0.0,0.0,0.0,0.0,0.0,0.0,0.0,0.0,0.0,0.0,0.0,0.0,0.0,0.0,0.0,0.0,0.0,0.0,0.0,0.0,0.0,0.0,0.0,0.0,0.0,0.0,0.0,0.0,0.0,0.0,0.0,0.0,0.0,0.0,0.0,0.0,0.0,0.0,0.0,0.0,0.0,0.0,0.0,0.0,0.0,0.0,0.0,0.0,0.0,0.0,0.0,0.0,0.0,0.0,0.0,0.0,0.0,0.0,0.0,0.0,0.0,0.0,0.0,0.0,0.0,0.0,0.0,0.0,0.0,0.0,0.0,0.0,0.0,0.0,0.0,0.0,0.0,0.0,0.0,0.0,0.0,0.0,0.0,0.0,0.0,-2.8244,-2.6287,-2.4513,-2.1616,-1.9659,-1.8831,0.0,0.0,0.0,0.0,0.0,0.0,0.0,0.0,0.0,0.0,0.0,0.0,0.0,0.0,0.0,0.0,0.0,0.0,0.0,0.0,0.0,0.0,0.0,0.0,0.0,0.0,0.0,0.0,0.0,0.0,0.0,0.0,0.0,0.0,0.0,0.0,0.0,0.0,0.0,0.0,0.0,0.0,0.0,0.0,0.0,0.0,0.0,0.0,0.0,0.0,0.0,0.0,0.0,0.0,0.0,0.0,0.0,0.0,0.0,0.0,0.0,0.0,0.0,0.0,0.0,0.0,0.0,0.0,0.0,0.0,0.0,0.0,0.0,0.0,0.0,0.0,0.0,0.0,0.0,0.0,0.0,0.0,0.0,0.0,0.0,0.0,0.0,0.0,0.0,0.0,0.0,0.0,0.0,0.0,0.0,0.0,0.0,0.0,0.0,0.0,0.0,0.0,0.0,0.0,0.0,0.0,0.0,0.0,-3.0645,-2.7287,-2.3958,-2.1122,-2.071,-1.9967,0.0,0.0,0.0,0.0,0.0,0.0,0.0,0.0,0.0,0.0,0.0,0.0,0.0,0.0,0.0,0.0,0.0,0.0,0.0,0.0,0.0,0.0,0.0,0.0,0.0,0.0,0.0,0.0,0.0,0.0,0.0,0.0,0.0,0.0,0.0,0.0,0.0,0.0,0.0,0.0,0.0,0.0,0.0,0.0,0.0,0.0,0.0,0.0,0.0,0.0,0.0,0.0,0.0,0.0,0.0,0.0,0.0,0.0,0.0,0.0,0.0,0.0,0.0,0.0,0.0,0.0,0.0,0.0,0.0,0.0,0.0,0.0,0.0,0.0,0.0,0.0,0.0,0.0,0.0,0.0,0.0,0.0,0.0,0.0,0.0,0.0,0.0,0.0,0.0,0.0,0.0,0.0,0.0,0.0,0.0,0.0,0.0,0.0,0.0,0.0,0.0,0.0,0.0,0.0,0.0,0.0,0.0,0.0,0.0,-2.804,-2.4223,-2.1658,-2.0697,-1.879,-1.7963,0.0,0.0,0.0,0.0,0.0,0.0,0.0,0.0,0.0,0.0,0.0,0.0,0.0,0.0,0.0,0.0,0.0,0.0,0.0,0.0,0.0,0.0,0.0,0.0,0.0,0.0,0.0,0.0,0.0,0.0,0.0,0.0,0.0,0.0,0.0,0.0,0.0,0.0,0.0,0.0,0.0,0.0,0.0,0.0,0.0,0.0,0.0,0.0,0.0,0.0,0.0,0.0,0.0,0.0,0.0,0.0,0.0,0.0,0.0,0.0,0.0,0.0,0.0,0.0,0.0,0.0,0.0,0.0,0.0,0.0,0.0,0.0,0.0,0.0,0.0,0.0,0.0,0.0,0.0,0.0,0.0,0.0,0.0,0.0,0.0,0.0,0.0,0.0,0.0,0.0,0.0,0.0,0.0,0.0,0.0,0.0,0.0,0.0,0.0,0.0,0.0,0.0,0.0,0.0,0.0,0.0,0.0,0.0,0.0,-2.5856,0.0,-2.0449,-2.042,-1.7772,-1.6923,0.0,0.0,0.0,0.0,0.0,0.0,0.0,0.0,0.0,0.0,0.0,0.0,0.0,0.0,0.0,0.0,0.0,0.0,0.0,0.0,0.0,0.0,0.0,0.0,0.0,0.0,0.0,0.0,0.0,0.0,0.0,0.0,0.0,0.0,0.0,0.0,0.0,0.0,0.0,0.0,0.0,0.0,0.0,0.0,0.0,0.0,0.0,0.0,0.0,0.0,0.0,0.0,0.0,0.0,0.0,0.0,0.0,0.0,0.0,0.0,0.0,0.0,0.0,0.0,0.0,0.0,0.0,0.0,0.0,0.0,0.0,0.0,0.0,0.0,0.0,0.0,0.0,0.0,0.0,0.0,0.0,0.0,0.0,0.0,0.0,0.0,0.0,0.0,0.0,0.0,0.0,0.0,0.0,0.0,0.0,0.0,0.0,0.0,0.0,0.0,0.0,0.0,0.0,0.0,0.0,0.0,0.0,0.0,-2.6478,-2.4122,-2.1661,-2.0176,-2.0119,-1.7827,-1.6992,0.0,0.0,0.0,0.0,0.0,0.0,0.0,0.0,0.0,0.0,0.0,0.0,0.0,0.0,0.0,0.0,0.0,0.0,0.0,0.0,0.0,0.0,0.0,0.0,0.0,0.0,0.0,0.0,0.0,0.0,0.0,0.0,0.0,0.0,0.0,0.0,0.0,0.0,0.0,0.0,0.0,0.0,0.0,0.0,0.0,0.0,0.0,0.0,0.0,0.0,0.0,0.0,0.0,0.0,0.0,0.0,0.0,0.0,0.0,0.0,0.0,0.0,0.0,0.0,0.0,0.0,0.0,0.0,0.0,0.0,0.0,0.0,0.0,0.0,0.0,0.0,0.0,0.0,0.0,0.0,0.0,0.0,0.0,0.0,0.0,0.0,0.0,0.0,0.0,0.0,0.0,0.0,0.0,0.0,0.0,0.0,0.0,0.0,0.0,0.0,0.0,0.0,0.0,0.0,0.0,0.0,0.0,0.0,0.0,-2.1964,-1.8642,-1.6958,-1.7012,-1.5406,-1.5164,0.0,0.0,0.0,0.0,0.0,0.0,0.0,0.0,0.0,0.0,0.0,0.0,0.0,0.0,0.0,0.0,0.0,0.0,0.0,0.0,0.0,0.0,0.0,0.0,0.0,0.0,0.0,0.0,0.0,0.0,0.0,0.0,0.0,0.0,0.0,0.0,0.0,0.0,0.0,0.0,0.0,0.0,0.0,0.0,0.0,0.0,0.0,0.0,0.0,0.0,0.0,0.0,0.0,0.0,0.0,0.0,0.0,0.0,0.0,0.0,0.0,0.0,0.0,0.0,0.0,0.0,0.0,0.0,0.0,0.0,0.0,0.0,0.0,0.0,0.0,0.0,0.0,0.0,0.0,0.0,0.0,0.0,0.0,0.0,0.0,0.0,0.0,0.0,0.0,0.0,0.0,0.0,0.0,0.0,0.0,0.0,0.0,0.0,0.0,0.0,0.0,0.0,0.0,0.0,0.0,0.0,0.0,0.0,0.0,-2.1409,-1.7721,-1.6095,-1.6887,-1.4852,-1.4482,-1.6006,0.0,0.0,0.0,0.0,0.0,0.0,0.0,0.0,0.0,0.0,0.0,0.0,0.0,0.0,0.0,0.0,0.0,0.0,0.0,0.0,0.0,0.0,0.0,0.0,0.0,0.0,0.0,0.0,0.0,0.0,0.0,0.0,0.0,0.0,0.0,0.0,0.0,0.0,0.0,0.0,0.0,0.0,0.0,0.0,0.0,0.0,0.0,0.0,0.0,0.0,0.0,0.0,0.0,0.0,0.0,0.0,0.0,0.0,0.0,0.0,0.0,0.0,0.0,0.0,0.0,0.0,0.0,0.0,0.0,0.0,0.0,0.0,0.0,0.0,0.0,0.0,0.0,0.0,0.0,0.0,0.0,0.0,0.0,0.0,0.0,0.0,0.0,0.0,0.0,0.0,0.0,0.0,0.0,0.0,0.0,0.0,0.0,0.0,0.0,0.0,0.0,0.0,0.0,0.0,0.0,0.0,0.0,0.0,-2.2574,-1.8549,-1.7145,-1.8559,-1.581,-1.4719,0.0,0.0,0.0,0.0,0.0,0.0,0.0,0.0,0.0,0.0,0.0,0.0,0.0,0.0,0.0,0.0,0.0,0.0,0.0,0.0,0.0,0.0,0.0,0.0,0.0,0.0,0.0,0.0,0.0,0.0,0.0,0.0,0.0,0.0,0.0,0.0,0.0,0.0,0.0,0.0,0.0,0.0,0.0,0.0,0.0,0.0,0.0,0.0,0.0,0.0,0.0,0.0,0.0,0.0,0.0,0.0,0.0,0.0,0.0,0.0,0.0,0.0,0.0,0.0,0.0,0.0,0.0,0.0,0.0,0.0,0.0,0.0,0.0,0.0,0.0,0.0,0.0,0.0,0.0,0.0,0.0,0.0,0.0,0.0,0.0,0.0,0.0,0.0,0.0,0.0,0.0,0.0,0.0,0.0,0.0,0.0,0.0,0.0,0.0,0.0,0.0,0.0,0.0,0.0,0.0,0.0,0.0,0.0,0.0,-2.5444,-2.0221,-1.6879,-1.5793,-1.5113,-1.4742,0.0,0.0,0.0,0.0,0.0,0.0,0.0,0.0,0.0,0.0,0.0,0.0,0.0,0.0,0.0,0.0,0.0,0.0,0.0,0.0,0.0,0.0,0.0,0.0,0.0,0.0,0.0,0.0,0.0,0.0,0.0,0.0,0.0,0.0,0.0,0.0,0.0,0.0,0.0,0.0,0.0,0.0,0.0,0.0,0.0,0.0,0.0,0.0,0.0,0.0,0.0,0.0,0.0,0.0,0.0,0.0,0.0,0.0,0.0,0.0,0.0,0.0,0.0,0.0,0.0,0.0,0.0,0.0,0.0,0.0,0.0,0.0,0.0,0.0,0.0,0.0,0.0,0.0,0.0,0.0,0.0,0.0,0.0,0.0,0.0,0.0,0.0,0.0,0.0,0.0,0.0,0.0,0.0,0.0,0.0,0.0,0.0,0.0,0.0,0.0,0.0,0.0,0.0,0.0,0.0,0.0,0.0,0.0,-2.5274,-2.6882,-2.1885,-1.8654,-1.7513,-1.6264,-1.547,0.0,0.0,0.0,0.0,0.0,0.0,0.0,0.0,0.0,0.0,0.0,0.0,0.0,0.0,0.0,0.0,0.0,0.0,0.0,0.0,0.0,0.0,0.0,0.0,0.0,0.0,0.0,0.0,0.0,0.0,0.0,0.0,0.0,0.0,0.0,0.0,0.0,0.0,0.0,0.0,0.0,0.0,0.0,0.0,0.0,0.0,0.0,0.0,0.0,0.0,0.0,0.0,0.0,0.0,0.0,0.0,0.0,0.0,0.0,0.0,0.0,0.0,0.0,0.0,0.0,0.0,0.0,0.0,0.0,0.0,0.0,0.0,0.0,0.0,0.0,0.0,0.0,0.0,0.0,0.0,0.0,0.0,0.0,0.0,0.0,0.0,0.0,0.0,0.0,0.0,0.0,0.0,0.0,0.0,0.0,0.0,0.0,0.0,0.0,0.0,0.0,0.0,0.0,0.0,0.0,0.0,0.0,0.0,-2.5587,-2.7133,-2.3329,-2.134,-2.1408,-1.84,-1.6778,0.0,0.0,0.0,0.0,0.0,0.0,0.0,0.0,0.0,0.0,0.0,0.0,0.0,0.0,0.0,0.0,0.0,0.0,0.0,0.0,0.0,0.0,0.0,0.0,0.0,0.0,0.0,0.0,0.0,0.0,0.0,0.0,0.0,0.0,0.0,0.0,0.0,0.0,0.0,0.0,0.0,0.0,0.0,0.0,0.0,0.0,0.0,0.0,0.0,0.0,0.0,0.0,0.0,0.0,0.0,0.0,0.0,0.0,0.0,0.0,0.0,0.0,0.0,0.0,0.0,0.0,0.0,0.0,0.0,0.0,0.0,0.0,0.0,0.0,0.0,0.0,0.0,0.0,0.0,0.0,0.0,0.0,0.0,0.0,0.0,0.0,0.0,0.0,0.0,0.0,0.0,0.0,0.0,0.0,0.0,0.0,0.0,0.0,0.0,0.0,0.0,0.0,0.0,0.0,0.0,0.0,0.0,0.0,-2.6366,-2.7844,-2.3726,-2.1613,-2.1877,-1.9838,-1.8913,0.0,0.0,0.0,0.0,0.0,0.0,0.0,0.0,0.0,0.0,0.0,0.0,0.0,0.0,0.0,0.0,0.0,0.0,0.0,0.0,0.0,0.0,0.0,0.0,0.0,0.0,0.0,0.0,0.0,0.0,0.0,0.0,0.0,0.0,0.0,0.0,0.0,0.0,0.0,0.0,0.0,0.0,0.0,0.0,0.0,0.0,0.0,0.0,-3.3242,0.0,0.0,0.0,0.0,0.0,0.0,0.0,0.0,0.0,0.0,0.0,0.0,0.0,0.0,0.0,0.0,0.0,0.0,0.0,0.0,0.0,0.0,0.0,0.0,0.0,0.0,0.0,0.0,0.0,0.0,0.0,0.0,0.0,0.0,0.0,0.0,0.0,0.0,0.0,0.0,0.0,0.0,0.0,0.0,0.0,0.0,0.0,0.0,0.0,0.0,0.0,0.0,0.0,0.0,0.0,0.0,0.0,0.0,0.0,-2.7538,-2.8146,-2.4816,-2.3048,-2.2949,-2.1882,-2.1133,0.0,0.0,0.0,0.0,0.0,0.0,0.0,0.0,0.0,0.0,0.0,0.0,0.0,0.0,0.0,0.0,0.0,0.0,0.0,0.0,0.0,0.0,0.0,0.0,0.0,0.0,0.0,0.0,0.0,0.0,0.0,0.0,0.0,0.0,0.0,0.0,0.0,0.0,0.0,0.0,0.0,0.0,0.0,0.0,0.0,0.0,0.0,0.0,0.0,0.0,0.0,0.0,0.0,0.0,0.0,0.0,0.0,0.0,0.0,0.0,0.0,0.0,0.0,0.0,0.0,0.0,0.0,0.0,0.0,0.0,0.0,0.0,0.0,0.0,0.0,0.0,0.0,0.0,0.0,0.0,0.0,0.0,0.0,0.0,0.0,0.0,0.0,0.0,0.0,0.0,0.0,0.0,0.0,0.0,0.0,0.0,0.0,0.0,0.0,0.0,0.0,0.0,0.0,0.0,0.0,0.0,0.0,-2.9532,-2.8307,-2.8413,-2.5913,-2.4449,-2.4202,-2.3587,-2.303,-2.2515,0.0,0.0,0.0,0.0,0.0,0.0,0.0,0.0,0.0,0.0,0.0,0.0,0.0,0.0,0.0,0.0,0.0,0.0,0.0,0.0,0.0,0.0,0.0,0.0,0.0,0.0,0.0,0.0,0.0,0.0,0.0,0.0,0.0,0.0,0.0,0.0,0.0,0.0,-3.9054,-3.8483,0.0,0.0,0.0,0.0,0.0,0.0,0.0,0.0,-2.9394,0.0,0.0,0.0,0.0,0.0,0.0,0.0,0.0,0.0,0.0,0.0,0.0,0.0,0.0,0.0,0.0,0.0,0.0,0.0,0.0,0.0,0.0,0.0,0.0,0.0,0.0,0.0,0.0,0.0,0.0,0.0,0.0,0.0,0.0,0.0,0.0,0.0,0.0,0.0,0.0,0.0,0.0,0.0,0.0,0.0,0.0,0.0,0.0,0.0,0.0,0.0,0.0,0.0,0.0,0.0,0.0,-3.3632,-2.8464,-2.6798,-2.8815,-2.5883,-2.4255,-2.4182,-2.338,-2.3398,-2.4196,0.0,0.0,0.0,0.0,0.0,0.0,0.0,0.0,0.0,0.0,0.0,0.0,0.0,0.0,0.0,0.0,0.0,0.0,0.0,0.0,0.0,0.0,0.0,0.0,0.0,0.0,0.0,0.0,0.0,0.0,0.0,0.0,0.0,0.0,0.0,0.0,0.0,0.0,0.0,-3.8766,-3.7729,0.0,0.0,0.0,0.0,0.0,0.0,0.0,0.0,-3.0873,0.0,0.0,0.0,0.0,0.0,0.0,0.0,0.0,0.0,0.0,0.0,0.0,0.0,0.0,0.0,0.0,0.0,0.0,0.0,0.0,0.0,0.0,0.0,0.0,0.0,0.0,0.0,0.0,0.0,0.0,0.0,0.0,0.0,0.0,0.0,0.0,0.0,0.0,0.0,0.0,0.0,0.0,0.0,0.0,0.0,0.0,0.0,0.0,0.0,0.0,0.0,0.0,0.0,0.0,0.0,-3.2545,-2.9223,-2.7894,-2.8636,-2.5688,-2.3901,-2.3734,-2.2732,-2.2815,0.0,0.0,0.0,0.0,0.0,0.0,0.0,0.0,0.0,0.0,0.0,0.0,0.0,0.0,0.0,0.0,0.0,0.0,0.0,0.0,0.0,0.0,0.0,0.0,0.0,0.0,0.0,0.0,0.0,0.0,0.0,0.0,0.0,0.0,0.0,0.0,0.0,0.0,0.0,0.0,-3.8934,-3.7835,-3.781,0.0,0.0,0.0,0.0,0.0,0.0,-3.0081,-3.0852,0.0,0.0,0.0,0.0,0.0,0.0,0.0,0.0,0.0,0.0,0.0,0.0,0.0,0.0,0.0,0.0,0.0,0.0,0.0,0.0,0.0,0.0,0.0,0.0,0.0,0.0,0.0,0.0,0.0,0.0,0.0,0.0,0.0,0.0,0.0,0.0,0.0,0.0,0.0,0.0,0.0,0.0,0.0,0.0,0.0,0.0,0.0,0.0,0.0,0.0,0.0,0.0,0.0,0.0,0.0,-3.1513,-2.9662,-2.8674,-2.8449,-2.5334,-2.3474,-2.322,-2.2408,-2.2493,0.0,0.0,0.0,0.0,0.0,0.0,0.0,0.0,0.0,0.0,0.0,0.0,0.0,0.0,0.0,0.0,0.0,0.0,0.0,0.0,0.0,0.0,0.0,0.0,0.0,0.0,0.0,0.0,0.0,0.0,0.0,0.0,0.0,0.0,0.0,0.0,0.0,0.0,0.0,0.0,0.0,-3.8203,-3.7409,-3.3988,0.0,0.0,0.0,0.0,-2.9669,-3.0681,0.0,0.0,0.0,0.0,0.0,0.0,0.0,0.0,0.0,0.0,0.0,0.0,0.0,0.0,0.0,0.0,0.0,0.0,0.0,0.0,0.0,0.0,0.0,0.0,0.0,0.0,0.0,0.0,0.0,0.0,0.0,0.0,0.0,0.0,0.0,0.0,0.0,0.0,0.0,0.0,0.0,0.0,0.0,0.0,0.0,0.0,0.0,0.0,0.0,0.0,0.0,0.0,0.0,0.0,0.0,0.0,-3.1396,-2.7797,-2.6722,-2.8325,-2.4955,-2.3021,-2.2968,-2.3042,-2.318,0.0,0.0,0.0,0.0,0.0,0.0,0.0,0.0,0.0,0.0,0.0,0.0,0.0,0.0,0.0,0.0,0.0,0.0,0.0,0.0,0.0,0.0,0.0,0.0,0.0,0.0,0.0,0.0,0.0,0.0,0.0,0.0,0.0,0.0,0.0,0.0,0.0,0.0,0.0,0.0,0.0,-3.8798,-3.5262,-3.2239,-3.0372,0.0,0.0,-3.0618,-3.2502,-3.4491,0.0,0.0,0.0,0.0,0.0,0.0,0.0,0.0,0.0,0.0,0.0,0.0,0.0,0.0,0.0,0.0,0.0,0.0,0.0,0.0,0.0,0.0,0.0,0.0,0.0,0.0,0.0,0.0,0.0,0.0,0.0,0.0,0.0,0.0,0.0,0.0,0.0,0.0,0.0,0.0,0.0,0.0,0.0,0.0,0.0,0.0,0.0,0.0,0.0,0.0,0.0,0.0,0.0,0.0,0.0,-2.984,-3.1077,-2.7561,-2.633,-2.7596,-2.426,-2.2285,-2.2184,-2.2434,-2.2584,0.0,0.0,0.0,0.0,0.0,0.0,0.0,0.0,0.0,0.0,0.0,0.0,0.0,0.0,0.0,0.0,0.0,0.0,0.0,0.0,0.0,0.0,0.0,0.0,0.0,0.0,0.0,0.0,0.0,0.0,0.0,0.0,0.0,0.0,0.0,0.0,0.0,0.0,0.0,0.0,0.0,0.0,-3.5826,-3.3894,0.0,0.0,0.0,-3.3939,-3.4876,0.0,0.0,0.0,0.0,0.0,0.0,0.0,0.0,0.0,0.0,0.0,0.0,0.0,0.0,0.0,0.0,0.0,0.0,0.0,0.0,0.0,0.0,0.0,0.0,0.0,0.0,0.0,0.0,0.0,0.0,0.0,0.0,0.0,0.0,0.0,0.0,0.0,0.0,0.0,0.0,0.0,0.0,0.0,0.0,0.0,0.0,0.0,0.0,0.0,0.0,0.0,0.0,0.0,0.0,0.0,0.0,0.0,-3.0482,-2.784,-2.6831,-2.7554,-2.4566,-2.2857,-2.2674,-2.287,0.0,0.0,0.0,0.0,0.0,0.0,0.0,0.0,0.0,0.0,0.0,0.0,0.0,0.0,0.0,0.0,0.0,0.0,0.0,0.0,0.0,0.0,0.0,0.0,0.0,0.0,0.0,-3.1616,0.0,0.0,0.0,0.0,0.0,0.0,0.0,0.0,0.0,0.0,0.0,0.0,0.0,0.0,-3.6788,-3.6429,-3.5586,-3.4875,0.0,0.0,-3.6556,-3.7141,-3.8283,-3.8416,0.0,0.0,0.0,0.0,0.0,0.0,0.0,0.0,0.0,0.0,0.0,0.0,0.0,0.0,0.0,0.0,0.0,0.0,0.0,0.0,0.0,0.0,0.0,0.0,0.0,0.0,0.0,0.0,0.0,0.0,0.0,0.0,0.0,0.0,0.0,0.0,0.0,0.0,0.0,0.0,0.0,0.0,0.0,0.0,0.0,0.0,0.0,0.0,0.0,0.0,0.0,0.0,0.0,0.0,-2.9068,-2.9392,-2.8521,-2.8416,-2.9226,-2.6837,-2.5554,-2.5505,-2.558,-2.4818,0.0,0.0,0.0,0.0,0.0,0.0,0.0,0.0,0.0,0.0,0.0,0.0,0.0,0.0,0.0,0.0,0.0,0.0,0.0,0.0,0.0,0.0,0.0,0.0,0.0,0.0,0.0,0.0,0.0,0.0,0.0,0.0,0.0,0.0,0.0,0.0,0.0,0.0,0.0,0.0,0.0,-3.8072,-3.5958,-3.6175,-3.6729,0.0,-3.6945,-3.7372,-3.9403,-4.0925,-4.0733,-3.7643,0.0,0.0,0.0,0.0,0.0,0.0,0.0,0.0,0.0,0.0,0.0,0.0,0.0,0.0,0.0,0.0,0.0,0.0,0.0,0.0,0.0,0.0,0.0,0.0,0.0,0.0,0.0,0.0,0.0,0.0,0.0,0.0,0.0,0.0,0.0,0.0,0.0,0.0,0.0,0.0,0.0,0.0,0.0,0.0,0.0,0.0,0.0,0.0,0.0,0.0,0.0,0.0,0.0,-2.8474,-2.8479,-2.7635,-2.7423,-2.7934,-2.6118,-2.5031,-2.4877,-2.5522,-2.5094,0.0,0.0,0.0,0.0,0.0,0.0,0.0,0.0,0.0,0.0,0.0,0.0,0.0,0.0,0.0,0.0,0.0,0.0,0.0,0.0,0.0,0.0,0.0,0.0,0.0,0.0,0.0,0.0,-3.0961,-3.0322,-3.0227,0.0,0.0,0.0,0.0,0.0,0.0,0.0,0.0,0.0,0.0,-3.7012,-3.7572,-3.8108,0.0,0.0,-3.9042,-3.9861,-4.0642,-4.0697,-3.9861,-3.7553,-3.6056,0.0,0.0,0.0,0.0,0.0,0.0,0.0,0.0,0.0,0.0,0.0,0.0,0.0,0.0,0.0,0.0,0.0,0.0,0.0,0.0,0.0,0.0,0.0,0.0,0.0,0.0,0.0,0.0,0.0,0.0,0.0,0.0,0.0,0.0,0.0,0.0,0.0,0.0,0.0,0.0,0.0,0.0,0.0,0.0,0.0,0.0,0.0,0.0,0.0,0.0,0.0,0.0,-2.7793,-2.7541,-2.7308,-2.7418,-2.7814,-2.6597,-2.583,-2.5522,-2.5973,-2.554,0.0,0.0,0.0,0.0,0.0,0.0,0.0,0.0,0.0,0.0,0.0,0.0,0.0,0.0,0.0,0.0,0.0,0.0,0.0,0.0,0.0,0.0,0.0,0.0,0.0,0.0,0.0,0.0,-3.1063,-3.0655,-3.0397,0.0,0.0,0.0,0.0,0.0,0.0,0.0,0.0,0.0,0.0,-3.6744,-3.8839,-3.9575,-3.9725,-3.9406,-4.0195,-4.0736,-4.0573,-4.0086,-3.8956,-3.6797,0.0,0.0,0.0,0.0,0.0,0.0,0.0,0.0,0.0,0.0,0.0,0.0,0.0,0.0,0.0,0.0,0.0,0.0,0.0,0.0,0.0,0.0,0.0,0.0,0.0,0.0,0.0,0.0,0.0,0.0,-2.4487,0.0,0.0,0.0,0.0,0.0,0.0,0.0,0.0,0.0,0.0,0.0,0.0,0.0,0.0,0.0,0.0,0.0,0.0,0.0,0.0,0.0,0.0,-2.707,-2.6467,-2.7945,-2.8982,-2.9436,-2.903,-2.8538,-2.8121,-2.7376,-2.6366,-2.506,0.0,0.0,0.0,0.0,0.0,0.0,0.0,0.0,0.0,0.0,0.0,0.0,0.0,0.0,0.0,0.0,0.0,0.0,0.0,0.0,0.0,0.0,0.0,0.0,0.0,0.0,-3.1182,-3.0616,-3.0357,0.0,0.0,0.0,0.0,0.0,0.0,0.0,0.0,0.0,0.0,-3.6381,-3.7765,-3.9393,-4.0147,-4.042,-4.0395,-4.0022,-3.9546,-3.9032,-3.932,-3.858,0.0,0.0,0.0,0.0,0.0,0.0,0.0,0.0,0.0,0.0,0.0,0.0,0.0,0.0,0.0,0.0,0.0,0.0,0.0,0.0,0.0,0.0,0.0,0.0,0.0,0.0,0.0,-2.6562,-2.6143,0.0,0.0,0.0,0.0,0.0,0.0,0.0,0.0,0.0,0.0,0.0,-2.5265,-2.5596,0.0,0.0,0.0,0.0,0.0,0.0,0.0,0.0,0.0,0.0,0.0,0.0,-2.5836,-2.5614,-2.6924,-2.7725,-2.7871,-2.7725,-2.7588,-2.7441,-2.6894,-2.585,-2.4313,0.0,0.0,0.0,0.0,0.0,0.0,0.0,0.0,0.0,0.0,0.0,0.0,0.0,0.0,0.0,0.0,0.0,0.0,0.0,0.0,0.0,0.0,0.0,0.0,0.0,-3.0543,0.0,0.0,0.0,0.0,0.0,0.0,0.0,0.0,0.0,0.0,0.0,-3.4327,-3.5322,-3.6433,-3.7663,-3.8969,-3.9308,-3.9421,0.0,0.0,0.0,0.0,0.0,0.0,0.0,0.0,0.0,0.0,0.0,0.0,0.0,0.0,-4.1287,-3.914,-3.8362,-3.7928,-3.7479,0.0,0.0,0.0,0.0,0.0,0.0,0.0,0.0,0.0,0.0,0.0,0.0,0.0,0.0,-2.6943,0.0,-2.6055,0.0,0.0,0.0,0.0,0.0,0.0,0.0,0.0,-2.5732,-2.6132,-2.6191,-2.6475,-2.6152,0.0,-2.5596,-2.5,0.0,0.0,0.0,0.0,0.0,0.0,0.0,0.0,-2.5223,-2.5173,-2.6348,-2.7012,-2.7012,-2.7012,-2.6943,-2.6797,-2.6387,-2.5478,-2.4053,-2.3477,-2.2916,0.0,0.0,0.0,0.0,0.0,0.0,0.0,0.0,0.0,0.0,0.0,0.0,0.0,0.0,0.0,0.0,0.0,0.0,0.0,0.0,0.0,0.0,0.0,-2.9691,0.0,0.0,0.0,0.0,0.0,0.0,0.0,0.0,0.0,-3.2448,-3.3684,-3.482,-3.5424,-3.6496,-3.7513,-3.8442,0.0,0.0,0.0,0.0,0.0,0.0,0.0,-3.5658,-3.527,-3.4857,-3.4946,-3.5995,-3.8599,-4.0727,-4.1292,0.0,0.0,-4.0502,-3.9738,-3.929,-3.8871,-3.932,-3.9619,-3.917,-3.9963,-4.0606,0.0,0.0,0.0,0.0,0.0,0.0,0.0,0.0,-2.751,-2.7363,0.0,-2.6377,0.0,0.0,0.0,0.0,0.0,-2.4754,0.0,0.0,-2.6641,-2.7031,-2.7031,-2.7031,-2.6582,-2.5791,-2.6572,-2.6094,-2.4473,-2.3578,0.0,0.0,0.0,0.0,0.0,0.0,-2.5223,-2.5134,-2.6299,-2.6963,-2.6953,-2.6953,-2.6777,-2.6377,-2.5967,-2.5284,-2.4482,-2.4424,-2.3652,-2.2043,-2.2341,0.0,0.0,0.0,0.0,0.0,0.0,0.0,0.0,0.0,0.0,0.0,0.0,0.0,0.0,0.0,0.0,0.0,0.0,0.0,0.0,-2.8694,0.0,0.0,0.0,0.0,0.0,0.0,0.0,0.0,0.0,0.0,-3.1953,-3.3534,-3.4914,-3.5395,0.0,0.0,0.0,0.0,-3.7764,-3.7249,-3.7161,-3.6797,-3.5721,-3.6006,-3.5968,-3.4964,0.0,0.0,-3.8685,-4.0374,-4.1535,-4.1441,-4.2387,-4.323,-4.3125,-4.2087,-4.1339,-4.1287,-4.0816,-4.0487,-4.0516,-4.101,-4.1489,-2.8302,0.0,0.0,0.0,0.0,-2.9264,-2.9375,-2.9639,-2.9394,-2.8838,-2.8066,-2.7412,0.0,0.0,0.0,0.0,0.0,0.0,-2.5937,-2.667,-2.7217,-2.748,-2.749,-2.7532,-2.7031,-2.623,-2.6455,-2.6152,-2.5313,-2.4795,-2.3973,-2.2934,0.0,0.0,0.0,0.0,-2.436,-2.4629,-2.5596,-2.6054,-2.6044,-2.6054,-2.5996,-2.5879,-2.5752,-2.5469,-2.4949,-2.493,-2.4238,-2.2904,-2.2889,0.0,0.0,0.0,0.0,0.0,0.0,0.0,0.0,0.0,0.0,0.0,0.0,0.0,0.0,0.0,0.0,0.0,0.0,0.0,-2.7092,-2.7496,-2.784,0.0,0.0,0.0,0.0,0.0,0.0,0.0,0.0,0.0,-3.2243,-3.3588,-3.4743,0.0,0.0,-3.6508,-3.6223,-3.6571,-3.6832,-3.6621,-3.6644,0.0,0.0,-3.5931,-3.5805,-3.5868,-3.7733,-3.936,-3.9965,-4.1251,-4.2015,-4.1519,-4.1683,-4.1938,-4.1953,-4.2058,-4.1931,-4.1519,-4.1617,-4.1826,-4.1871,-4.2312,-4.2746,-3.0454,-2.9968,-3.0325,-3.042,-3.0342,-3.0342,-3.0488,-3.0703,-3.0547,-2.9932,-2.9014,-2.8428,-2.7062,-2.5166,-2.4371,0.0,0.0,0.0,-2.6455,-2.7275,-2.7363,-2.749,-2.7656,-2.7542,-2.7051,-2.6406,-2.6387,-2.6162,-2.5684,-2.5293,-2.4453,-2.3247,0.0,0.0,-2.291,-2.3652,-2.4248,-2.4678,-2.5371,-2.5684,-2.5684,-2.5684,-2.5684,-2.5684,-2.5684,-2.5567,-2.5342,-2.5156,-2.4675,-2.3701,-2.3318,-2.2908,0.0,0.0,0.0,0.0,0.0,0.0,0.0,0.0,0.0,0.0,0.0,-2.8338,-2.7194,0.0,0.0,0.0,-2.6746,-2.7092,-2.7138,-2.762,0.0,0.0,0.0,0.0,0.0,0.0,0.0,-3.1365,-3.237,-3.2772,-3.2282,-3.3439,-3.4474,-3.4655,-3.529,-3.5592,-3.5219,0.0,-3.5717,-3.5717,-3.5705,-3.5705,-3.5705,-3.5441,-3.559,-3.6903,-3.8216,-3.9606,-4.0753,-4.1551,-4.1818,-4.1542,-4.1422,-4.1422,-4.1422,-4.1752,-4.1901,-4.1474,-4.1722,-4.1991,-4.2021,-4.2282,-4.2566,-3.2357,-3.2744,-3.1582,-3.1279,-3.1562,-3.1572,-3.1543,-3.1425,-3.0976,-3.048,-2.9966,-2.8954,-2.73,-2.512,-2.4065,0.0,-2.4257,-2.5683,-2.6803,-2.7699,-2.7246,-2.7236,-2.7591,-2.7148,-2.6748,-2.6328,-2.6338,-2.6123,-2.5684,-2.5322,-2.4893,-2.4473,-2.4082,-2.4043,-2.4297,-2.4375,-2.46,-2.5008,-2.54,-2.5577,-2.5586,-2.5586,-2.5586,-2.5577,-2.5586,-2.5577,-2.5567,-2.5234,-2.4814,-2.4365,-2.35,-2.2911,-2.2563,0.0,0.0,0.0,0.0,0.0,0.0,0.0,0.0,0.0,0.0,0.0,0.0,0.0,0.0,0.0,-2.6756,0.0,-2.7996,-2.8499,0.0,0.0,0.0,-2.8924,-3.037,-3.0245,-3.0496,-3.1718,0.0,0.0,-3.2227,-3.3156,-3.401,-3.4525,-3.4675,-3.4655,-3.4663,-3.4726,-3.468,-3.4743,-3.4705,-3.4693,-3.4839,-3.4866,-3.5664,-3.7627,-3.8173,-3.9047,-4.0784,-4.1272,-4.1309,-4.1183,-4.122,-4.1227,-4.1257,-4.116,-4.1235,-4.116,-4.1347,-4.1452,-4.1482,-4.1474,-4.1504,-3.3453,-3.3252,-3.2939,-3.251,-3.2012,-3.2012,-3.1826,-3.1394,-3.0105,-2.9103,-2.826,-2.6237,-2.4591,-2.323,-2.4087,-2.4697,-2.5109,-2.5496,-2.636,-2.7646,-2.7559,-2.7217,-2.6699,-2.6592,-2.6309,-2.5869,-2.584,-2.5791,-2.5684,-2.5586,-2.5352,-2.4932,-2.4861,-2.4372,-2.3516,-2.4092,-2.4307,-2.4092,-2.4521,-2.4727,-2.4736,-2.468,-2.4736,-2.468,-2.4736,-2.469,-2.4727,-2.4639,-2.4375,-2.3945,-2.3125,-2.2732,-2.2926,-2.1435,0.0,0.0,0.0,0.0,0.0,0.0,0.0,0.0,0.0,-2.6215,-2.3689,0.0,-2.5691,0.0,-2.6795,-2.7795,-2.7519,-2.7984,0.0,0.0,-2.8478,-2.8804,-3.0394,-3.0495,-3.0721,-3.142,-3.2302,-3.2704,-3.2265,-3.283,-3.3363,-3.347,-3.4198,-3.453,-3.4186,-3.4474,-3.468,-3.4655,-3.4688,-3.468,-3.4733,-3.5378,-3.6366,-3.7868,-3.8707,-3.9557,-4.0472,-4.0636,-4.0472,-4.0023,-3.9888,-3.9873,-3.9918,-3.9888,-3.9903,-3.9963,-4.0666,-4.1422,-4.1422,-4.1407,-4.1407,-3.3818,-3.3408,-3.3223,-3.2871,-3.2451,-3.2441,-3.1706,-3.0338,-2.9456,-2.8113,-2.6397,-2.4105,-2.2734,-2.2151,-2.3002,-2.3871,-2.4702,-2.5201,-2.6222,-2.7646,-2.7327,-2.6846,-2.6377,-2.6191,-2.5967,-2.5693,-2.5684,-2.5684,-2.5684,-2.5684,-2.5605,-2.5361,-2.5213,-2.4609,-2.3779,-2.4189,-2.4307,-2.4072,-2.4307,-2.4424,-2.4424,-2.4424,-2.4336,-2.4141,-2.4141,-2.4043,-2.3812,-2.3672,-2.3467,-2.3213,-2.2588,-2.2229,-2.2241,-2.1162,-2.082,0.0,0.0,0.0,0.0,0.0,0.0,0.0,0.0,0.0,0.0,0.0,-2.5584,-2.5572,-2.7105,-2.8084,-2.8021,-2.8536,-2.8976,-2.9277,-2.9038,-2.9327,-3.0482,-3.0821,-3.1173,-3.17,-3.2528,-3.2943,-3.2641,-3.288,-3.3124,-3.3124,-3.3596,-3.3872,-3.3633,-3.3822,-3.3985,-3.3985,-3.3997,-3.4193,-3.4605,-3.5571,-3.6633,-3.772,-3.8435,-3.9035,-3.9802,-3.9978,-3.9828,-3.9514,-3.9388,-3.9388,-3.9388,-3.9388,-3.9388,-3.9478,-3.9993,-4.0457,-4.0502,-4.0502,-4.0502,-3.373,-3.331,-3.2949,-3.2601,-3.2309,-3.2309,-3.112,-2.9073,-2.8531,-2.6773,-2.4156,-2.2402,-2.1509,-2.1309,-2.1484,-2.2301,-2.3731,-2.4626,-2.5952,-2.7461,-2.6728,-2.6357,-2.6289,-2.5908,-2.5684,-2.5684,-2.5684,-2.5684,-2.5684,-2.5684,-2.5577,-2.5499,-2.5127,-2.4687,-2.4268,-2.4212,-2.4258,-2.4202,-2.4212,-2.4212,-2.4248,-2.4248,-2.4053,-2.3652,-2.3633,-2.3418,-2.2955,-2.2627,-2.2432,-2.2412,-2.2031,-2.1631,-2.124,-2.0969,-2.0684,0.0,-2.1027,0.0,0.0,0.0,0.0,0.0,0.0,0.0,0.0,-2.5992,-2.6369,-2.658,-2.7645,-2.8499,-2.885,-2.9453,-2.9779,-2.9779,-2.9779,-3.0005,-3.0557,-3.1022,-3.1499,-3.2039,-3.2616,-3.2968,-3.293,-3.3018,-3.3124,-3.3313,-3.3248,-3.3298,-3.3338,-3.3406,-3.3474,-3.3326,-3.3441,-3.4153,-3.4893,-3.5816,-3.6752,-3.7591,-3.8057,-3.8308,-3.9273,-3.9418,-3.9403,-3.9388,-3.9388,-3.9388,-3.9388,-3.9388,-3.9388,-3.9388,-3.9463,-3.9493,-3.9478,-3.9508,-3.9388,-3.3291,-3.291,-3.2832,-3.1617,-2.9816,-2.9806,-2.9532,-2.8907,-2.5676,-2.2909,-2.0861,-2.1584,-2.1162,-1.991,-2.0761,-2.1953,-2.3321,-2.3228,-2.4445,-2.6621,-2.6465,-2.6201,-2.5869,-2.5732,-2.5684,-2.5684,-2.5684,-2.5684,-2.5674,-2.5371,-2.5019,-2.4658,-2.4238,-2.3818,-2.3354,0.0,0.0,0.0,-2.3344,-2.3335,-2.3344,-2.3335,-2.314,-2.2773,-2.2754,0.0,-2.2148,-2.2051,-2.2012,-2.1992,-2.1592,0.0,0.0,0.0,0.0,0.0,0.0,0.0,0.0,0.0,0.0,0.0,-2.421,-2.4063,-2.4374,-2.6008,-2.7101,-2.7178,-2.8549,-2.9315,-2.8976,-2.9453,-2.9779,-2.9779,-2.9779,-3.0005,-3.0545,-3.0708,-3.0972,-3.1486,-3.2039,-3.2378,-3.2432,-3.278,-3.3416,-3.4165,-3.3628,-3.3513,-3.4304,-3.4345,-3.4387,-3.4428,-3.5007,-3.5614,-3.5894,-3.6813,-3.7572,-3.7866,-3.8583,-3.909,-3.9292,-3.9343,-3.9358,-3.9328,-3.9388,-3.9343,-3.9358,-3.9388,-3.9298,-3.9373,-3.9358,-3.9388,-3.9388,-3.9388,-3.9388,-3.2988,0.0,-3.1508,-3.0269,0.0,-2.7155,-2.6297,-2.6037,-2.4,-2.1881,-1.9852,-2.044,-2.0146,-1.9196,-1.9751,-2.1065,-2.2897,-2.2597,-2.3859,-2.6327,-2.6162,-2.5898,-2.5684,-2.5684,-2.5684,-2.5684,-2.5684,-2.5615,-2.541,-2.5176,-2.4844,-2.4368,-2.4004,-2.3682,-2.3457,-2.3208,-2.3101,-2.3101,-2.3101,-2.3101,-2.3101,-2.3101,-2.2842,-2.2236,0.0,0.0,0.0,0.0,0.0,0.0,0.0,0.0,0.0,0.0,0.0,-2.0185,-2.0558,-2.1104,-2.1825,-2.2784,-2.3875,-2.5073,-2.5209,-2.5242,-2.5255,-2.6741,-2.7808,-2.8072,-2.8888,-2.9365,-2.9377,-2.9616,-2.9779,-2.9779,-2.9779,-2.9917,-3.0181,-3.0457,-3.0708,-3.0997,-3.1474,-3.1953,-3.2459,-3.2731,-3.3545,-3.4741,-3.4553,-3.4415,-3.5184,-3.502,-3.4815,-3.5359,-3.6304,-3.6968,-3.7098,-3.7904,-3.8568,-3.8642,-3.875,-3.8895,-3.8901,-3.8646,-3.8422,-3.8422,-3.8437,-3.8387,-3.8387,-3.8437,-3.8387,-3.8402,-3.8387,-3.8387,-3.8467,-3.896,-3.9388,-3.2705,-3.2377,-3.0035,-2.8846,-2.8262,-2.4964,-2.3145,-2.2486,0.0,0.0,0.0,-1.9419,-1.9152,-1.8918,-1.8761,-2.0142,-2.2527,-2.2174,-2.3569,-2.626,-2.5908,-2.5684,-2.5684,-2.5684,-2.5684,-2.5684,-2.5615,-2.543,-2.5116,-2.4969,-2.4658,-2.4297,-2.3877,-2.3633,-2.3545,-2.3213,-2.2945,-2.2877,-2.2945,-2.2955,-2.2886,-2.2867,-2.2549,-2.1787,-2.1777,-2.1387,-2.0635,-2.0615,-2.0615,-2.0615,-2.0615,-2.0556,-2.0459,-2.0488,-2.0458,-2.0428,-2.1136,-2.1893,-2.2474,-2.3869,-2.5025,-2.5707,-2.6311,-2.6637,-2.6637,-2.7444,-2.8185,-2.87,-2.8737,-2.8988,-2.9453,-2.949,-2.949,-2.9503,-2.9578,-2.9628,-2.9666,-3.0131,-3.0457,-3.0532,-3.0934,-3.1519,-3.2187,-3.2423,-3.3106,-3.4473,-3.4648,-3.525,-3.5875,-3.5718,-3.5707,-3.6525,-3.7352,-3.7823,-3.7833,-3.8282,-3.9029,-3.8844,-3.8491,-3.8242,-3.8138,-3.7764,-3.7449,-3.7524,-3.7404,-3.7449,-3.7434,-3.7509,-3.7404,-3.7404,-3.7404,-3.7404,-3.7494,-3.8237,-3.8925,-3.2363,-3.156,-2.9814,-2.807,-2.6269,-2.4062,-2.2089,-2.0278,-2.0271,-1.9963,-1.9412,-1.9118,-1.8965,-1.8841,-1.8342,-1.9613,-2.2114,-2.1899,-2.3214,0.0,-2.5713,-2.5684,-2.5684,-2.5684,-2.5684,-2.5654,-2.5352,-2.5137,-2.5037,-2.4326,-2.3935,-2.3828,-2.3447,-2.3057,-2.2725,-2.2637,-2.2422,-2.208,-2.2422,-2.2422,-2.207,-2.206,-2.1826,-2.1317,-2.1298,-2.1094,-2.0625,-2.0615,-2.0615,-2.0615,-2.0615,-2.0439,-2.0039,-2.0019,-1.9844,-1.9531,-1.9954,-2.0588,-2.1549,-2.2907,-2.4481,-2.6193,-2.6889,-2.7203,-2.7168,-2.7341,-2.762,-2.8147,-2.8247,-2.8247,-2.8348,-2.8386,-2.8423,-2.8411,-2.8775,-2.9051,-2.9063,-2.9553,-2.9905,-2.9917,-3.0394,-3.0761,-3.1118,-3.1476,-3.2211,-3.3093,-3.3937,-3.3975,-3.5727,-3.6816,-3.7512,-3.7937,-3.8213,-3.8061,-3.7679,-3.7516,-3.7808,-3.7689,-3.7659,-3.7539,-3.7554,-3.7389,-3.7255,-3.736,-3.727,-3.73,-3.7315,-3.7404,-3.73,-3.7255,-3.724,-3.7285,-3.7255,-3.7539,-3.7719,-3.1875,-3.1186,-2.8537,-2.6745,-2.5518,-2.2572,-2.0752,-1.9773,-1.9459,-1.9252,-1.9176,-1.9744,-1.9821,-1.9612,-2.0003,-2.123,-2.2977,-2.2854,-2.384,-2.5635,-2.5684,-2.5684,-2.5684,-2.5684,-2.5567,-2.5371,-2.5166,-2.4881,-2.4375,-2.401,-2.3662,-2.3428,-2.2964,-2.2705,-2.251,-2.2285,-2.1963,-2.1562,-2.1953,-2.207,-2.1936,-2.1936,-2.168,-2.121,-2.12,-2.1025,-2.0625,-2.0615,-2.0615,-2.0615,-2.0615,-2.0507,-2.0283,-2.0273,-2.0185,-2.0038,-2.0156,-2.0966,-2.2461,-2.4162,-2.5499,-2.643,-2.6725,-2.6876,-2.6864,-2.7429,-2.7833,-2.8084,-2.8109,-2.8109,-2.8109,-2.8109,-2.8109,-2.8109,-2.8335,-2.8473,-2.8536,-2.8938,-2.9315,-2.9377,-2.9829,-3.0559,-3.1565,-3.1927,-3.286,-3.4441,-3.505,-3.5654,-3.6497,-3.7151,-3.7603,-3.7809,-3.7853,-3.7749,-3.7434,-3.7404,-3.7404,-3.7404,-3.712,-3.6926,-3.6881,-3.6686,-3.6417,-3.6372,-3.6387,-3.6372,-3.6402,-3.6387,-3.6387,-3.6372,-3.6372,-3.6372,-3.6372,-3.6372,-3.6611,-3.1465,-3.1032,-2.7418,-2.5245,-2.3968,-2.1033,-1.993,-2.0103,-1.9647,-1.9485,-1.9857,-2.0479,-2.0483,-2.0249,-2.1454,-2.2605,-2.3619,-2.3692,-2.4402,-2.5635,-2.5684,-2.5684,-2.5664,-2.5596,-2.54,-2.5106,-2.493,-2.4424,-2.3848,-2.3691,-2.3428,-2.2964,-2.2676,-2.2422,-2.2185,-2.1894,-2.1523,-2.1143,-2.1426,-2.1592,-2.1582,-2.1633,-2.1426,-2.1073,-2.1044,-2.0918,-2.0635,-2.0615,-2.0615,-2.0615,-2.0615,-2.0615,-2.0615,-2.0615,-2.0615,-2.0615,-2.0615,-2.1461,-2.3331,-2.4957,-2.6013,-2.6452,-2.6487,-2.6487,-2.6562,-2.7231,-2.7733,-2.7733,-2.7695,-2.7695,-2.7682,-2.7708,-2.7745,-2.7733,-2.7858,-2.7921,-2.7971,-2.8411,-2.8737,-2.88,-2.9429,-3.0514,-3.1726,-3.2417,-3.3396,-3.5273,-3.6338,-3.6673,-3.6903,-3.6985,-3.6985,-3.7015,-3.709,-3.709,-3.7045,-3.6926,-3.6911,-3.6971,-3.6582,-3.6312,-3.6193,-3.5818,-3.5564,-3.5609,-3.5564,-3.5609,-3.5534,-3.5549,-3.5579,-3.5639,-3.5654,-3.5579,-3.5624,-3.5609,-3.5789,-3.1289,-3.0421,-2.7103,-2.3572,-2.0541,-1.9998,-2.0433,-2.1266,-2.0913,-2.136,-2.2033,-2.0819,-2.0249,-2.0242,-2.1345,-2.256,-2.3741,-2.3741,-2.4461,-2.5586,-2.5684,-2.5684,-2.5625,-2.5322,-2.5107,-2.4998,-2.4297,-2.3916,-2.374,-2.3344,-2.2955,-2.2617,-2.2519,-2.2068,-2.1414,-2.1278,-2.1074,-2.0683,-2.0703,-2.0723,-2.0723,-2.0723,-2.0703,-2.0664,-2.0674,-2.0644,-2.0615,-2.0615,-2.0615,-2.0615,-2.0615,-2.0615,-2.0605,-2.0605,-2.0605,-2.0605,-2.0605,-2.1461,-2.3257,-2.3661,-2.4648,-2.6267,-2.6487,-2.6487,-2.6487,-2.6587,-2.6663,-2.67,-2.6688,-2.6738,-2.6663,-2.67,-2.6763,-2.6826,-2.7105,-2.7392,-2.7419,-2.7846,-2.8185,-2.8185,-2.9314,-3.0441,-3.072,-3.1755,-3.3017,-3.4235,-3.4568,-3.4963,-3.5627,-3.5774,-3.5818,-3.5863,-3.6163,-3.6282,-3.5953,-3.5684,-3.5848,-3.5789,-3.5684,-3.5669,-3.5654,-3.5624,-3.5489,-3.5489,-3.5489,-3.5489,-3.5489,-3.5489,-3.5489,-3.5489,-3.5489,-3.5489,-3.5489,-3.5489,-3.5654,-3.0889,-3.0161,-2.6937,-2.3325,-2.0103,-2.0573,-2.0988,-2.1216,-2.176,-2.2124,-2.2358,-2.2253,-2.224,-2.2333,-2.3506,-2.4412,-2.4864,-2.4873,-2.5177,-2.5684,-2.5684,-2.5547,-2.5332,-2.5166,-2.4871,-2.4372,-2.3945,-2.3652,-2.3364,-2.3179,-2.2877,-2.2519,-2.2275,-2.1836,-2.121,-2.0967,-2.0752,-2.0615,-2.0615,-2.0615,-2.0615,-2.0615,-2.0615,-2.0615,-2.0615,-2.0615,-2.0615,-2.0615,-2.0615,-2.0615,-2.0615,-2.0615,-2.0605,-2.0361,-2.0303,-2.0605,-2.1116,-2.1773,-2.2542,-2.3708,-2.4743,-2.5594,-2.6164,-2.6487,-2.6487,-2.6487,-2.6487,-2.6487,-2.6487,-2.6487,-2.6487,-2.6487,-2.6487,-2.6524,-2.67,-2.6839,-2.6839,-2.7316,-2.762,-2.7693,-2.8448,-2.9287,-2.9954,-3.1309,-3.2658,-3.3501,-3.3723,-3.4061,-3.4754,-3.4891,-3.5085,-3.5444,-3.5759,-3.5789,-3.5549,-3.5489,-3.5489,-3.5489,-3.5489,-3.5489,-3.5474,-3.5489,-3.5489,-3.5489,-3.5444,-3.5444,-3.5489,-3.5489,-3.5489,-3.5459,-3.5489,-3.5489,-3.5489,-3.5489,-3.5489,-3.0508,-2.9776,-2.7057,-2.3681,-2.0454,-2.1536,-2.1869,-2.1648,-2.263,-2.3132,-2.334,-2.3972,-2.4254,-2.4402,-2.5274,-2.5684,-2.5684,-2.5684,-2.5684,-2.5664,-2.5615,-2.5391,-2.5116,-2.4851,-2.4394,-2.3857,-2.3662,-2.3437,-2.3101,-2.2964,-2.2754,-2.2344,-2.1914,-2.1484,-2.1074,-2.0752,-2.0615,-2.0615,-2.0615,-2.0615,-2.0615,-2.0615,-2.0615,-2.0615,-2.0615,-2.0615,-2.0615,-2.0615,-2.0615,-2.0615,-2.0615,-2.0546,-2.0381,-2.0078,-2.0059,-2.0419,-2.104,-2.1751,-2.2344,-2.3781,-2.4814,-2.5406,-2.6094,-2.6487,-2.6487,-2.6487,-2.6487,-2.6487,-2.6487,-2.6487,-2.6487,-2.6487,-2.6487,-2.6487,-2.6487,-2.6487,-2.6537,-2.6889,-2.7055,-2.714,-2.7875,-2.8699,-2.9816,-3.124,-3.2466,-3.297,-3.3344,-3.3619,-3.4068,-3.4233,-3.4397,-3.4876,-3.4936,-3.513,-3.5385,-3.5489,-3.5474,-3.531,-3.528,-3.5429,-3.5355,-3.5325,-3.5489,-3.5489,-3.537,-3.5175,-3.5026,-3.5085,-3.507,-3.5175,-3.5205,-3.5175,-3.513,-3.51,-3.504,-3.0215,-2.9841,-2.7593,-2.4614,-2.1643,-2.2712,-2.3138,-2.3061,-2.38,-2.4822,-2.5841,-2.5673,-2.5586,-2.5528,-2.5635,-2.5684,-2.5684,-2.5684,-2.5684,-2.5645,-2.5322,-2.5135,-2.5057,-2.4248,-2.3828,-2.3711,-2.3398,-2.313,-2.3042,-2.2701,-2.2324,-2.1914,-2.1463,-2.1055,-2.0732,-2.0635,-2.0615,-2.0615,-2.0615,-2.0615,-2.0615,-2.0615,-2.0615,-2.0615,-2.0615,-2.0615,-2.0615,-2.0615,-2.0605,-2.0605,-2.0576,-2.0361,-1.999,-1.9912,-1.9902,-1.9932,-2.0026,-2.1087,-2.2959,-2.3588,-2.4433,-2.5978,-2.6383,-2.6487,-2.6487,-2.6487,-2.6487,-2.6487,-2.6487,-2.6487,-2.6487,-2.6487,-2.6487,-2.6487,-2.6487,-2.6487,-2.6487,-2.6549,-2.6524,-2.6763,-2.773,-2.897,-3.0565,-3.1673,-3.2043,-3.2407,-3.2948,-3.3455,-3.3499,-3.3544,-3.3619,-3.3709,-3.3829,-3.4038,-3.5145,-3.5175,-3.4981,-3.4801,-3.4816,-3.519,-3.5055,-3.4981,-3.522,-3.528,-3.4831,-3.4532,-3.4444,-3.4339,-3.4203,-3.4262,-3.4487,-3.4532,-3.4547,-3.3978,-3.3978,-2.9288,-2.7902,-2.6774,-2.4867,-2.2877,-2.4042,-2.4306,-2.3896,-2.5053,-2.5695,-2.5869,-2.5752,-2.5684,-2.5684,-2.5684,-2.5684,-2.5684,-2.5684,-2.5684,-2.5635,-2.5273,-2.4922,-2.46,-2.4043,-2.3623,-2.3379,-2.3169,-2.2955,-2.2744,-2.2578,-2.2148,-2.1553,-2.1288,-2.1016,-2.0683,-2.0615,-2.0615,-2.0615,-2.0615,-2.0615,-2.0615,-2.0615,-2.0615,-2.0615,-2.0615,-2.0615,-2.0615,-2.0615,-2.0478,-2.0166,-2.0146,-1.9961,-1.957,-1.9512,-1.9512,-1.9605,-2.034,-2.138,-2.2467,-2.3734,-2.4743,-2.5441,-2.6176,-2.6487,-2.6487,-2.6487,-2.6487,-2.6487,-2.6487,-2.6487,-2.6487,-2.6487,-2.6487,-2.6487,-2.6487,-2.6487,-2.6487,-2.6487,-2.6487,-2.6649,-2.747,-2.8485,-2.9527,-3.0463,-3.1176,-3.1661,-3.205,-3.2422,-3.2781,-3.2871,-3.2991,-3.338,-3.3514,-3.3649,-3.4023,-3.4203,-3.4113,-3.4023,-3.4038,-3.4098,-3.4038,-3.4098,-3.4292,-3.4367,-3.4023,-3.3814,-3.3694,-3.3724,-3.3574,-3.3649,-3.3844,-3.3858,-3.3858,-3.341,-3.3469,-2.8789,-2.7298,-2.6752,-2.555,-2.4136,-2.5189,-2.5085,-2.432,-2.5555,-2.6006,-2.5723,-2.5684,-2.5684,-2.5684,-2.5684,-2.5684,-2.5684,-2.5684,-2.5684,-2.5625,-2.5127,-2.4707,-2.4365,-2.3838,-2.3383,-2.311,-2.2945,-2.2783,-2.25,-2.2236,-2.1756,-2.1239,-2.1064,-2.0869,-2.0644,-2.0615,-2.0615,-2.0615,-2.0615,-2.0615,-2.0615,-2.0615,-2.0615,-2.0615,-2.0615,-2.0615,-2.0595,-2.0468,-2.0234,-1.9941,-1.9795,-1.9521,-1.9131,-1.8955,-1.9078,-1.9539,-2.0571,-2.1709,-2.2714,-2.4172,-2.5123,-2.5476,-2.6047,-2.6487,-2.6487,-2.6487,-2.6487,-2.6487,-2.6487,-2.6487,-2.6487,-2.6487,-2.6487,-2.6487,-2.6487,-2.6487,-2.6487,-2.6487,-2.6487,-2.6624,-2.7242,-2.7934,-2.8588,-2.9625,-3.0447,-3.1058,-3.1307,-3.172,-3.2049,-3.2183,-3.2317,-3.2751,-3.2781,-3.2751,-3.2871,-3.2886,-3.317,-3.3155,-3.3455,-3.3395,-3.323,-3.329,-3.3365,-3.3395,-3.329,-3.311,-3.3036,-3.3095,-3.314,-3.317,-3.3185,-3.3185,-3.3095,-3.2946,-3.2976,-2.8627,-2.8145,-2.7842,-2.6706,-2.5472,-2.6005,-2.5516,-2.4542,-2.5309,-2.5723,-2.5684,-2.5684,-2.5684,-2.5684,-2.5684,-2.5684,-2.5684,-2.5684,-2.5654,-2.5557,-2.4844,-2.4443,-2.4307,-2.352,-2.3159,-2.3081,-2.2744,-2.2539,-2.2422,-2.1736,-2.1307,-2.1122,-2.081,-2.0664,-2.0615,-2.0615,-2.0615,-2.0615,-2.0615,-2.0615,-2.0615,-2.0615,-2.0615,-2.0605,-2.0576,-2.0546,-2.0556,-2.0156,-1.9874,-1.9757,-1.9473,-1.9082,-1.8627,-1.832,-1.86,-1.9748,-2.0478,-2.1899,-2.3804,-2.466,-2.5461,-2.6129,-2.6452,-2.6487,-2.6487,-2.6487,-2.6487,-2.6487,-2.6487,-2.6487,-2.6487,-2.6487,-2.6487,-2.6487,-2.6487,-2.6487,-2.6487,-2.6487,-2.6487,-2.6611,-2.7284,-2.7703,-2.8117,-2.938,-3.0494,-3.0703,-3.1087,-3.1525,-3.163,-3.1675,-3.1585,-3.1615,-3.1824,-3.2004,-3.1765,-3.157,-3.1974,-3.2377,-3.2841,-3.3036,-3.2736,-3.2677,-3.2826,-3.2856,-3.2632,-3.2452,-3.2258,-3.2332,-3.2467,-3.2512,-3.2512,-3.2527,-3.2392,-3.2303,-3.2228,-2.8242,-2.7861,-2.7777,-2.7088,-2.6149,-2.6334,-2.5913,-2.526,-2.5576,-2.5684,-2.5684,-2.5684,-2.5684,-2.5684,-2.5684,-2.5684,-2.5684,-2.5674,-2.5576,-2.5215,-2.4678,-2.4258,-2.3926,-2.3364,-2.3101,-2.3081,-2.3008,-2.2627,-2.2129,-2.1797,-2.1406,-2.085,-2.0683,-2.0615,-2.0615,-2.0615,-2.0615,-2.0615,-2.0615,-2.0615,-2.0615,-2.0615,-2.0605,-2.0576,-2.0312,-2.0107,-2.0107,-1.998,-1.9592,-1.9056,-1.887,-1.8607,-1.8271,-1.8086,-1.8614,-1.9792,-2.0746,-2.206,-2.3917,-2.4937,-2.5698,-2.6305,-2.6487,-2.6487,-2.6487,-2.6487,-2.6487,-2.6487,-2.6487,-2.6487,-2.6487,-2.6487,-2.6487,-2.6487,-2.6487,-2.6487,-2.6487,-2.6487,-2.6487,-2.6658,-2.7736,-2.8505,-2.8876,-3.0072,-3.0984,-3.1058,-3.1351,-3.1496,-3.1496,-3.1496,-3.1496,-3.1496,-3.1496,-3.1496,-3.1496,-3.1496,-3.169,-3.1899,-3.2228,-3.2497,-3.2228,-3.2108,-3.2258,-3.2258,-3.2034,-3.1854,-3.166,-3.166,-3.1884,-3.1884,-3.1899,-3.1869,-3.1809,-3.1795,-3.1809,-2.791,-2.7689,-2.7324,-2.6894,-2.6377,-2.623,-2.5996,-2.5703,-2.5684,-2.5684,-2.5684,-2.5684,-2.5684,-2.5684,-2.5684,-2.5684,-2.5723,-2.5528,-2.5244,-2.4853,-2.457,-2.4189,-2.3779,-2.335,-2.3101,-2.3052,-2.2935,-2.2559,-2.1904,-2.1699,-2.1279,-2.0713,-2.0615,-2.0615,-2.0615,-2.0615,-2.0615,-2.0615,-2.0615,-2.0615,-2.0615,-2.0615,-2.0527,-2.0312,-2.0049,-1.9718,-1.9455,-1.9397,-1.9153,-1.8736,-1.8765,-1.8723,-1.8516,-1.8798,-1.9468,-2.0522,-2.145,-2.2566,-2.4014,-2.5016,-2.5724,-2.6122,-2.6361,-2.6487,-2.6487,-2.6487,-2.6487,-2.6487,-2.6487,-2.6487,-2.6487,-2.6487,-2.6487,-2.6487,-2.6487,-2.6487,-2.6487,-2.6487,-2.6679,-2.7108,-2.8149,-2.8957,-2.969,-3.0524,-3.1467,-3.1496,-3.1496,-3.1496,-3.1496,-3.1496,-3.1496,-3.1496,-3.1496,-3.1496,-3.1496,-3.1496,-3.1496,-3.1555,-3.1645,-3.178,-3.172,-3.1705,-3.1795,-3.1824,-3.1675,-3.169,-3.1525,-3.1525,-3.163,-3.1511,-3.1496,-3.1555,-3.163,-3.16,-3.1687,-2.7708,-2.7571,-2.6748,-2.6406,-2.6279,-2.5879,-2.5713,-2.5693,-2.5684,-2.5684,-2.5684,-2.5684,-2.5684,-2.5684,-2.5684,-2.5684,-2.5615,-2.5303,-2.4902,-2.4551,-2.4346,-2.4092,-2.3662,-2.3257,-2.3101,-2.3033,-2.276,-2.2363,-2.1885,-2.1562,-2.1025,-2.0664,-2.0615,-2.0615,-2.0615,-2.0615,-2.0615,-2.0615,-2.0615,-2.0615,-2.0615,-2.0615,-2.0449,-2.0039,-1.9893,-1.9521,-1.8948,-1.8856,-1.8738,-1.871,-1.9046,-1.9252,-1.9507,-2.0171,-2.0837,-2.1635,-2.2321,-2.3035,-2.4002,-2.4918,-2.5598,-2.5824,-2.626,-2.6487,-2.6487,-2.6487,-2.6487,-2.6487,-2.6487,-2.6487,-2.6487,-2.6487,-2.6487,-2.6487,-2.6487,-2.6487,-2.6487,-2.6487,-2.6816,-2.755,-2.846,-2.9303,-3.0072,-3.0955,-3.1365,-3.1496,-3.1496,-3.1496,-3.1496,-3.1496,-3.1496,-3.1496,-3.1496,-3.1496,-3.1496,-3.1496,-3.1496,-3.1496,-3.1496,-3.1496,-3.1496,-3.1496,-3.1496,-3.1496,-3.1496,-3.1496,-3.1496,-3.1496,-3.1496,-3.1496,-3.1496,-3.1496,-3.1553,-3.1611,-3.1894,-2.748,-2.7129,-2.6611,-2.6201,-2.5928,-2.5723,-2.5684,-2.5684,-2.5684,-2.5684,-2.5684,-2.5684,-2.5684,-2.5684,-2.5684,-2.5684,-2.5605,-2.5254,-2.4834,-2.4414,-2.4072,-2.3721,-2.3379,-2.3169,-2.3101,-2.3071,-2.2916,-2.2588,-2.1934,-2.1719,-2.1279,-2.0635,-2.0615,-2.0615,-2.0615,-2.0615,-2.0615,-2.0615,-2.0615,-2.0605,-2.0586,-2.0586,-2.0566,-2.041,-1.9775,-1.9365,-1.9115,-1.9126,-1.9119,-1.9119,-1.9227,-1.9617,-2.0204,-2.0558,-2.1112,-2.1819,-2.2114,-2.2873,-2.4208,-2.48,-2.536,-2.6185,-2.6298,-2.6487,-2.6487,-2.6487,-2.6487,-2.6487,-2.6487,-2.6487,-2.6487,-2.6487,-2.6487,-2.6487,-2.6487,-2.6487,-2.6487,-2.6521,-2.6803,-2.7617,-2.846,-2.9303,-3.0163,-3.0955,-3.1467,-3.1496,-3.1496,-3.1496,-3.1496,-3.1496,-3.1496,-3.1496,-3.1496,-3.1496,-3.1496,-3.1496,-3.1496,-3.1496,-3.1496,-3.1496,-3.1496,-3.1496,-3.1496,-3.1496,-3.1496,-3.1496,-3.1496,-3.1496,-3.1496,-3.1496,-3.1611,-3.1682,-3.1768,-3.1881,-3.2284,-2.7139,-2.6719,-2.6299,-2.5927,-2.5693,-2.5684,-2.5684,-2.5684,-2.5684,-2.5684,-2.5684,-2.5684,-2.5684,-2.5684,-2.5684,-2.5615,-2.542,-2.5,-2.4551,-2.4131,-2.3701,-2.3344,-2.314,-2.3101,-2.3101,-2.3062,-2.2906,-2.25,-2.1943,-2.1719,-2.1221,-2.0732,-2.0615,-2.0615,-2.0615,-2.0615,-2.0615,-2.0615,-2.0605,-2.0537,-2.0312,-2.0293,-2.0019,-1.9805,-1.9228,-1.9062,-1.9278,-1.9638,-1.9683,-1.9562,-1.9977,-2.0655,-2.1101,-2.151,-2.1865,-2.2414,-2.2414,-2.2979,-2.381,-2.4286,-2.487,-2.5598,-2.5959,-2.6248,-2.6411,-2.6487,-2.6487,-2.6487,-2.6487,-2.6487,-2.6487,-2.6487,-2.6487,-2.6487,-2.6487,-2.6487,-2.6487,-2.6487,-2.6871,-2.7604,-2.846,-2.9348,-3.0194,-3.0999,-3.138,-3.1496,-3.1496,-3.1496,-3.1496,-3.1496,-3.1496,-3.1496,-3.1496,-3.1496,-3.1496,-3.1496,-3.1496,-3.1496,-3.1496,-3.1496,-3.1496,-3.1496,-3.1496,-3.1496,-3.1496,-3.1496,-3.1496,-3.1496,-3.1496,-3.1553,-3.171,-3.1951,-3.2092,-3.2504,-3.2906,-2.6777,-2.6357,-2.5918,-2.5684,-2.5684,-2.5684,-2.5684,-2.5684,-2.5684,-2.5684,-2.5684,-2.5684,-2.5684,-2.5684,-2.5625,-2.5439,-2.5116,-2.46,-2.4121,-2.3721,-2.3335,-2.311,-2.311,-2.3101,-2.3101,-2.3033,-2.2705,-2.2314,-2.1894,-2.1484,-2.1025,-2.0674,-2.0615,-2.0615,-2.0615,-2.0615,-2.0615,-2.0615,-2.0615,-2.0361,-2.0078,-1.9971,-1.9678,-1.9102,-1.9086,-1.9042,-1.9507,-2.0117,-2.043,-1.9661,-2.1112,-2.1741,-2.2002,-2.272,-2.2975,-2.3055,-2.3087,-2.3248,-2.3384,-2.4042,-2.4469,-2.5084,-2.5548,-2.5908,-2.6373,-2.6487,-2.6487,-2.6487,-2.6487,-2.6487,-2.6487,-2.6487,-2.6487,-2.6487,-2.6487,-2.6487,-2.6521,-2.6555,-2.6939,-2.7736,-2.862,-2.9473,-3.0299,-3.0984,-3.1496,-3.1496,-3.1496,-3.1496,-3.1496,-3.1496,-3.1496,-3.1496,-3.1496,-3.1496,-3.1496,-3.1496,-3.1496,-3.1496,-3.1496,-3.1496,-3.1496,-3.1496,-3.1496,-3.1496,-3.1496,-3.1496,-3.1496,-3.1496,-3.1496,-3.1682,-3.1894,-3.2244,-3.2614,-3.3235,-3.371,-2.6777,-2.6348,-2.5928,-2.5684,-2.5684,-2.5684,-2.5684,-2.5684,-2.5684,-2.5684,-2.5684,-2.5684,-2.5674,-2.5703,-2.5391,-2.5146,-2.4959,-2.4268,-2.3691,-2.3257,-2.3169,-2.3101,-2.3101,-2.3101,-2.3091,-2.2974,-2.2695,-2.2285,-2.1855,-2.1396,-2.1006,-2.0664,-2.0615,-2.0615,-2.0615,-2.0615,-2.0615,-2.0615,-2.0615,-2.0332,-1.9961,-1.9863,-1.96,-1.9125,-1.9399,-1.9479,-1.9625,-2.0814,-2.1491,-2.1491,-2.171,-2.2218,-2.2689,-2.3012,-2.3133,-2.3183,-2.3509,-2.3766,-2.3941,-2.4519,-2.5259,-2.5335,-2.5787,-2.6361,-2.6436,-2.6487,-2.6487,-2.6487,-2.6487,-2.6487,-2.6487,-2.6487,-2.6487,-2.6487,-2.6487,-2.6487,-2.6589,-2.7027,-2.7703,-2.8492,-2.938,-3.0313,-3.1073,-3.1219,-3.1467,-3.1496,-3.1496,-3.1496,-3.1496,-3.1496,-3.1496,-3.1496,-3.1496,-3.1496,-3.1496,-3.1496,-3.1496,-3.1496,-3.1496,-3.1496,-3.1496,-3.1496,-3.1496,-3.1496,-3.1496,-3.1496,-3.1496,-3.1496,-3.1524,-3.1796,-3.2132,-3.2598,-3.3103,-3.3836,-3.4399,-2.6465,-2.6064,-2.5781,-2.5684,-2.5684,-2.5684,-2.5684,-2.5684,-2.5684,-2.5684,-2.5684,-2.5684,-2.5625,-2.542,-2.5166,-2.494,-2.4385,-2.3809,-2.3325,-2.313,-2.3101,-2.3101,-2.3101,-2.3062,-2.3013,-2.2779,-2.2412,-2.2002,-2.1572,-2.1162,-2.0781,-2.0635,-2.0615,-2.0615,-2.0615,-2.0615,-2.0615,-2.0615,-2.0595,-2.0312,-1.9727,-1.9609,-1.9277,-1.9108,-1.9622,-2.0106,-2.0074,-2.153,-2.231,-2.2476,-2.2488,-2.2641,-2.3049,-2.3346,-2.3371,-2.3208,-2.3346,-2.3559,-2.3785,-2.433,-2.4895,-2.5247,-2.5749,-2.6185,-2.6399,-2.6487,-2.6487,-2.6487,-2.6487,-2.6487,-2.6487,-2.6487,-2.6487,-2.6487,-2.6487,-2.6487,-2.6611,-2.7229,-2.7835,-2.8556,-2.9456,-3.0208,-3.0837,-3.1278,-3.1467,-3.1496,-3.1496,-3.1496,-3.1496,-3.1496,-3.1496,-3.1496,-3.1496,-3.1496,-3.1496,-3.1496,-3.1496,-3.1496,-3.1496,-3.1496,-3.1496,-3.1496,-3.1496,-3.1496,-3.1496,-3.1496,-3.1496,-3.1524,-3.171,-3.216,-3.2598,-3.3039,-3.3659,-3.4471,-3.4918,-2.6133,-2.5684,-2.5684,-2.5684,-2.5684,-2.5684,-2.5684,-2.5684,-2.5684,-2.5684,-2.5684,-2.5684,-2.5518,-2.5184,-2.5028,-2.4519,-2.3799,-2.3408,-2.312,-2.311,-2.3101,-2.3101,-2.3081,-2.2974,-2.2773,-2.2412,-2.21,-2.1699,-2.1269,-2.081,-2.0674,-2.0615,-2.0615,-2.0615,-2.0615,-2.0615,-2.0615,-2.0615,-2.0595,-2.0194,-1.9593,-1.9489,-1.9298,-1.9154,-2.0053,-2.0807,-2.1115,-2.2252,-2.321,-2.3233,-2.3384,-2.3421,-2.3459,-2.3653,-2.3816,-2.3283,-2.3471,-2.3459,-2.3446,-2.391,-2.4607,-2.4883,-2.5448,-2.5971,-2.6373,-2.6487,-2.6487,-2.6487,-2.6487,-2.6487,-2.6487,-2.6487,-2.6487,-2.6521,-2.6589,-2.6692,-2.6837,-2.7438,-2.8201,-2.8247,-2.9411,-3.0359,-3.0807,-3.1204,-3.1365,-3.1496,-3.1496,-3.1496,-3.1496,-3.1496,-3.1496,-3.1496,-3.1496,-3.1496,-3.1496,-3.1496,-3.1496,-3.1525,-3.1511,-3.1555,-3.154,-3.1496,-3.1496,-3.1496,-3.1496,-3.1511,-3.1511,-3.1496,-3.1838,-3.2504,-3.3039,-3.3427,-3.4186,-3.5098,-3.5412,-2.6133,-2.5684,-2.5684,-2.5684,-2.5684,-2.5684,-2.5684,-2.5684,-2.5684,-2.5684,-2.5684,-2.5674,-2.5488,-2.5068,-2.4658,-2.4062,-2.3428,-2.313,-2.3101,-2.3101,-2.3101,-2.3101,-2.3052,-2.2779,-2.2451,-2.208,-2.1928,-2.1714,-2.1262,-2.081,-2.0702,-2.0605,-2.0605,-2.0605,-2.0615,-2.0615,-2.0615,-2.0586,-2.0546,-2.0096,-1.973,-1.9936,-2.018,-1.9998,-2.0974,-2.1491,-2.189,-2.2978,-2.3853,-2.3941,-2.4707,-2.482,-2.4519,-2.423,-2.3979,-2.3879,-2.3985,-2.381,-2.3471,-2.4456,-2.4946,-2.5159,-2.5699,-2.626,-2.6461,-2.6487,-2.6487,-2.6487,-2.6487,-2.6487,-2.6487,-2.6487,-2.6487,-2.6611,-2.6939,-2.7351,-2.7657,-2.8395,-2.9192,-2.8971,-2.9752,-3.051,-3.0955,-3.1248,-3.1365,-3.1496,-3.1496,-3.1496,-3.1496,-3.1496,-3.1496,-3.1496,-3.1496,-3.1496,-3.1496,-3.1496,-3.1496,-3.154,-3.1585,-3.1675,-3.1645,-3.1525,-3.1511,-3.169,-3.163,-3.1555,-3.154,-3.1584,-3.202,-3.2707,-3.3261,-3.3836,-3.4568,-3.531,-3.5773,-2.5928,-2.5684,-2.5684,-2.5684,-2.5684,-2.5684,-2.5684,-2.5684,-2.5684,-2.5684,-2.5684,-2.5654,-2.5352,-2.4824,-2.4541,-2.3935,-2.3276,-2.3101,-2.3101,-2.3101,-2.3101,-2.3101,-2.3042,-2.2705,-2.2295,-2.2079,-2.2119,-2.2009,-2.1585,-2.0898,-2.0905,-2.1116,-2.0895,-2.0605,-2.0615,-2.0615,-2.0605,-2.0576,-2.0419,-2.0242,-2.0007,-2.0469,-2.0566,-2.0844,-2.1428,-2.1858,-2.2171,-2.3244,-2.3979,-2.413,-2.4745,-2.5121,-2.5084,-2.4732,-2.4293,-2.4092,-2.3985,-2.3923,-2.3697,-2.4644,-2.5051,-2.5335,-2.6047,-2.6436,-2.6487,-2.6487,-2.6487,-2.6487,-2.6487,-2.6487,-2.6487,-2.6487,-2.6487,-2.6555,-2.6952,-2.7317,-2.7756,-2.8524,-2.9097,-2.9566,-3.0389,-3.097,-3.1248,-3.1438,-3.1467,-3.1496,-3.1496,-3.1496,-3.1496,-3.1496,-3.1496,-3.1496,-3.1496,-3.1496,-3.1496,-3.1496,-3.1615,-3.1675,-3.178,-3.1884,-3.2093,-3.2153,-3.2108,-3.2168,-3.1989,-3.1835,-3.1953,-3.2143,-3.2552,-3.296,-3.3659,-3.4309,-3.4911,-3.5463,-3.5869,-2.5684,-2.5684,-2.5684,-2.5684,-2.5684,-2.5684,-2.5684,-2.5684,-2.5684,-2.5684,-2.5674,-2.5547,-2.5146,-2.4531,-2.4105,-2.3695,-2.3101,-2.3101,-2.3101,-2.3101,-2.3101,-2.3101,-2.2974,-2.2627,-2.2178,-2.1979,-2.1859,-2.2185,-2.1908,-2.1308,-2.1413,-2.1451,-2.1049,-2.0615,-2.0615,-2.0895,-2.0828,-2.0824,-2.0833,-2.0859,-2.1035,-2.0974,-2.0974,-2.1167,-2.191,-2.2392,-2.2644,-2.3733,-2.4374,-2.4582,-2.4958,-2.5385,-2.5598,-2.5172,-2.4587,-2.4167,-2.3584,-2.3653,-2.3966,-2.4506,-2.5084,-2.5473,-2.6135,-2.6411,-2.6487,-2.6487,-2.6487,-2.6487,-2.6487,-2.6487,-2.6487,-2.6487,-2.6487,-2.6611,-2.6884,-2.7229,-2.7703,-2.8409,-2.9331,-3.0011,-3.0881,-3.1278,-3.1409,-3.1496,-3.1496,-3.1496,-3.1496,-3.1496,-3.1496,-3.1496,-3.1496,-3.1496,-3.1496,-3.1496,-3.1496,-3.1496,-3.169,-3.1944,-3.2138,-3.2318,-3.2691,-3.3006,-3.3006,-3.3021,-3.2533,-3.245,-3.257,-3.2706,-3.2959,-3.3427,-3.4145,-3.4736,-3.5207,-3.5514,-3.583,-2.5684,-2.5684,-2.5684,-2.5684,-2.5684,-2.5684,-2.5684,-2.5684,-2.5684,-2.5684,-2.5654,-2.5322,-2.4902,-2.4336,-2.3578,-2.3237,-2.312,-2.3101,-2.3101,-2.3101,-2.3101,-2.3101,-2.2964,-2.2295,-2.2051,-2.1861,-2.1323,-2.1381,-2.1707,-2.1735,-2.1783,-2.1783,-2.1155,-2.0644,-2.0857,-2.1336,-2.1811,-2.1941,-2.2567,-2.2909,-2.2705,-2.2101,-2.2147,-2.2696,-2.3245,-2.3604,-2.371,-2.463,-2.5209,-2.5347,-2.5921,-2.6285,-2.6235,-2.5347,-2.4876,-2.4582,-2.4268,-2.3929,-2.4117,-2.4607,-2.5146,-2.5674,-2.6197,-2.6424,-2.6487,-2.6487,-2.6487,-2.6487,-2.6487,-2.6487,-2.6487,-2.6487,-2.6487,-2.6939,-2.7484,-2.7769,-2.8117,-2.8876,-2.9735,-3.0178,-3.097,-3.1219,-3.1365,-3.1438,-3.1496,-3.1496,-3.1496,-3.1496,-3.1496,-3.1496,-3.1496,-3.1496,-3.1675,-3.1705,-3.1765,-3.172,-3.1959,-3.2243,-3.2662,-3.2916,-3.3305,-3.3741,-3.4213,-3.406,-3.3508,-3.3139,-3.333,-3.3431,-3.3472,-3.4113,-3.5111,-3.5378,-3.5447,-3.5712,-3.6107,-2.5684,-2.5684,-2.5684,-2.5684,-2.5684,-2.5684,-2.5684,-2.5684,-2.5684,-2.5547,-2.5371,-2.5176,-2.4754,-2.4023,-2.3389,-2.311,-2.3101,-2.3101,-2.3101,-2.3101,-2.3101,-2.3101,-2.2896,-2.2334,-2.1946,-2.1855,-2.1638,-2.1703,-2.1849,-2.1593,-2.1413,-2.1886,-2.1193,-2.0934,-2.1364,-2.1811,-2.2328,-2.2735,-2.3144,-2.3211,-2.2962,-2.2783,-2.2893,-2.3584,-2.386,-2.4167,-2.4582,-2.5134,-2.5573,-2.5699,-2.6185,-2.6474,-2.6336,-2.5724,-2.5126,-2.4738,-2.4293,-2.4167,-2.4481,-2.4958,-2.5435,-2.5925,-2.6336,-2.6474,-2.6487,-2.6487,-2.6487,-2.6487,-2.6487,-2.6487,-2.6487,-2.6487,-2.6487,-2.6871,-2.767,-2.8149,-2.8556,-2.9566,-3.0299,-3.0644,-3.0955,-3.1146,-3.1336,-3.1438,-3.1496,-3.1496,-3.1496,-3.1496,-3.1496,-3.1496,-3.1496,-3.1496,-3.175,-3.1989,-3.2079,-3.2138,-3.2452,-3.2811,-3.3514,-3.3769,-3.4038,-3.4449,-3.4833,-3.4804,-3.4243,-3.4067,-3.4203,-3.442,-3.4688,-3.539,-3.6181,-3.6343,-3.6523,-3.681,-3.7144,-2.5684,-2.5684,-2.5684,-2.5684,-2.5684,-2.5684,-2.5615,-2.5557,-2.5557,-2.5312,-2.4961,-2.4756,-2.4297,-2.3711,-2.3257,-2.3101,-2.3101,-2.3101,-2.3101,-2.3101,-2.3101,-2.3101,-2.2838,-2.2344,-2.204,-2.2237,-2.1996,-2.2155,-2.2188,-2.1924,-2.1962,-2.2328,-2.1973,-2.1859,-2.2253,-2.285,-2.3441,-2.4291,-2.415,-2.3902,-2.366,-2.3585,-2.3779,-2.4117,-2.4368,-2.4594,-2.5008,-2.5548,-2.5858,-2.5984,-2.6248,-2.6487,-2.6386,-2.5875,-2.5423,-2.5034,-2.4582,-2.4531,-2.4782,-2.5134,-2.5695,-2.6185,-2.6487,-2.6487,-2.6487,-2.6487,-2.6487,-2.6487,-2.6487,-2.6487,-2.6487,-2.6487,-2.6487,-2.6748,-2.7284,-2.7953,-2.8639,-2.9473,-3.0163,-3.048,-3.0763,-3.1131,-3.1322,-3.1438,-3.1496,-3.1496,-3.1496,-3.1496,-3.1511,-3.1525,-3.169,-3.175,-3.2049,-3.2378,-3.2632,-3.2766,-3.3006,-3.3335,-3.4038,-3.4517,-3.4696,-3.4971,-3.5312,-3.5113,-3.4874,-3.5679,-3.6247,-3.6068,-3.5958,-3.6563,-3.7088,-3.7468,-3.7713,-3.7956,-3.8058,-2.5684,-2.5684,-2.5684,-2.5664,-2.5654,-2.5684,-2.5488,-2.5127,-2.5117,-2.4863,-2.4443,-2.4062,-2.3682,-2.3257,-2.3159,-2.3101,-2.3101,-2.3101,-2.3101,-2.3101,-2.3091,-2.3178,-2.2971,-2.27,-2.2432,-2.2946,-2.2643,-2.2708,-2.3184,-2.3184,-2.322,-2.3331,-2.2973,-2.3195,-2.3635,-2.4192,-2.4909,-2.5564,-2.5388,-2.5182,-2.4942,-2.4793,-2.4612,-2.4808,-2.5184,-2.5511,-2.5573,-2.6072,-2.6323,-2.6323,-2.6424,-2.6487,-2.6386,-2.59,-2.5523,-2.5209,-2.4863,-2.4883,-2.5109,-2.4946,-2.5167,-2.5971,-2.6487,-2.6487,-2.6487,-2.6487,-2.6487,-2.6487,-2.6487,-2.6487,-2.6487,-2.6487,-2.6487,-2.6714,-2.7162,-2.7835,-2.8492,-2.9066,-2.9735,-3.0194,-3.0644,-3.1117,-3.1322,-3.1467,-3.1496,-3.1496,-3.1496,-3.1496,-3.157,-3.1645,-3.1959,-3.2168,-3.2482,-3.2841,-3.3275,-3.3529,-3.3814,-3.3993,-3.4459,-3.4891,-3.5235,-3.5497,-3.5546,-3.581,-3.5799,-3.7051,-3.7905,-3.7296,-3.7028,-3.7542,-3.8024,-3.8396,-3.8379,-3.8328,-3.8514,-2.5684,-2.5654,-2.5439,-2.5332,-2.5322,-2.5322,-2.5068,-2.4717,-2.4668,-2.4424,-2.4004,-2.3584,-2.3301,-2.313,-2.3101,-2.3101,-2.3101,-2.3101,-2.3135,-2.3101,-2.3135,-2.3507,-2.3499,-2.3453,-2.3292,-2.3902,-2.3416,-2.2999,-2.3441,-2.412,-2.4373,-2.4301,-2.3963,-2.4011,-2.4492,-2.53,-2.6025,-2.6177,-2.5984,-2.5611,-2.5485,-2.5146,-2.4971,-2.5322,-2.541,-2.5812,-2.6122,-2.6348,-2.6461,-2.6474,-2.6461,-2.6424,-2.6323,-2.5812,-2.5473,-2.5222,-2.4913,-2.4976,-2.5234,-2.5084,-2.5531,-2.6109,-2.6487,-2.6487,-2.6487,-2.6487,-2.6487,-2.6487,-2.6487,-2.6487,-2.6487,-2.6487,-2.6521,-2.6726,-2.7108,-2.7716,-2.8441,-2.9066,-2.9889,-3.0614,-3.0955,-3.1307,-3.1409,-3.1496,-3.1496,-3.1496,-3.1496,-3.154,-3.1675,-3.1959,-3.2348,-3.2766,-3.311,-3.332,-3.3754,-3.4173,-3.4607,-3.4726,-3.4863,-3.513,-3.5444,-3.5459,-3.5623,-3.6027,-3.6476,-3.7221,-3.7669,-3.7794,-3.8117,-3.8665,-3.9056,-3.9343,-3.9174,-3.8777,-3.8805,-2.5606,-2.5508,-2.5243,-2.5059,-2.5049,-2.4969,-2.4629,-2.4277,-2.4228,-2.3994,-2.3574,-2.3227,-2.3101,-2.3101,-2.3101,-2.3101,-2.3222,-2.3464,-2.3584,-2.3844,-2.4178,-2.448,-2.4565,-2.4433,-2.4257,-2.4826,-2.45,-2.4036,-2.4648,-2.5146,-2.537,-2.5217,-2.485,-2.5028,-2.5406,-2.606,-2.6487,-2.6373,-2.616,-2.585,-2.5799,-2.5586,-2.546,-2.5824,-2.59,-2.6038,-2.6348,-2.6461,-2.6336,-2.6248,-2.616,-2.6097,-2.5908,-2.5611,-2.5285,-2.5039,-2.4901,-2.4913,-2.5322,-2.5636,-2.5984,-2.6147,-2.6436,-2.6461,-2.6487,-2.6487,-2.6487,-2.6487,-2.6487,-2.6487,-2.6487,-2.6487,-2.6487,-2.6624,-2.6782,-2.7364,-2.846,-2.9254,-3.0269,-3.1131,-3.1322,-3.1453,-3.1617,-3.172,-3.1765,-3.1795,-3.1884,-3.1959,-3.2064,-3.2422,-3.2946,-3.341,-3.3829,-3.4023,-3.4233,-3.4651,-3.5026,-3.507,-3.5175,-3.528,-3.5489,-3.5489,-3.5522,-3.5769,-3.6306,-3.707,-3.7706,-3.8231,-3.902,-3.9834,-3.9935,-3.9842,-3.964,-3.9236,-3.8924,-2.5469,-2.5145,-2.5086,-2.5067,-2.4979,-2.46,-2.4189,-2.3818,-2.3789,-2.3584,-2.3198,-2.3101,-2.3101,-2.3135,-2.3222,-2.3387,-2.3637,-2.4339,-2.4745,-2.4957,-2.542,-2.5823,-2.5634,-2.5301,-2.5203,-2.5386,-2.5242,-2.5394,-2.6151,-2.6129,-2.628,-2.6314,-2.6013,-2.6082,-2.6418,-2.6452,-2.6487,-2.6474,-2.6436,-2.6386,-2.6336,-2.6248,-2.6273,-2.6298,-2.6323,-2.6399,-2.6449,-2.6487,-2.6285,-2.5862,-2.5808,-2.5561,-2.5101,-2.4971,-2.4958,-2.5247,-2.4971,-2.5322,-2.626,-2.6411,-2.6248,-2.5963,-2.6323,-2.6474,-2.6487,-2.6487,-2.6487,-2.6487,-2.6487,-2.6487,-2.6487,-2.6487,-2.6487,-2.6521,-2.6692,-2.7129,-2.8233,-2.916,-3.0086,-3.1058,-3.1381,-3.157,-3.1809,-3.1974,-3.2034,-3.2123,-3.2287,-3.2422,-3.2572,-3.3006,-3.3574,-3.3918,-3.4352,-3.4637,-3.4831,-3.516,-3.5429,-3.5459,-3.5459,-3.5489,-3.5489,-3.5489,-3.5554,-3.5619,-3.6243,-3.71,-3.8048,-3.8908,-3.9358,-3.9705,-4.002,-3.9995,-3.9842,-3.9569,-3.9151,-2.5039,-2.4609,-2.4336,-2.4219,-2.4245,-2.4072,-2.376,-2.3408,-2.3305,-2.3271,-2.312,-2.3101,-2.3101,-2.3266,-2.393,-2.4253,-2.4467,-2.5389,-2.5922,-2.6016,-2.6449,-2.6593,-2.6482,-2.627,-2.6204,-2.6432,-2.6309,-2.6013,-2.6418,-2.6487,-2.6487,-2.6487,-2.6487,-2.6487,-2.6487,-2.6487,-2.6487,-2.6487,-2.6474,-2.6474,-2.6487,-2.6487,-2.6461,-2.6461,-2.6461,-2.6399,-2.6411,-2.6386,-2.6047,-2.5548,-2.5448,-2.5209,-2.47,-2.4519,-2.4381,-2.4657,-2.4556,-2.5347,-2.616,-2.6461,-2.6424,-2.6311,-2.6323,-2.6487,-2.6487,-2.6487,-2.6487,-2.6487,-2.6487,-2.6487,-2.6487,-2.6487,-2.6487,-2.6487,-2.6679,-2.7061,-2.7855,-2.8684,-2.9563,-3.0608,-3.122,-3.2154,-3.2662,-3.2811,-3.2856,-3.2961,-3.3155,-3.3125,-3.3215,-3.3694,-3.4218,-3.4427,-3.4771,-3.513,-3.5429,-3.5474,-3.5489,-3.5474,-3.5474,-3.5489,-3.5489,-3.5489,-3.5489,-3.5554,-3.6352,-3.7189,-3.7933,-3.8596,-3.8978,-3.9315,-3.9506,-3.9731,-3.9636,-3.9368,-3.902,-2.4951,-2.418,-2.3896,-2.3691,-2.3574,-2.3564,-2.3389,-2.3198,-2.3517,-2.3714,-2.38,-2.4092,-2.4349,-2.4595,-2.501,-2.5378,-2.5504,-2.6532,-2.7035,-2.7093,-2.7283,-2.7438,-2.7358,-2.7038,-2.6736,-2.6947,-2.6738,-2.6487,-2.6487,-2.6487,-2.6487,-2.6487,-2.6487,-2.6487,-2.6487,-2.6487,-2.6487,-2.6487,-2.6487,-2.6487,-2.6424,-2.6348,-2.6273,-2.6285,-2.6197,-2.5959,-2.6072,-2.5937,-2.5649,-2.5247,-2.4996,-2.4795,-2.4318,-2.3979,-2.3803,-2.4054,-2.4556,-2.5259,-2.5908,-2.6147,-2.6185,-2.6436,-2.6487,-2.6487,-2.6487,-2.6487,-2.6487,-2.6487,-2.6487,-2.6487,-2.6487,-2.6487,-2.6487,-2.6487,-2.6905,-2.7284,-2.8032,-2.8889,-2.9806,-3.0786,-3.1707,-3.266,-3.3469,-3.3664,-3.3754,-3.3903,-3.4069,-3.3963,-3.3903,-3.4352,-3.4726,-3.4891,-3.504,-3.5295,-3.5459,-3.5474,-3.5489,-3.5489,-3.5489,-3.5489,-3.5489,-3.5489,-3.5489,-3.5572,-3.629,-3.698,-3.7616,-3.8161,-3.8414,-3.8608,-3.8778,-3.9022,-3.9279,-3.8897,-3.8381,-2.5172,-2.3879,-2.3769,-2.3516,-2.3149,-2.3149,-2.3154,-2.3256,-2.4296,-2.4755,-2.4914,-2.5891,-2.6058,-2.6276,-2.6431,-2.6472,-2.6637,-2.7562,-2.7865,-2.8143,-2.8307,-2.8287,-2.7877,-2.7402,-2.6989,-2.6669,-2.6487,-2.6487,-2.6487,-2.6487,-2.6487,-2.6487,-2.6487,-2.6487,-2.6487,-2.6487,-2.6487,-2.6487,-2.6487,-2.6487,-2.6436,-2.5988,-2.6109,-2.605,-2.5724,-2.5485,-2.5448,-2.5322,-2.477,-2.4368,-2.4104,-2.3728,-2.3358,-2.3133,-2.3471,-2.3966,-2.4506,-2.4996,-2.5573,-2.5724,-2.6013,-2.6399,-2.6487,-2.6487,-2.6487,-2.6487,-2.6487,-2.6487,-2.6487,-2.6487,-2.6487,-2.6487,-2.6487,-2.6816,-2.7229,-2.7881,-2.8648,-2.9512,-3.0429,-3.1352,-3.2258,-3.311,-3.3873,-3.4234,-3.4457,-3.4592,-3.4681,-3.4696,-3.4696,-3.4891,-3.519,-3.525,-3.537,-3.5415,-3.5489,-3.5489,-3.5489,-3.5489,-3.5489,-3.5489,-3.5489,-3.5489,-3.5489,-3.5701,-3.6196,-3.6768,-3.7263,-3.7544,-3.769,-3.7863,-3.7847,-3.8121,-3.8346,-3.7716,-3.7247,-2.4703,-2.333,-2.3276,-2.3208,-2.311,-2.3101,-2.3507,-2.4339,-2.4702,-2.5168,-2.6058,-2.6348,-2.6483,-2.6483,-2.6483,-2.6953,-2.7441,-2.7968,-2.8307,-2.8553,-2.8612,-2.8211,-2.777,-2.7318,-2.6952,-2.6663,-2.6487,-2.6487,-2.6487,-2.6487,-2.6487,-2.6487,-2.6487,-2.6487,-2.6487,-2.6487,-2.6487,-2.6487,-2.6487,-2.6487,-2.6323,-2.585,-2.6059,-2.5988,-2.5259,-2.5109,-2.531,-2.4983,-2.4469,-2.4104,-2.4004,-2.3715,-2.317,-2.312,-2.3358,-2.3916,-2.4243,-2.4582,-2.5372,-2.5586,-2.5858,-2.6336,-2.6487,-2.6487,-2.6487,-2.6487,-2.6487,-2.6487,-2.6487,-2.6487,-2.6487,-2.6487,-2.6577,-2.6939,-2.7417,-2.8149,-2.9008,-3.014,-3.1081,-3.1985,-3.2852,-3.3768,-3.4487,-3.4801,-3.504,-3.5205,-3.528,-3.525,-3.528,-3.54,-3.5459,-3.5489,-3.5489,-3.5489,-3.5489,-3.5489,-3.5489,-3.5489,-3.5489,-3.5489,-3.5489,-3.5489,-3.5489,-3.5686,-3.6054,-3.643,-3.6798,-3.695,-3.6965,-3.6722,-3.6722,-3.707,-3.7249,-3.6828,-3.6737,-2.5434,-2.3854,-2.38,-2.3507,-2.3135,-2.3091,-2.3757,-2.467,-2.4798,-2.5263,-2.585,-2.6265,-2.6483,-2.6483,-2.6513,-2.6789,-2.7308,-2.7612,-2.787,-2.8025,-2.8263,-2.7872,-2.7406,-2.7055,-2.6788,-2.6562,-2.6487,-2.6487,-2.6487,-2.6487,-2.6487,-2.6487,-2.6487,-2.6487,-2.6487,-2.6487,-2.6487,-2.6487,-2.6487,-2.6487,-2.6223,-2.582,-2.5896,-2.6059,-2.5096,-2.4858,-2.5297,-2.482,-2.4098,-2.3916,-2.3879,-2.3496,-2.3108,-2.312,-2.3158,-2.3602,-2.3665,-2.4243,-2.4983,-2.5247,-2.5724,-2.6248,-2.6487,-2.6487,-2.6487,-2.6487,-2.6487,-2.6487,-2.6487,-2.6487,-2.6487,-2.6521,-2.6748,-2.6994,-2.767,-2.8363,-2.9519,-3.0704,-3.1689,-3.2614,-3.356,-3.4511,-3.51,-3.537,-3.5489,-3.5429,-3.5415,-3.54,-3.54,-3.5444,-3.5474,-3.5489,-3.5489,-3.5489,-3.5489,-3.5489,-3.5489,-3.5489,-3.5489,-3.5489,-3.5489,-3.5489,-3.5489,-3.5636,-3.5846,-3.6086,-3.629,-3.6196,-3.6149,-3.5959,-3.5943,-3.6212,-3.6585,-3.6646,-3.6707,-2.6778,-2.4745,-2.4713,-2.3963,-2.3178,-2.3091,-2.3671,-2.4607,-2.4522,-2.4798,-2.5199,-2.6047,-2.6438,-2.6285,-2.614,-2.6125,-2.6352,-2.6546,-2.6578,-2.7079,-2.7189,-2.6997,-2.6795,-2.6728,-2.6612,-2.6524,-2.6487,-2.6487,-2.6487,-2.6487,-2.6487,-2.6487,-2.6487,-2.6487,-2.6487,-2.6487,-2.6487,-2.6487,-2.6487,-2.6474,-2.6223,-2.5711,-2.531,-2.5933,-2.4971,-2.396,-2.4707,-2.4381,-2.3384,-2.3565,-2.3484,-2.3158,-2.312,-2.3108,-2.3145,-2.3158,-2.3233,-2.3898,-2.4607,-2.4958,-2.5561,-2.6097,-2.6487,-2.6487,-2.6487,-2.6487,-2.6487,-2.6487,-2.6487,-2.6487,-2.6487,-2.6816,-2.7095,-2.7637,-2.833,-2.9002,-2.9879,-3.1251,-3.2651,-3.349,-3.4176,-3.5055,-3.528,-3.5489,-3.5489,-3.5489,-3.5489,-3.5489,-3.5489,-3.5489,-3.5489,-3.5489,-3.5489,-3.5489,-3.5489,-3.5489,-3.5489,-3.5489,-3.5489,-3.5489,-3.5489,-3.5489,-3.5489,-3.5604,-3.5701,-3.5604,-3.5668,-3.5686,-3.575,-3.5653,-3.5636,-3.5554,-3.5767,-3.6212,-3.6584,-2.6819,-2.4755,-2.3877,-2.3343,-2.3135,-2.3101,-2.3212,-2.3477,-2.316,-2.4189,-2.5837,-2.621,-2.6155,-2.5651,-2.4975,-2.4908,-2.5271,-2.4968,-2.4754,-2.5333,-2.5789,-2.6104,-2.5909,-2.631,-2.6418,-2.6487,-2.6487,-2.6487,-2.6487,-2.6487,-2.6487,-2.6487,-2.6487,-2.6487,-2.6487,-2.6487,-2.6487,-2.6487,-2.6487,-2.6449,-2.6273,-2.5984,-2.5711,-2.5862,-2.5146,-2.4474,-2.477,-2.4318,-2.3597,-2.3358,-2.3221,-2.3108,-2.3095,-2.3095,-2.3095,-2.3108,-2.3158,-2.381,-2.4437,-2.4901,-2.5473,-2.6097,-2.6487,-2.6487,-2.6487,-2.6487,-2.6487,-2.6487,-2.6555,-2.6555,-2.6679,-2.7129,-2.765,-2.8344,-2.9016,-2.9673,-3.0328,-3.188,-3.3499,-3.4218,-3.4861,-3.5205,-3.5429,-3.5489,-3.5489,-3.5489,-3.5489,-3.5489,-3.5489,-3.5489,-3.5489,-3.5489,-3.5489,-3.5489,-3.5489,-3.5489,-3.5489,-3.5489,-3.5489,-3.5489,-3.5489,-3.5489,-3.5489,-3.5489,-3.5522,-3.5489,-3.5489,-3.5522,-3.5522,-3.5489,-3.5489,-3.5489,-3.5653,-3.6054,-3.6415,-2.7105,-2.5431,-2.3767,-2.3101,-2.3101,-2.3101,-2.3003,-2.2799,-2.2607,-2.3219,-2.4334,-2.4437,-2.434,-2.4106,-2.3433,-2.336,-2.3729,-2.3401,-2.3467,-2.3891,-2.4713,-2.5206,-2.549,-2.599,-2.6349,-2.6487,-2.6487,-2.6487,-2.6487,-2.6487,-2.6487,-2.6487,-2.6487,-2.6487,-2.6487,-2.6487,-2.6487,-2.6487,-2.6487,-2.6361,-2.621,-2.5837,-2.5921,-2.5996,-2.5385,-2.487,-2.4707,-2.4343,-2.3672,-2.3358,-2.3283,-2.312,-2.3095,-2.3095,-2.3095,-2.3195,-2.3409,-2.386,-2.4537,-2.5051,-2.5498,-2.6172,-2.6487,-2.6487,-2.6487,-2.6487,-2.6487,-2.6555,-2.7061,-2.7162,-2.7417,-2.7769,-2.8556,-2.9317,-2.9777,-3.0294,-3.1259,-3.2554,-3.3664,-3.4354,-3.4906,-3.534,-3.5489,-3.5489,-3.5489,-3.5489,-3.5489,-3.5489,-3.5489,-3.5489,-3.5489,-3.5489,-3.5489,-3.5489,-3.5489,-3.5489,-3.5489,-3.5489,-3.5489,-3.5489,-3.5489,-3.5489,-3.5489,-3.5489,-3.5489,-3.5489,-3.5489,-3.5489,-3.5489,-3.5489,-3.5489,-3.5489,-3.5686,-3.5863,-3.6134,-2.7371,-2.6058,-2.3973,-2.3101,-2.3081,-2.3023,-2.2818,-2.2539,-2.2383,-2.2129,-2.2042,-2.1953,-2.1738,-2.1797,-2.1807,-2.1799,-2.1877,-2.2136,-2.2325,-2.3036,-2.4143,-2.4705,-2.5348,-2.5943,-2.6302,-2.6487,-2.6487,-2.6487,-2.6487,-2.6487,-2.6487,-2.6487,-2.6487,-2.6487,-2.6487,-2.6487,-2.6487,-2.6487,-2.6411,-2.6147,-2.5883,-2.5573,-2.5858,-2.5594,-2.5084,-2.4682,-2.4657,-2.4368,-2.3678,-2.3409,-2.3321,-2.3183,-2.3095,-2.3095,-2.3095,-2.3183,-2.3396,-2.3985,-2.4695,-2.5134,-2.5724,-2.6273,-2.6424,-2.6487,-2.6521,-2.6611,-2.6611,-2.6871,-2.7417,-2.767,-2.792,-2.846,-2.9317,-3.0056,-3.0446,-3.0921,-3.2004,-3.3065,-3.3769,-3.4459,-3.4968,-3.54,-3.5489,-3.5489,-3.5489,-3.5489,-3.5489,-3.5489,-3.5489,-3.5489,-3.5489,-3.5489,-3.5489,-3.5489,-3.5489,-3.5489,-3.5489,-3.5489,-3.5489,-3.5489,-3.5489,-3.5489,-3.5489,-3.5489,-3.5489,-3.5489,-3.5489,-3.5489,-3.5489,-3.5489,-3.5489,-3.5489,-3.5522,-3.5686,-3.5863,-2.6942,-2.4999,-2.3627,-2.3081,-2.3033,-2.2783,-2.2578,-2.2402,-2.1726,-2.1375,-2.1299,-2.0996,-2.0977,-2.1307,-2.1317,-2.126,-2.1135,-2.128,-2.1691,-2.2289,-2.3618,-2.4371,-2.5123,-2.599,-2.6383,-2.6487,-2.6487,-2.6487,-2.6487,-2.6487,-2.6487,-2.6487,-2.6487,-2.6487,-2.6487,-2.6487,-2.6487,-2.6487,-2.6411,-2.621,-2.5749,-2.5511,-2.5335,-2.5134,-2.487,-2.4531,-2.428,-2.4029,-2.364,-2.3346,-2.3183,-2.312,-2.3095,-2.3095,-2.3095,-2.3158,-2.3384,-2.396,-2.4562,-2.5163,-2.581,-2.6373,-2.6521,-2.6577,-2.6748,-2.7129,-2.7162,-2.7263,-2.7604,-2.7637,-2.7953,-2.878,-2.9597,-3.0328,-3.0865,-3.1486,-3.2363,-3.3155,-3.3844,-3.4488,-3.5026,-3.534,-3.5489,-3.5489,-3.5489,-3.5489,-3.5489,-3.5489,-3.5489,-3.5489,-3.5489,-3.5489,-3.5489,-3.5489,-3.5489,-3.5489,-3.5489,-3.5489,-3.5489,-3.5489,-3.5489,-3.5489,-3.5489,-3.5489,-3.5489,-3.5489,-3.5489,-3.5489,-3.5489,-3.5489,-3.5489,-3.5489,-3.5489,-3.5522,-3.5686]}]]